Date StartTime U_cm/s V_cm/s W_cm/s Ustd_cm/s Vstd_cm/s Wstd_cm/s Uvar_(cm/s)^2 Vvar_(cm/s)^2 Wvar_(cm/s)^2 KE_(m/s)^2 TurbulentKE_(m/s)^2 HorizWindSpeed_cm/s FrictionSpeec_cm/s DragCoef SpeedOfSound_m/s SonicTemperature_C Pressure_mb 
09/29/2013  00:00:00      -93.419      -18.728       -3.961       49.559       39.219       21.841     2456.099     1538.094      477.013        0.678        0.224       95.278       20.621        0.047      341.384       16.060      861.624
09/29/2013  00:01:00     -168.964     -255.536        5.624      130.167      210.490       60.776    16943.422    44305.942     3693.720        7.940        3.247      306.345       66.439        0.047      342.054       17.193      861.683
09/29/2013  00:02:00     -223.608     -308.625      -11.287      136.113      172.378       78.019    18526.656    29714.018     6086.931        9.984        2.716      381.117       65.079        0.029      342.342       17.682      861.633
09/29/2013  00:03:00      -60.419     -111.232       -4.342       72.623       75.169       42.970     5274.101     5650.328     1846.381        1.440        0.639      126.582       11.564        0.008      342.239       17.508      861.626
09/29/2013  00:04:00      -83.820     -109.096       10.756       94.852       53.662       44.947     8996.924     2879.565     2020.234        1.647        0.695      137.578       26.791        0.038      342.259       17.541      861.699
09/29/2013  00:05:00      -16.216     -125.864       11.164       83.060      113.358       50.996     6899.004    12850.140     2600.578        1.929        1.117      126.905       42.198        0.111      342.349       17.695      861.668
09/29/2013  00:06:00       93.796      -99.486       28.240       91.501      119.391       70.187     8372.420    14254.153     4926.154        2.352        1.378      136.730       66.277        0.235      342.226       17.487      861.583
09/29/2013  00:07:00       46.664     -162.232       27.688       93.517      163.540       69.205     8745.508    26745.306     4789.354        3.476        2.014      168.810       77.061        0.208      342.592       18.108      861.630
09/29/2013  00:08:00      172.453     -190.052       14.074      106.791      141.541       71.562    11404.287    20033.901     5121.123        5.130        1.828      256.631       85.995        0.112      342.631       18.172      861.638
09/29/2013  00:09:00       79.114      -71.152       24.248       89.791      131.743       73.142     8062.472    17356.282     5349.743        2.133        1.538      106.403       94.444        0.788      342.231       17.495      861.582
09/29/2013  00:10:00       31.008     -122.153      -11.165       76.636       53.350       35.932     5873.026     2846.268     1291.090        1.301        0.501      126.027       20.052        0.025      342.531       18.005      861.653
09/29/2013  00:11:00      -51.744      -36.893        7.150       50.595       49.249       27.466     2559.807     2425.417      754.398        0.491        0.287       63.550       23.519        0.137      342.403       17.788      861.749
09/29/2013  00:12:00     -114.127     -137.302       -4.726       66.773       80.372       35.436     4458.626     6459.614     1255.675        2.203        0.609      178.541       22.704        0.016      342.597       18.115      861.804
09/29/2013  00:13:00      -85.655      -72.435        7.163      116.541       92.751       40.863    13581.828     8602.681     1669.804        1.824        1.193      112.177       38.772        0.119      342.610       18.139      861.793
09/29/2013  00:14:00       13.496      -13.653       16.588       29.787       34.317       19.542      887.281     1177.643      381.884        0.154        0.122       19.198       12.933        0.454      342.350       17.698      861.731
09/29/2013  00:15:00       53.023       29.812       -6.063       46.537       30.010       24.993     2165.663      900.623      624.673        0.371        0.185       60.829       19.631        0.104      342.088       17.253      861.686
09/29/2013  00:16:00       25.947      -23.403       14.337       32.527       27.623       20.574     1058.008      763.024      423.299        0.183        0.112       34.942       12.388        0.126      342.190       17.426      861.765
09/29/2013  00:17:00      -78.661      -26.259       15.107       89.607       50.536       36.595     8029.441     2553.915     1339.174        0.951        0.596       82.929       40.514        0.239      342.392       17.769      861.882
09/29/2013  00:18:00      -99.766     -127.041       11.939       78.508       74.228       34.486     6163.476     5509.806     1189.251        1.955        0.643      161.533       29.780        0.034      342.699       18.288      861.931
09/29/2013  00:19:00      -37.986      -38.559       12.718       82.071       60.632       50.042     6735.650     3676.221     2504.234        0.800        0.646       54.127       39.535        0.533      342.282       17.583      861.998
09/29/2013  00:20:00     -201.405     -151.984        4.092      129.461      110.943       61.948    16760.058    12308.247     3837.597        4.829        1.645      252.316       72.247        0.082      342.656       18.217      862.043
09/29/2013  00:21:00     -212.855     -163.106       -5.393      106.196       97.997       54.964    11277.688     9603.471     3021.087        4.792        1.195      268.162       43.720        0.027      342.692       18.277      862.055
09/29/2013  00:22:00      -54.154        7.627       -3.708       58.111       43.245       22.078     3376.843     1870.171      487.425        0.437        0.287       54.688       23.619        0.187      342.512       17.975      862.019
09/29/2013  00:23:00        3.559       89.962        3.974       52.178       42.966       27.358     2722.512     1846.088      748.466        0.672        0.266       90.032       20.682        0.053      342.290       17.596      861.873
09/29/2013  00:24:00       -3.063       70.913       -6.310       31.402       80.249       29.281      986.056     6439.910      857.360        0.668        0.414       70.979       21.627        0.093      342.223       17.481      861.898
09/29/2013  00:25:00      -72.962       15.104       -2.680       34.467       52.512       26.645     1187.947     2757.486      709.934        0.511        0.233       74.509       15.663        0.044      342.284       17.586      861.992
09/29/2013  00:26:00      -93.459        2.406       -8.130       43.530       30.202       20.476     1894.894      912.135      419.277        0.602        0.161       93.490       20.701        0.049      342.301       17.614      861.919
09/29/2013  00:27:00     -101.326      -20.549       -1.573       74.757       41.991       33.113     5588.559     1763.229     1096.439        0.957        0.422      103.389       33.974        0.108      342.193       17.431      861.837
09/29/2013  00:28:00     -183.099        7.476        1.274      100.872       70.865       45.325    10175.131     5021.825     2054.324        2.541        0.863      183.251       47.547        0.067      342.190       17.425      861.754
09/29/2013  00:29:00     -170.540      -54.547       16.830      106.422       71.430       38.386    11325.562     5102.236     1473.519        2.512        0.895      179.052       47.170        0.069      342.208       17.454      861.734
09/29/2013  00:30:00     -100.834        3.919        8.216       83.960       66.741       39.690     7049.219     4454.299     1575.282        1.166        0.654      100.910       38.759        0.148      342.151       17.360      861.810
09/29/2013  00:31:00     -158.009      -36.039        7.383      117.784       96.084       45.995    13872.955     9232.053     2115.535        2.577        1.261      162.066       46.947        0.084      342.152       17.359      861.813
09/29/2013  00:32:00     -218.143       -5.491      -12.948       96.305       78.352       44.964     9274.706     6139.013     2021.796        3.261        0.872      218.212       46.593        0.046      342.119       17.302      861.808
09/29/2013  00:33:00     -229.107       -2.894      -19.655       79.911       71.015       48.617     6385.836     5043.081     2363.640        3.334        0.690      229.125       42.578        0.035      342.045       17.177      861.774
09/29/2013  00:34:00     -178.425      -41.877      -13.951      113.486       69.334       39.907    12879.023     4807.168     1592.545        2.653        0.964      183.273       42.940        0.055      341.975       17.059      861.789
09/29/2013  00:35:00     -197.217      -73.784        6.412       90.872       63.870       43.714     8257.733     4079.415     1910.873        2.931        0.712      210.568       43.813        0.043      341.991       17.085      861.888
09/29/2013  00:36:00     -149.376      -34.577       -4.455       70.312       42.213       27.485     4943.807     1781.902      755.415        1.550        0.374      153.326       22.996        0.022      341.933       16.989      861.889
09/29/2013  00:37:00     -154.267      -18.490       -9.984       63.322       55.261       34.184     4009.733     3053.796     1168.554        1.623        0.412      155.371       34.484        0.049      341.879       16.898      861.824
09/29/2013  00:38:00      -94.404      -25.473       12.442       69.587       63.337       38.691     4842.331     4011.605     1497.027        1.003        0.518       97.780       38.940        0.159      341.788       16.744      861.792
09/29/2013  00:39:00     -205.060       12.563      -11.444       93.403       51.534       40.682     8724.195     2655.757     1655.016        2.768        0.652      205.444       48.280        0.055      341.893       16.919      861.754
09/29/2013  00:40:00     -285.633       -1.864      -32.337       93.589       70.756       44.814     8758.890     5006.384     2008.319        4.920        0.789      285.639       35.718        0.016      341.855       16.853      861.791
09/29/2013  00:41:00     -224.949      -68.821      -15.785       93.159       94.968       43.716     8678.655     9018.994     1911.098        3.759        0.980      235.242       49.855        0.045      341.836       16.820      861.769
09/29/2013  00:42:00     -249.998      -51.482      -31.870       47.282       50.160       32.567     2235.632     2516.019     1060.581        3.599        0.291      255.243       20.411        0.006      341.869       16.877      861.768
09/29/2013  00:43:00     -209.246      -63.232       -6.526       82.107       62.853       35.584     6741.537     3950.445     1266.194        2.989        0.598      218.591       38.730        0.031      341.808       16.775      861.843
09/29/2013  00:44:00     -194.259      -32.720        4.146       70.800       56.774       41.939     5012.708     3223.323     1758.877        2.441        0.500      196.995       38.708        0.039      341.765       16.704      861.874
09/29/2013  00:45:00     -178.809      -68.353      -10.335       72.535       53.723       36.730     5261.340     2886.178     1349.057        2.312        0.475      191.428       37.784        0.039      341.763       16.699      861.917
09/29/2013  00:46:00     -177.417     -113.783       -4.141       77.793       68.670       43.176     6051.795     4715.507     1864.139        2.853        0.632      210.768       37.957        0.032      341.720       16.626      861.937
09/29/2013  00:47:00      -65.736      -28.424        7.456       69.432       40.043       34.620     4820.854     1603.420     1198.556        0.640        0.381       71.618       30.250        0.178      341.593       16.413      861.917
09/29/2013  00:48:00      -64.722      -36.275       11.523       59.526       65.057       31.029     3543.363     4232.448      962.795        0.719        0.437       74.195       32.882        0.196      341.581       16.392      861.859
09/29/2013  00:49:00      -46.744      -64.195        5.923       42.382       62.538       26.997     1796.192     3911.041      728.853        0.639        0.322       79.410       23.212        0.085      341.630       16.477      861.772
09/29/2013  00:50:00      -81.177      -36.090       -0.732       58.910       36.677       17.310     3470.376     1345.194      299.647        0.650        0.256       88.838       22.417        0.064      341.628       16.472      861.771
09/29/2013  00:51:00     -102.317     -100.265       -7.405       65.335       52.541       32.654     4268.646     2760.513     1066.290        1.433        0.405      143.254       35.560        0.062      341.622       16.462      861.827
09/29/2013  00:52:00     -144.402     -161.031        3.746       95.574       84.056       47.149     9134.466     7065.490     2223.046        3.261        0.921      216.293       51.575        0.057      341.687       16.570      861.890
09/29/2013  00:53:00     -139.029     -126.964       -8.650       68.447       73.503       35.983     4684.966     5402.722     1294.767        2.345        0.569      188.279       29.019        0.024      341.599       16.421      861.954
09/29/2013  00:54:00      -71.010      -15.152       -8.636       23.287       40.675       20.387      542.307     1654.416      415.623        0.398        0.131       72.608       13.296        0.034      341.542       16.328      861.975
09/29/2013  00:55:00      -40.743      -40.685        3.000       34.331       43.607       19.536     1178.612     1901.586      381.658        0.339        0.173       57.578       20.334        0.125      341.469       16.203      862.046
09/29/2013  00:56:00       24.343       -7.874        2.108       30.270       59.947       22.530      916.273     3593.658      507.590        0.284        0.251       25.585       28.768        1.264      341.175       15.705      862.024
09/29/2013  00:57:00       -4.515      -42.425       20.064       42.505       39.144       23.497     1806.657     1532.246      552.101        0.306        0.195       42.664       26.102        0.374      341.376       16.045      862.086
09/29/2013  00:58:00     -104.695       42.943       -2.825       66.579       43.608       23.284     4432.783     1901.646      542.162        0.984        0.344      113.160       27.708        0.060      341.320       15.951      862.088
09/29/2013  00:59:00     -253.602      -13.708       -6.981      129.365       79.976       40.365    16735.235     6396.239     1629.311        4.465        1.238      253.973       45.286        0.032      341.362       16.019      862.095
09/29/2013  01:00:00     -214.356     -124.647        1.771      124.122      114.193       49.030    15406.254    13040.027     2403.946        4.616        1.543      247.962       53.591        0.047      341.508       16.264      862.173
09/29/2013  01:01:00     -193.250     -142.254       -6.201      127.661      112.547       57.355    16297.371    12666.731     3289.558        4.493        1.613      239.962       63.110        0.069      341.755       16.684      862.236
09/29/2013  01:02:00     -173.606      -71.081        0.859       82.340       67.130       39.348     6779.954     4506.407     1548.253        2.401        0.642      187.594       34.477        0.034      341.604       16.428      862.203
09/29/2013  01:03:00      -57.253      -32.970        5.519       43.059       31.958       28.517     1854.118     1021.284      813.240        0.404        0.184       66.068       22.948        0.121      341.556       16.349      862.100
09/29/2013  01:04:00      -44.388      -99.386       -1.631       30.346       47.415       22.138      920.901     2248.229      490.102        0.775        0.183      108.848       17.432        0.026      341.518       16.283      862.213
09/29/2013  01:05:00     -177.596     -117.261       -8.213       80.508       55.997       38.872     6481.550     3135.615     1511.057        2.824        0.556      212.816       37.423        0.031      341.452       16.170      862.274
09/29/2013  01:06:00     -124.827      -84.441        7.403       84.158       48.414       37.129     7082.523     2343.937     1378.536        1.678        0.540      150.705       44.542        0.087      341.416       16.111      862.219
09/29/2013  01:07:00       -8.637     -136.415       23.188       54.273       80.414       31.498     2945.521     6466.338      992.151        1.481        0.520      136.688       17.300        0.016      341.421       16.119      862.069
09/29/2013  01:08:00      -15.883     -129.816       -1.699       41.901       58.791       29.317     1755.657     3456.435      859.509        1.159        0.304      130.784       17.322        0.018      341.416       16.113      861.967
09/29/2013  01:09:00      -21.741      -38.728       13.652       25.080       34.180       19.935      628.982     1168.276      397.398        0.218        0.110       44.413        8.675        0.038      341.252       15.837      861.905
09/29/2013  01:10:00      -99.253     -159.399      -10.097       78.929       68.425       34.720     6229.855     4681.955     1205.491        2.374        0.606      187.774       44.327        0.056      341.414       16.109      861.893
09/29/2013  01:11:00     -167.177     -124.917       11.049      108.038       91.283       51.137    11672.122     8332.532     2614.965        3.314        1.131      208.692       52.571        0.063      341.320       15.947      861.933
09/29/2013  01:12:00      -59.385      -80.514       25.761       82.551       73.244       40.627     6814.724     5364.649     1650.524        1.225        0.691      100.045       38.310        0.147      341.240       15.815      861.884
09/29/2013  01:13:00     -104.343     -139.676        0.402       76.932       82.631       45.073     5918.575     6827.939     2031.551        2.258        0.739      174.347       44.866        0.066      341.324       15.955      861.728
09/29/2013  01:14:00       38.617      -31.017       33.426       69.610       71.624       52.960     4845.578     5129.988     2804.781        0.817        0.639       49.531       48.104        0.943      340.951       15.325      861.452
09/29/2013  01:15:00     -112.863     -105.643        9.060       86.670       71.913       45.529     7511.699     5171.514     2072.870        1.937        0.738      154.591       35.404        0.052      341.161       15.680      861.602
09/29/2013  01:16:00     -176.818     -188.354        7.151       86.226       88.489       53.442     7434.926     7830.369     2856.007        4.245        0.906      258.345       52.870        0.042      341.271       15.863      861.772
09/29/2013  01:17:00     -190.488     -146.378       -9.691      106.313      100.832       55.622    11302.416    10167.063     3093.852        4.118        1.228      240.234       61.568        0.066      341.261       15.847      861.827
09/29/2013  01:18:00      -19.657      -53.526       -2.311       71.350       76.305       33.009     5090.879     5822.501     1089.625        0.763        0.600       57.021       37.168        0.425      341.129       15.627      861.744
09/29/2013  01:19:00       37.453       23.280        5.598       35.376       38.959       20.676     1251.479     1517.834      427.511        0.259        0.160       44.099       20.068        0.207      340.753       14.991      861.522
09/29/2013  01:20:00     -124.163      -76.699       -1.746       78.491       50.271       26.649     6160.879     2527.165      710.143        1.535        0.470      145.943       14.577        0.010      341.082       15.548      861.651
09/29/2013  01:21:00     -231.620     -176.251      -14.206      116.240      100.082       55.189    13511.832    10016.435     3045.811        5.574        1.329      291.054       61.107        0.044      341.238       15.810      861.743
09/29/2013  01:22:00     -217.690      -72.244       -1.513       83.080      108.071       49.409     6902.299    11679.255     2441.235        3.681        1.051      229.365       50.346        0.048      341.290       15.896      861.752
09/29/2013  01:23:00     -234.417     -158.707       -5.781       92.745       92.451       60.294     8601.687     8547.100     3635.380        5.047        1.039      283.089       52.809        0.035      341.281       15.880      861.714
09/29/2013  01:24:00     -122.035     -174.216       17.786      124.209      159.476       66.286    15427.845    25432.458     4393.789        4.540        2.263      212.705       69.987        0.108      342.001       17.104      861.655
09/29/2013  01:25:00     -185.281     -232.647       13.143      149.860      120.646       71.838    22458.145    14555.515     5160.657        6.539        2.109      297.412       71.569        0.058      341.877       16.892      861.748
09/29/2013  01:26:00      -61.476      -56.552       16.091       98.913       81.116       50.002     9783.727     6579.836     2500.155        1.305        0.943       83.531       42.338        0.257      341.587       16.402      861.633
09/29/2013  01:27:00     -162.085     -114.376       -3.777      143.341       82.846       52.181    20546.711     6863.404     2722.837        3.474        1.507      198.377       60.555        0.093      341.648       16.506      861.657
09/29/2013  01:28:00     -201.668      -89.530       -8.425       82.686      110.504       45.964     6836.904    12211.197     2112.720        3.495        1.058      220.648       37.322        0.029      341.710       16.608      861.614
09/29/2013  01:29:00     -198.959     -124.954        2.619      108.748      101.412       49.419    11826.146    10284.329     2442.276        3.987        1.228      234.943       48.467        0.043      341.768       16.708      861.695
09/29/2013  01:30:00     -228.878     -111.337        5.931      121.954       68.473       49.020    14872.869     4688.526     2402.953        4.339        1.098      254.521       52.518        0.043      341.888       16.910      861.821
09/29/2013  01:31:00     -298.744     -184.491      -11.828      154.740      145.383       69.670    23944.385    21136.262     4853.958        8.667        2.497      351.120       74.100        0.045      342.339       17.678      861.869
09/29/2013  01:32:00     -353.491     -179.379        4.647      196.740      164.721       76.669    38706.642    27132.895     5878.111       11.442        3.586      396.399       95.403        0.058      342.430       17.832      861.888
09/29/2013  01:33:00     -261.384      -69.836       -1.795      154.760       91.688       63.258    23950.774     8406.667     4001.608        5.477        1.818      270.553       69.910        0.067      342.029       17.151      861.957
09/29/2013  01:34:00     -211.795      -46.282       -8.015       57.106       70.998       36.492     3261.058     5040.750     1331.647        2.835        0.482      216.793       23.845        0.012      341.927       16.977      861.955
09/29/2013  01:35:00      -98.614      -51.818       11.643       73.289       51.349       42.830     5371.231     2636.707     1834.433        1.119        0.492      111.399       39.338        0.125      341.766       16.706      861.942
09/29/2013  01:36:00     -108.690      -66.290        4.536       90.711       93.179       52.872     8228.450     8682.286     2795.500        1.796        0.985      127.310       60.266        0.224      341.634       16.481      861.958
09/29/2013  01:37:00      -89.897      -32.023       11.031      105.729       89.902       58.368    11178.645     8082.340     3406.795        1.594        1.133       95.430       54.823        0.330      341.501       16.258      861.896
09/29/2013  01:38:00     -137.783      -25.587        9.592      150.698       71.068       53.891    22709.890     5050.626     2904.188        2.519        1.533      140.138       73.778        0.277      341.421       16.121      861.748
09/29/2013  01:39:00     -182.551      -81.091       -3.300      104.989       87.781       40.897    11022.647     7705.516     1672.535        3.015        1.020      199.751       51.543        0.067      341.506       16.263      861.759
09/29/2013  01:40:00     -240.930     -155.381       -9.413      107.538      101.614       55.183    11564.490    10325.334     3045.165        5.360        1.247      286.689       58.869        0.042      341.458       16.181      861.778
09/29/2013  01:41:00     -161.693        4.549      -11.149       83.275       63.340       31.095     6934.729     4011.993      966.910        1.910        0.596      161.757       37.927        0.055      341.409       16.100      861.595
09/29/2013  01:42:00     -199.925     -106.654        1.359       92.597       89.619       40.788     8574.152     8031.545     1663.632        3.480        0.913      226.594       44.306        0.038      341.381       16.050      861.590
09/29/2013  01:43:00     -201.434      -75.581       16.049      130.503      130.458       61.915    17031.059    17019.344     3833.410        4.221        1.894      215.147       68.347        0.101      341.393       16.072      861.594
09/29/2013  01:44:00     -224.291      -87.705        1.973      135.139       84.122       51.050    18262.548     7076.588     2606.061        4.297        1.397      240.829       57.165        0.056      341.362       16.019      861.612
09/29/2013  01:45:00     -110.893      -15.741       11.371      109.601       70.913       46.444    12012.311     5028.591     2157.033        1.593        0.960      112.004       44.825        0.160      341.248       15.828      861.633
09/29/2013  01:46:00     -143.907     -130.542       14.341      122.215      130.301       65.755    14936.562    16978.349     4323.680        3.709        1.812      194.295       75.243        0.150      341.432       16.139      861.662
09/29/2013  01:47:00     -142.555      -94.077       -0.867       92.708       97.113       41.450     8594.774     9430.938     1718.091        2.445        0.987      170.799       43.939        0.066      341.399       16.083      861.779
09/29/2013  01:48:00     -143.559     -120.199        5.726       87.098       66.126       43.398     7586.024     4372.658     1883.345        2.446        0.692      187.235       49.688        0.070      341.283       15.886      861.858
09/29/2013  01:49:00     -229.035      -97.978      -12.802       56.127       69.331       34.910     3150.285     4806.768     1218.718        3.570        0.459      249.112       27.154        0.012      341.223       15.782      861.909
09/29/2013  01:50:00     -225.165       -9.180       -2.122       98.708       92.038       47.167     9743.174     8470.946     2224.726        3.561        1.022      225.352       45.994        0.042      341.120       15.610      861.880
09/29/2013  01:51:00     -291.586       21.782      -20.288       97.833      105.626       42.303     9571.301    11156.784     1789.574        5.421        1.126      292.399       43.294        0.022      341.148       15.656      861.813
09/29/2013  01:52:00     -582.417        2.466      -54.038      148.803      109.747       58.500    22142.254    12044.463     3422.272       18.986        1.880      582.422       60.543        0.011      341.294       15.903      861.789
09/29/2013  01:53:00     -240.049      -66.354        3.595      206.018      146.972       70.063    42443.479    21600.830     4908.777        6.548        3.448      249.051       86.330        0.120      341.547       16.333      861.838
09/29/2013  01:54:00      -63.078      -59.064       47.837      129.315      155.730       79.515    16722.342    24251.723     6322.624        2.852        2.365       86.414       75.579        0.765      341.518       16.285      861.888
09/29/2013  01:55:00     -306.684      -51.454      -23.869       76.018       68.010       45.201     5778.703     4625.327     2043.146        5.486        0.622      310.970       39.143        0.016      341.330       15.963      861.948
09/29/2013  01:56:00     -280.097      -85.889      -22.068       62.405       51.307       37.268     3894.322     2632.433     1388.926        4.712        0.396      292.969       15.085        0.003      341.246       15.821      861.967
09/29/2013  01:57:00     -180.108      -56.618       -2.809      106.371       58.734       46.494    11314.701     3449.697     2161.655        2.629        0.846      188.797       41.640        0.049      341.130       15.626      862.011
09/29/2013  01:58:00     -158.717      -65.193        2.013       84.356       71.948       45.352     7115.999     5176.541     2056.804        2.189        0.717      171.584       48.348        0.079      341.092       15.562      862.016
09/29/2013  01:59:00     -170.011      -11.461      -11.133       98.599       43.103       33.447     9721.856     1857.861     1118.721        2.093        0.635      170.397       41.993        0.061      341.052       15.495      861.934
09/29/2013  02:00:00     -314.045     -107.361      -18.789      121.185       82.367       53.688    14685.762     6784.385     2882.381        6.742        1.218      331.889       60.184        0.033      341.106       15.585      861.911
09/29/2013  02:01:00     -358.002     -126.362        4.647      143.866      119.720       72.137    20697.526    14332.907     5203.675        9.219        2.012      379.648       76.989        0.041      341.166       15.685      861.937
09/29/2013  02:02:00     -292.753     -119.545        1.138      131.169       98.393       51.813    17205.330     9681.113     2684.610        6.478        1.479      316.221       54.877        0.030      341.203       15.749      861.989
09/29/2013  02:03:00     -257.575      -91.438      -13.076      127.629      102.619       49.617    16289.172    10530.704     2461.840        5.207        1.464      273.324       55.646        0.041      341.201       15.748      862.026
09/29/2013  02:04:00     -214.201      -88.451       -4.063      116.409       90.180       54.201    13551.029     8132.501     2937.746        3.917        1.231      231.745       63.800        0.076      341.146       15.653      862.004
09/29/2013  02:05:00     -141.811       -2.385      -11.391       98.989       58.611       31.399     9798.915     3435.232      985.913        1.723        0.711      141.832       46.203        0.106      341.057       15.504      861.896
09/29/2013  02:06:00     -144.030      -19.164      -17.895       81.210       40.867       30.717     6595.035     1670.090      943.543        1.532        0.460      145.299       36.169        0.062      341.103       15.582      861.887
09/29/2013  02:07:00      -24.928      -31.259       15.642       86.289       41.361       46.857     7445.783     1710.773     2195.596        0.660        0.568       39.982       50.264        1.580      340.962       15.345      861.925
09/29/2013  02:08:00     -191.643       23.060       -1.410      101.584       92.060       47.802    10319.229     8474.992     2285.043        2.917        1.054      193.026       41.367        0.046      340.963       15.342      861.927
09/29/2013  02:09:00     -263.991      -33.660      -12.543      163.603       77.990       49.258    26765.933     6082.480     2426.387        5.312        1.764      266.128       62.185        0.055      340.970       15.356      861.914
09/29/2013  02:10:00     -230.075      -45.686       -1.110      138.175       83.596       49.519    19092.367     6988.350     2452.179        4.177        1.427      234.567       59.478        0.064      340.904       15.244      861.937
09/29/2013  02:11:00     -191.317     -110.261       -4.909      110.967       81.107       44.021    12313.614     6578.415     1937.834        3.480        1.041      220.816       41.478        0.035      341.023       15.446      862.014
09/29/2013  02:12:00      -92.679      -13.772       -1.381       91.568       53.662       41.781     8384.615     2879.664     1745.651        1.089        0.650       93.696       50.928        0.295      341.014       15.432      861.935
09/29/2013  02:13:00      -64.628       -3.852        7.048       49.538       33.729       24.629     2454.051     1137.655      606.606        0.422        0.210       64.742       19.556        0.091      340.982       15.378      861.793
09/29/2013  02:14:00     -121.572     -113.087       12.022      104.726       67.519       44.969    10967.498     4558.786     2022.201        2.263        0.877      166.037       48.963        0.087      340.962       15.343      861.820
09/29/2013  02:15:00     -133.932     -122.552       -0.055       97.783       61.524       38.097     9561.522     3785.247     1451.345        2.387        0.740      181.540       45.173        0.062      341.015       15.433      861.882
09/29/2013  02:16:00     -137.437     -105.386       -0.435       92.303       73.897       42.953     8519.863     5460.771     1844.970        2.291        0.791      173.191       44.926        0.067      340.929       15.286      861.887
09/29/2013  02:17:00     -234.251      -93.187      -11.316       82.425       54.569       38.482     6793.846     2977.814     1480.862        3.747        0.563      252.105       40.237        0.025      340.946       15.314      861.850
09/29/2013  02:18:00     -158.245      -48.951        7.608       87.350       80.461       50.353     7630.061     6473.915     2535.399        2.206        0.832      165.644       54.515        0.108      340.948       15.319      861.804
09/29/2013  02:19:00      -98.949      -46.567       -4.136       82.207       63.619       40.478     6757.968     4047.421     1638.478        1.221        0.622      109.359       38.372        0.123      340.933       15.293      861.788
09/29/2013  02:20:00     -140.819      -44.163       -8.212       69.599       61.022       39.283     4844.071     3723.639     1543.188        1.598        0.506      147.582       40.518        0.075      340.948       15.318      861.741
09/29/2013  02:21:00     -170.706       -4.318       -5.536       68.939       51.216       36.235     4752.524     2623.100     1313.008        1.894        0.434      170.761       23.321        0.019      340.988       15.388      861.661
09/29/2013  02:22:00     -205.451       12.763        7.658      100.482       92.374       42.184    10096.642     8533.046     1779.524        3.142        1.020      205.847       40.622        0.039      340.972       15.359      861.676
09/29/2013  02:23:00     -269.904     -137.027       -3.649      102.017      106.695       52.043    10407.396    11383.835     2708.445        5.806        1.225      302.695       52.217        0.030      341.210       15.761      861.706
09/29/2013  02:24:00     -135.208      -61.502        8.753       92.320       74.673       44.946     8522.967     5575.992     2020.115        1.913        0.806      148.539       40.205        0.073      341.174       15.702      861.727
09/29/2013  02:25:00     -116.915      -41.091      -11.649       70.166       72.315       37.639     4923.235     5229.425     1416.698        1.353        0.578      123.926       25.584        0.043      341.096       15.571      861.694
09/29/2013  02:26:00     -290.803      -12.715      -10.135      116.793       72.806       54.768    13640.657     5300.785     2999.514        5.338        1.097      291.081       64.342        0.049      341.179       15.708      861.672
09/29/2013  02:27:00     -154.708     -108.228       12.685      118.260       90.210       52.697    13985.323     8137.933     2776.924        3.035        1.245      188.807       61.138        0.105      341.065       15.516      861.763
09/29/2013  02:28:00      -81.819     -110.352       10.803       82.145       62.839       47.376     6747.869     3948.743     2244.485        1.596        0.647      137.375       36.150        0.069      341.003       15.414      861.813
09/29/2013  02:29:00     -147.350      -80.288       -2.702       73.226       51.397       32.248     5362.097     2641.636     1039.902        1.860        0.452      167.804       31.282        0.035      340.992       15.394      861.812
09/29/2013  02:30:00     -132.818      -72.403       -6.929       44.678       64.029       27.611     1996.160     4099.667      762.391        1.489        0.343      151.271       24.720        0.027      340.942       15.312      861.814
09/29/2013  02:31:00     -171.211      -24.120       -7.052       68.347       45.663       36.582     4671.329     2085.134     1338.246        1.902        0.405      172.902       39.756        0.053      340.881       15.206      861.858
09/29/2013  02:32:00     -117.989      -52.295        0.311       91.006       71.171       39.861     8282.067     5065.328     1588.936        1.579        0.747      129.059       40.324        0.098      340.848       15.151      861.910
09/29/2013  02:33:00     -124.686      -74.430       -8.266       61.977       46.951       34.432     3841.113     2204.400     1185.591        1.419        0.362      145.212       32.174        0.049      340.921       15.275      861.850
09/29/2013  02:34:00     -177.439      -99.252        0.958       69.136       60.069       38.761     4779.845     3608.319     1502.419        2.561        0.495      203.311       37.729        0.034      340.920       15.272      861.751
09/29/2013  02:35:00     -164.508      -88.447       -5.802       91.635       71.251       32.495     8397.018     5076.722     1055.926        2.472        0.726      186.778       38.263        0.042      340.932       15.291      861.709
09/29/2013  02:36:00     -175.397     -113.859      -10.092       97.275       72.910       47.849     9462.373     5315.798     2289.535        3.045        0.853      209.113       51.254        0.060      341.035       15.466      861.698
09/29/2013  02:37:00     -154.117      -93.830        6.369       86.540       69.148       48.541     7489.237     4781.413     2356.208        2.361        0.731      180.434       41.001        0.052      340.903       15.243      861.786
09/29/2013  02:38:00     -250.733     -156.180       -3.417      136.711       94.710       66.045    18689.956     8969.935     4361.908        5.964        1.601      295.397       73.198        0.061      340.943       15.310      861.764
09/29/2013  02:39:00     -244.149      -26.191       -3.336      113.149       98.847       46.666    12802.628     9770.742     2177.678        4.252        1.238      245.550       57.175        0.054      340.857       15.163      861.651
09/29/2013  02:40:00     -198.864     -159.625       -8.791      130.918      171.165       54.959    17139.447    29297.364     3020.541        5.727        2.473      255.004       52.638        0.043      341.115       15.601      861.596
09/29/2013  02:41:00     -165.386     -102.578       -0.935       85.707       68.848       36.565     7345.706     4740.011     1336.972        2.565        0.671      194.615       26.327        0.018      340.903       15.243      861.648
09/29/2013  02:42:00     -119.910      -10.349       -5.473       84.240       28.596       29.866     7096.310      817.747      891.956        1.166        0.440      120.356       39.861        0.110      340.847       15.149      861.609
09/29/2013  02:43:00     -145.959      -66.960       -3.227       48.611       30.026       25.481     2363.059      901.582      649.280        1.486        0.196      160.586       19.571        0.015      340.806       15.081      861.593
09/29/2013  02:44:00     -107.541      -44.598        5.318       81.504       58.994       40.496     6642.826     3480.316     1639.948        1.267        0.588      116.422       42.485        0.133      340.763       15.007      861.537
09/29/2013  02:45:00     -150.785      -56.753       10.654       92.961       79.770       44.017     8641.818     6363.239     1937.476        2.150        0.847      161.112       47.104        0.085      340.732       14.955      861.549
09/29/2013  02:46:00     -107.739      -53.826       -8.545       86.757       50.709       30.114     7526.743     2571.391      906.855        1.279        0.550      120.437       32.954        0.075      340.786       15.048      861.557
09/29/2013  02:47:00     -187.619      -19.116      -20.726       51.448       55.536       31.821     2646.907     3084.213     1012.566        2.137        0.337      188.590       16.618        0.008      340.872       15.192      861.533
09/29/2013  02:48:00      -78.664      -43.148        2.965       39.468       37.585       22.028     1557.740     1412.615      485.245        0.576        0.173       89.720       20.368        0.052      340.779       15.036      861.528
09/29/2013  02:49:00     -137.838        4.530       -4.575       44.525       47.437       29.026     1982.498     2250.241      842.524        1.206        0.254      137.912       23.740        0.030      340.742       14.972      861.509
09/29/2013  02:50:00     -244.429       24.730      -15.452       39.458       39.678       26.821     1556.940     1574.330      719.378        3.222        0.193      245.676       25.974        0.011      340.960       15.335      861.426
09/29/2013  02:51:00     -262.750      -29.157      -19.861       80.437       49.094       36.578     6470.178     2410.239     1337.969        4.025        0.511      264.363       40.299        0.023      340.822       15.105      861.442
09/29/2013  02:52:00     -243.579      -93.486       -8.063       97.850       86.620       48.116     9574.635     7503.041     2315.175        4.376        0.970      260.903       45.641        0.031      340.797       15.063      861.537
09/29/2013  02:53:00     -330.209     -101.084       -8.932      112.872       86.693       53.606    12740.174     7515.748     2873.643        7.123        1.156      345.334       46.557        0.018      340.892       15.222      861.593
09/29/2013  02:54:00     -195.723       12.864       -7.293       97.962      100.778       52.349     9596.556    10156.252     2740.443        3.051        1.125      196.145       50.706        0.067      340.789       15.049      861.484
09/29/2013  02:55:00      -92.424       22.988       -7.825       58.655       46.596       33.835     3440.406     2171.232     1144.809        0.794        0.338       95.240       28.243        0.088      340.822       15.106      861.298
09/29/2013  02:56:00      -48.024      -12.782       -2.355       77.045       57.354       36.276     5935.958     3289.517     1315.964        0.651        0.527       49.696       25.428        0.262      340.774       15.028      861.290
09/29/2013  02:57:00       19.850      -54.562       24.950       50.203       57.184       40.096     2520.330     3270.034     1607.704        0.569        0.370       58.061       36.897        0.404      340.659       14.832      861.333
09/29/2013  02:58:00      -37.699      -30.210       19.712       51.923       45.919       23.994     2696.028     2108.525      575.689        0.405        0.269       48.310       35.783        0.549      340.652       14.820      861.360
09/29/2013  02:59:00      -97.312      -22.899       -2.485       96.929       38.311       33.730     9395.273     1467.762     1137.716        1.100        0.600       99.970       45.748        0.209      340.660       14.833      861.379
09/29/2013  03:00:00      -57.774     -101.090       -0.633       61.810       52.573       29.958     3820.427     2763.891      897.457        1.052        0.374      116.434       23.270        0.040      340.736       14.964      861.387
09/29/2013  03:01:00        4.580      -12.289       24.510       15.626       73.172       23.253      244.168     5354.185      540.684        0.345        0.307       13.115       33.524        6.534      340.403       14.401      861.253
09/29/2013  03:02:00      -29.361       16.402       12.147       19.711       13.907       22.262      388.505      193.391      495.615        0.118        0.054       33.632       15.679        0.217      340.207       14.069      861.173
09/29/2013  03:03:00     -120.877        6.093      -10.692       28.566       19.960       12.342      816.001      398.402      152.335        0.806        0.068      121.031        8.978        0.006      340.611       14.751      861.220
09/29/2013  03:04:00     -207.616        5.412      -23.842       39.455       32.996       23.849     1556.671     1088.739      568.773        2.346        0.161      207.687       10.373        0.002      340.425       14.434      861.319
09/29/2013  03:05:00     -259.019      -83.310      -11.182       74.998       64.168       35.283     5624.635     4117.562     1244.860        4.257        0.549      272.087       30.362        0.012      340.621       14.765      861.308
09/29/2013  03:06:00     -239.109        7.993      -25.193       80.731       42.619       28.362     6517.472     1816.387      804.429        3.350        0.457      239.242       37.249        0.024      340.895       15.228      861.291
09/29/2013  03:07:00      -94.568       62.625       -2.618       41.130       36.908       35.491     1691.666     1362.184     1259.645        0.859        0.216      113.424       21.384        0.036      340.683       14.873      861.140
09/29/2013  03:08:00     -104.772       44.932      -10.356       49.581       49.925       25.241     2458.319     2492.467      637.109        0.934        0.279      114.000       20.884        0.034      340.729       14.952      861.129
09/29/2013  03:09:00     -108.817      -31.820      -11.442       22.520       43.471       17.028      507.161     1889.698      289.964        0.784        0.134      113.374        9.397        0.007      340.689       14.884      861.176
09/29/2013  03:10:00      -12.261      -22.214        7.392       28.878       40.234       24.836      833.932     1618.761      616.822        0.188        0.153       25.373       18.149        0.512      340.423       14.433      861.212
09/29/2013  03:11:00      -51.096      -39.219       10.904       59.025       50.281       27.882     3483.984     2528.204      777.420        0.553        0.339       64.412       33.729        0.274      340.411       14.412      861.241
09/29/2013  03:12:00      -69.518       26.435        3.082       40.811       35.258       26.693     1665.500     1243.107      712.519        0.458        0.181       74.374       19.805        0.071      340.466       14.506      861.191
09/29/2013  03:13:00      -58.075       -2.319       -1.872       37.039       35.652       23.549     1371.871     1271.054      554.544        0.329        0.160       58.121       24.783        0.182      340.431       14.445      861.165
09/29/2013  03:14:00      -28.651       46.117        0.205       34.198       35.259       21.585     1169.491     1243.197      465.912        0.291        0.144       54.292       17.062        0.099      340.391       14.380      861.127
09/29/2013  03:15:00       24.359      -27.668       10.475       23.104       27.303       17.039      533.798      745.430      290.341        0.152        0.078       36.863       16.061        0.190      340.078       13.851      861.138
09/29/2013  03:16:00     -117.479      -56.250       -0.797       53.618       47.229       33.109     2874.900     2230.556     1096.192        1.158        0.310      130.251       30.664        0.055      340.462       14.500      861.197
09/29/2013  03:17:00     -177.156      -12.476       -5.110       76.368       60.204       42.524     5832.090     3624.569     1808.263        2.141        0.563      177.595       41.920        0.056      340.528       14.607      861.280
09/29/2013  03:18:00     -223.576        0.347      -13.416       94.894       80.152       43.678     9004.927     6424.280     1907.731        3.375        0.867      223.576       43.398        0.038      340.583       14.699      861.315
09/29/2013  03:19:00      -50.736       74.164       -3.185       63.689       52.379       41.454     4056.264     2743.543     1718.463        0.830        0.426       89.858       33.950        0.143      340.595       14.724      861.298
09/29/2013  03:20:00      -50.767      -16.026       -1.653       74.184       77.583       26.299     5503.208     6019.053      691.621        0.752        0.611       53.237       25.452        0.229      340.583       14.702      861.355
09/29/2013  03:21:00       -7.974      -49.225       -1.562       51.962       53.590       32.710     2700.063     2871.886     1069.933        0.456        0.332       49.867       12.464        0.062      340.545       14.639      861.426
09/29/2013  03:22:00      -63.066      -50.525        3.825       59.238       31.096       23.910     3509.163      966.970      571.668        0.580        0.252       80.809       22.831        0.080      340.504       14.569      861.460
09/29/2013  03:23:00       15.018      -22.159       26.875       28.537       33.510       19.827      814.375     1122.922      393.105        0.188        0.117       26.769       13.195        0.243      340.242       14.128      861.398
09/29/2013  03:24:00       -8.633       25.112        5.795       20.634       21.073       17.318      425.766      444.083      299.924        0.095        0.058       26.555       15.401        0.336      340.045       13.795      861.331
09/29/2013  03:25:00      -70.136       49.964      -10.906       45.493       45.360       27.979     2069.626     2057.489      782.820        0.622        0.245       86.114       19.954        0.054      340.527       14.609      861.302
09/29/2013  03:26:00      -83.926       53.038       -1.664       72.042       61.196       35.093     5190.119     3744.924     1231.493        1.001        0.508       99.280       41.465        0.174      340.638       14.795      861.194
09/29/2013  03:27:00     -127.881       34.581      -17.556       46.353       66.648       29.970     2148.605     4441.932      898.208        1.267        0.374      132.474       23.120        0.030      340.611       14.749      861.168
09/29/2013  03:28:00     -143.902      -40.501       -5.124       46.939       36.822       27.085     2203.277     1355.884      733.597        1.333        0.215      149.493       24.608        0.027      340.739       14.968      861.236
09/29/2013  03:29:00     -134.286      -63.293      -15.369       44.556       28.139       23.091     1985.231      791.792      533.182        1.279        0.166      148.454       19.441        0.017      340.953       15.330      861.229
09/29/2013  03:30:00     -161.155      -42.632      -21.751       78.811       59.514       35.950     6211.101     3541.943     1292.400        1.965        0.552      166.699       32.573        0.038      340.781       15.037      861.172
09/29/2013  03:31:00     -142.123       78.060      -26.160       48.247       47.403       32.106     2327.797     2247.018     1030.791        1.629        0.280      162.149       22.176        0.019      340.865       15.178      861.185
09/29/2013  03:32:00     -105.970      -41.345       -7.972       86.915       49.648       36.795     7554.233     2464.902     1353.904        1.219        0.569      113.750       43.989        0.150      340.711       14.919      861.257
09/29/2013  03:33:00     -281.608      -47.401       -9.722       83.368       63.612       46.911     6950.288     4046.433     2200.688        4.742        0.660      285.569       45.497        0.025      340.736       14.959      861.382
09/29/2013  03:34:00     -321.011      -24.371      -29.775      102.247       85.371       44.521    10454.374     7288.285     1982.116        6.212        0.986      321.935       43.839        0.019      340.780       15.034      861.390
09/29/2013  03:35:00     -334.905       18.920      -34.787       62.893       72.069       37.449     3955.550     5193.985     1402.419        6.214        0.528      335.439       24.732        0.005      340.794       15.057      861.259
09/29/2013  03:36:00     -241.286      -66.126      -31.337       89.753       63.784       49.216     8055.593     4068.335     2422.219        3.906        0.727      250.184       44.373        0.031      340.842       15.138      861.197
09/29/2013  03:37:00     -170.047        5.144      -27.831       75.253       48.630       34.168     5663.017     2364.858     1167.479        1.945        0.460      170.124       27.362        0.026      340.810       15.084      861.231
09/29/2013  03:38:00     -268.092     -110.006      -27.135       90.801       83.702       43.038     8244.795     7006.100     1852.276        5.090        0.855      289.784       36.611        0.016      340.730       14.951      861.227
09/29/2013  03:39:00     -258.888      -33.967      -17.436      118.972       75.487       39.411    14154.409     5698.306     1553.201        4.494        1.070      261.106       50.273        0.037      340.744       14.972      861.249
09/29/2013  03:40:00     -241.456      -53.852      -13.777       65.330       48.969       33.069     4268.015     2397.931     1093.539        3.457        0.388      247.388       31.721        0.016      340.840       15.134      861.319
09/29/2013  03:41:00     -163.549      -40.926       -3.332       50.097       29.737       29.551     2509.727      884.268      873.278        1.635        0.213      168.592       27.013        0.026      340.832       15.124      861.322
09/29/2013  03:42:00     -140.481       21.865       -9.932       48.169       31.519       18.961     2320.267      993.451      359.508        1.199        0.184      142.172       23.870        0.028      340.766       15.013      861.237
09/29/2013  03:43:00     -140.337       13.708       -3.007       58.291       38.917       23.606     3397.826     1514.550      557.244        1.268        0.273      141.005       25.772        0.033      340.583       14.702      861.273
09/29/2013  03:44:00      -97.056      -17.459       -0.104       54.602       67.898       37.499     2981.362     4610.157     1406.161        0.936        0.450       98.613       26.499        0.072      340.665       14.843      861.239
09/29/2013  03:45:00     -233.411        2.096      -27.682      179.493       69.867       41.200    32217.799     4881.363     1697.477        4.702        1.940      233.420       67.419        0.083      340.664       14.838      861.204
09/29/2013  03:46:00     -277.763       77.957      -31.314       74.999       49.090       37.171     5624.848     2409.848     1381.685        4.681        0.471      288.495       26.494        0.008      340.787       15.044      861.139
09/29/2013  03:47:00     -285.538       40.580      -22.541       60.792       63.944       32.424     3695.710     4088.885     1051.305        4.626        0.442      288.408       29.133        0.010      340.797       15.059      861.180
09/29/2013  03:48:00     -220.613      -70.710      -12.161      123.268       76.066       53.633    15195.044     5786.076     2876.489        3.883        1.193      231.668       60.550        0.068      340.637       14.791      861.363
09/29/2013  03:49:00     -192.135      -49.259      -12.674       87.173       67.139       41.557     7599.214     4507.701     1726.977        2.667        0.692      198.349       38.915        0.038      340.744       14.974      861.425
09/29/2013  03:50:00      -14.621       19.320        0.143       44.774       29.690       20.373     2004.680      881.476      415.044        0.194        0.165       24.228       15.777        0.424      340.341       14.296      861.310
09/29/2013  03:51:00      -71.596       43.209      -11.504       31.052       59.663       20.676      964.217     3559.706      427.485        0.604        0.248       83.624       22.398        0.072      340.627       14.778      861.162
09/29/2013  03:52:00      -95.162      113.232      -22.107       34.328       58.035       27.388     1178.403     3368.032      750.080        1.383        0.265      147.910       26.843        0.033      340.681       14.871      861.112
09/29/2013  03:53:00     -111.375      -10.412       -7.934       29.736       52.495       27.516      884.221     2755.766      757.155        0.849        0.220      111.860       22.355        0.040      340.605       14.741      861.140
09/29/2013  03:54:00      -59.447      -13.647        0.968       39.157       60.200       32.518     1533.275     3623.995     1057.392        0.497        0.311       60.993       27.448        0.203      340.790       15.054      861.171
09/29/2013  03:55:00      -96.195      -19.582       -5.615       74.672       55.366       25.771     5575.916     3065.414      664.151        0.949        0.465       98.168       28.872        0.086      340.812       15.090      861.138
09/29/2013  03:56:00      -49.385       18.064       -0.809       47.868       30.782       25.767     2291.314      947.543      663.957        0.333        0.195       52.585       25.521        0.236      340.641       14.802      861.109
09/29/2013  03:57:00     -132.297      -45.102       -7.544       78.566       56.635       32.565     6172.600     3207.501     1060.479        1.501        0.522      139.774       34.245        0.060      340.568       14.678      861.123
09/29/2013  03:58:00     -158.314      -42.074        1.589       63.096       57.897       33.953     3981.147     3352.032     1152.824        1.766        0.424      163.809       34.919        0.045      340.519       14.596      861.108
09/29/2013  03:59:00     -130.011      -29.585      -11.302       65.762       43.271       28.394     4324.649     1872.420      806.223        1.245        0.350      133.334       31.221        0.055      340.564       14.672      861.050
09/29/2013  04:00:00      -80.569       19.216        7.118       54.235       37.445       21.909     2941.408     1402.118      479.998        0.587        0.241       82.828       23.345        0.079      340.298       14.222      861.011
09/29/2013  04:01:00      -85.670       51.525       -3.760       42.778       34.261       19.128     1829.929     1173.818      365.892        0.669        0.168       99.971       13.370        0.018      340.456       14.488      860.928
09/29/2013  04:02:00      -63.335      133.292      -17.422       52.738       35.087       28.098     2781.309     1231.076      789.496        1.344        0.240      147.575       25.148        0.029      340.610       14.749      860.820
09/29/2013  04:03:00      -47.089      108.915       -4.211       51.035       98.911       40.425     2604.612     9783.332     1634.183        1.406        0.701      118.659       55.836        0.221      340.652       14.819      860.826
09/29/2013  04:04:00      -61.869      -16.861       -2.804       64.739       64.241       21.214     4191.167     4126.870      450.017        0.644        0.438       64.125       18.574        0.084      340.463       14.499      860.962
09/29/2013  04:05:00      -39.369      -11.990       27.501       69.278       67.637       30.139     4799.488     4574.816      908.389        0.636        0.514       41.155       37.368        0.824      340.262       14.161      861.106
09/29/2013  04:06:00       -1.075       28.995      -19.870       73.264       26.942       38.808     5367.620      725.855     1506.026        0.442        0.380       29.015       41.058        2.002      340.247       14.136      861.105
09/29/2013  04:07:00       12.584        9.462        1.297       53.721       48.129       25.132     2885.954     2316.409      631.618        0.304        0.292       15.745       12.796        0.661      340.350       14.309      860.942
09/29/2013  04:08:00        3.579       53.775      -13.586       27.480       35.796       15.535      755.177     1281.335      241.332        0.268        0.114       53.894       18.599        0.119      340.490       14.546      860.942
09/29/2013  04:09:00      -46.318       16.493       17.438      116.345       72.660       35.885    13536.265     5279.449     1287.714        1.141        1.005       49.167       46.701        0.902      340.471       14.514      861.032
09/29/2013  04:10:00     -122.211      -34.673       10.204      161.990       65.023       44.997    26240.796     4228.021     2024.707        2.436        1.625      127.034       64.030        0.254      340.609       14.746      861.117
09/29/2013  04:11:00     -116.580       45.053        1.028       66.476       44.571       28.556     4419.030     1986.589      815.452        1.142        0.361      124.982       32.305        0.067      340.379       14.358      861.147
09/29/2013  04:12:00     -135.972        7.848      -13.876       54.026       37.040       27.265     2918.832     1371.976      743.360        1.189        0.252      136.199       25.451        0.035      340.496       14.556      861.135
09/29/2013  04:13:00      -70.199      -32.603       -2.732       43.930       37.627       25.550     1929.872     1415.766      652.817        0.500        0.200       77.401       23.807        0.095      340.425       14.436      861.164
09/29/2013  04:14:00     -107.219      -12.913       -9.523       49.492       69.587       30.424     2449.447     4842.408      925.617        0.998        0.411      107.994       27.168        0.063      340.559       14.662      861.219
09/29/2013  04:15:00      -53.195        8.527       -8.786       28.307       39.369       24.047      801.297     1549.921      578.279        0.295        0.146       53.874       18.852        0.122      340.615       14.758      861.196
09/29/2013  04:16:00      -42.281       36.041       -9.449       37.986       46.989       17.768     1442.947     2207.959      315.694        0.357        0.198       55.558       17.263        0.097      340.596       14.726      861.140
09/29/2013  04:17:00      -27.319        6.086        6.553       54.977       29.729       22.588     3022.474      883.802      510.227        0.262        0.221       27.988       10.627        0.144      340.580       14.699      861.098
09/29/2013  04:18:00      -84.969       21.544       -7.990       31.614       32.518       26.679      999.421     1057.420      711.743        0.526        0.138       87.658       12.022        0.019      340.582       14.702      861.012
09/29/2013  04:19:00     -104.031        1.960      -11.774       55.263       50.998       20.458     3053.968     2600.756      418.547        0.852        0.304      104.049       25.440        0.060      340.629       14.782      860.995
09/29/2013  04:20:00     -138.835      -69.081       -2.335       72.036       76.775       38.499     5189.140     5894.455     1482.193        1.831        0.628      155.072       29.712        0.037      341.005       15.416      860.984
09/29/2013  04:21:00      -35.142       23.976       -9.901       54.707       29.190       13.191     2992.905      852.082      174.004        0.296        0.201       42.542       14.691        0.119      340.648       14.814      860.973
09/29/2013  04:22:00        5.107        8.486       13.868       12.381       14.819       11.222      153.292      219.591      125.934        0.039        0.025        9.904        6.545        0.437      339.959       13.651      861.005
09/29/2013  04:23:00       -9.075       19.480       -0.741       31.756       36.419       16.053     1008.447     1326.343      257.695        0.153        0.130       21.490        8.638        0.162      340.713       14.924      861.068
09/29/2013  04:24:00      -21.021       74.971       -0.876       66.105       48.273       25.707     4369.829     2330.271      660.834        0.671        0.368       77.862       22.527        0.084      340.584       14.706      860.986
09/29/2013  04:25:00      -27.532      101.829      -24.317       35.363       36.000       14.342     1250.565     1296.018      205.680        0.723        0.138      105.485       18.147        0.030      340.766       15.013      860.900
09/29/2013  04:26:00     -129.664       79.183      -19.012       54.964       53.217       35.719     3020.987     2832.013     1275.830        1.529        0.356      151.930       29.680        0.038      340.722       14.940      860.966
09/29/2013  04:27:00     -178.435      -36.925      -10.781       48.470       76.376       26.492     2349.341     5833.320      701.827        2.110        0.444      182.216       25.285        0.019      340.639       14.797      861.068
09/29/2013  04:28:00     -120.842       47.256      -13.621       58.817       96.409       36.791     3459.382     9294.686     1353.554        1.556        0.705      129.753       34.658        0.071      340.810       15.088      861.001
09/29/2013  04:29:00      -31.978       42.645        6.258       91.982       23.839       32.936     8460.678      568.303     1084.776        0.650        0.506       53.303       39.803        0.558      341.019       15.442      860.878
09/29/2013  04:30:00       23.672       26.298      -12.139       19.615       30.104       14.562      384.766      906.268      212.062        0.145        0.075       35.383       13.983        0.156      340.879       15.205      860.878
09/29/2013  04:31:00     -113.357      -54.385       -7.852       64.834       68.707       19.776     4203.484     4720.656      391.078        1.259        0.466      125.728       10.005        0.006      340.848       15.152      860.986
09/29/2013  04:32:00     -159.378      -80.648        0.846       73.751       65.131       36.027     5439.256     4241.990     1297.934        2.144        0.549      178.621       31.165        0.030      340.575       14.688      861.131
09/29/2013  04:33:00     -101.173      -62.937        3.976       67.675       63.604       34.065     4579.857     4045.450     1160.425        1.200        0.489      119.151       37.646        0.100      340.561       14.665      861.213
09/29/2013  04:34:00     -208.739      -81.131      -13.020       73.589       71.595       39.053     5415.399     5125.916     1525.150        3.119        0.603      223.951       32.071        0.021      340.920       15.270      861.221
09/29/2013  04:35:00      -48.201       29.784        8.047       57.757       42.443       24.173     3335.816     1801.369      584.326        0.450        0.286       56.660       30.179        0.284      340.790       15.055      861.047
09/29/2013  04:36:00       34.840      147.890      -32.332       26.954       51.326       20.798      726.523     2634.362      432.559        1.396        0.190      151.939       24.885        0.027      340.858       15.168      860.701
09/29/2013  04:37:00      -34.153       93.648      -23.579       58.170       68.610       17.897     3383.774     4707.391      320.305        0.945        0.421       99.681       26.974        0.073      340.893       15.229      860.630
09/29/2013  04:38:00     -193.360      -80.619      -18.532       84.344       62.504       33.027     7113.873     3906.697     1090.781        2.817        0.606      209.494       34.784        0.028      340.751       14.986      860.835
09/29/2013  04:39:00     -216.795     -122.192        7.088      106.860       62.909       48.158    11418.999     3957.548     2319.187        3.983        0.885      248.859       51.044        0.042      341.149       15.659      861.043
09/29/2013  04:40:00      -48.602      -53.287       13.087       99.360       68.508       35.784     9872.435     4693.394     1280.471        1.061        0.792       72.122       47.732        0.438      340.878       15.201      861.041
09/29/2013  04:41:00      111.159       59.786        2.391       55.056       42.652       33.224     3031.157     1819.179     1103.864        1.094        0.298      126.217       22.766        0.033      340.644       14.806      860.756
09/29/2013  04:42:00       42.806       89.713      -21.154       42.667       57.733       26.644     1820.497     3333.146      709.887        0.809        0.293       99.402       30.700        0.095      340.976       15.369      860.569
09/29/2013  04:43:00      -26.561      200.300      -20.718       33.140       48.029       27.380     1098.263     2306.803      749.652        2.270        0.208      202.054       19.385        0.009      341.105       15.584      860.586
09/29/2013  04:44:00       18.947       44.293       -0.609       41.914       27.694       16.040     1756.780      766.972      257.276        0.255        0.139       48.175       16.154        0.112      340.923       15.280      860.639
09/29/2013  04:45:00       35.536      -66.744       -9.305       28.034       34.520       19.156      785.902     1191.664      366.957        0.407        0.117       75.615        8.605        0.013      340.778       15.033      860.696
09/29/2013  04:46:00       48.156      -96.513      -11.685       27.242       21.779       16.718      742.129      474.340      279.506        0.663        0.075      107.860       13.195        0.015      340.923       15.279      860.773
09/29/2013  04:47:00      -67.567      -63.638        6.573       67.050       30.447       27.546     4495.639      927.048      758.794        0.742        0.309       92.818       27.674        0.089      340.909       15.254      860.894
09/29/2013  04:48:00     -129.738      -82.184        1.156       44.355       41.570       28.510     1967.349     1728.033      812.829        1.405        0.225      153.578       25.187        0.027      340.928       15.288      860.994
09/29/2013  04:49:00      -41.233       12.114       -1.293       55.472       80.319       23.380     3077.184     6451.172      546.640        0.596        0.504       42.976       22.276        0.269      340.757       14.999      860.898
09/29/2013  04:50:00      -17.655      115.355      -10.202       45.424       37.118       22.835     2063.351     1377.783      521.444        0.884        0.198      116.698       22.686        0.038      341.077       15.540      860.705
09/29/2013  04:51:00       31.180      174.982      -38.410       25.015       37.174       22.313      625.740     1381.930      497.850        1.779        0.125      177.739       18.926        0.011      340.937       15.300      860.610
09/29/2013  04:52:00      -24.092      113.092      -31.898       35.012       46.809       12.190     1225.841     2191.118      148.606        0.898        0.178      115.630       19.403        0.028      341.175       15.706      860.675
09/29/2013  04:53:00      -87.813       -0.771      -11.899       29.012       35.228       15.883      841.675     1240.985      252.270        0.509        0.117       87.816       12.228        0.019      340.735       14.960      860.796
09/29/2013  04:54:00     -136.279      -32.152      -10.989       31.836       30.487       19.603     1013.542      929.450      384.290        1.103        0.116      140.021       17.089        0.015      340.542       14.635      860.850
09/29/2013  04:55:00     -149.491      -25.756       -3.833       53.466       43.854       26.239     2858.653     1923.153      688.468        1.425        0.274      151.694       27.563        0.033      340.717       14.931      860.883
09/29/2013  04:56:00     -102.341      -19.922      -14.507       18.235       28.229       18.335      332.497      796.866      336.186        0.627        0.073      104.262       13.019        0.016      340.776       15.029      860.901
09/29/2013  04:57:00      -96.106      -38.326       -9.014       30.248       33.384       20.011      914.967     1114.469      400.453        0.661        0.121      103.467       12.991        0.016      340.742       14.972      860.945
09/29/2013  04:58:00     -100.552      -64.462       -1.914       50.975       40.018       19.929     2598.496     1601.459      397.181        0.943        0.230      119.441       21.586        0.033      340.707       14.914      860.957
09/29/2013  04:59:00       75.978       50.089       -0.034       43.021       29.577       24.448     1850.791      874.785      597.687        0.580        0.166       91.003       18.506        0.041      340.234       14.115      860.805
09/29/2013  05:00:00       -1.978       29.492      -18.135       67.265       36.923       18.156     4524.574     1363.276      329.654        0.371        0.311       29.559       12.513        0.179      340.474       14.520      860.752
09/29/2013  05:01:00     -124.556        5.076      -10.662       59.872       34.232       18.017     3584.640     1171.843      324.608        1.037        0.254      124.660       22.123        0.031      340.506       14.574      860.870
09/29/2013  05:02:00     -194.444        3.256      -13.343       66.840       50.948       30.283     4467.644     2595.694      917.051        2.299        0.399      194.471       34.381        0.031      340.776       15.028      860.968
09/29/2013  05:03:00     -166.543       73.160      -23.495       69.964       38.969       28.470     4894.902     1518.552      810.561        2.043        0.361      181.904       27.998        0.024      340.848       15.151      860.976
09/29/2013  05:04:00     -145.284       16.271      -23.958       42.134       35.423       23.658     1775.308     1254.793      559.697        1.277        0.179      146.192       15.022        0.011      340.981       15.377      860.969
09/29/2013  05:05:00     -121.285      -44.370      -19.194       26.944       31.149       18.811      725.981      970.267      353.847        0.955        0.103      129.146       16.340        0.016      340.901       15.242      861.008
09/29/2013  05:06:00      -63.402       -9.906       -0.453       23.173       32.928       16.048      536.992     1084.226      257.535        0.300        0.094       64.172       14.173        0.049      340.825       15.112      860.935
09/29/2013  05:07:00      -29.996       17.509        2.638       21.242       17.460       11.165      451.203      304.859      124.659        0.105        0.044       34.732        7.431        0.046      340.803       15.075      860.816
09/29/2013  05:08:00      -52.446       -6.839       -1.150       21.837       20.912       11.618      476.855      437.309      134.977        0.192        0.052       52.890        9.337        0.031      340.749       14.982      860.834
09/29/2013  05:09:00     -101.109      -30.145       -8.048       26.712       27.540       10.503      713.531      758.435      110.321        0.639        0.079      105.507       12.448        0.014      340.805       15.077      860.963
09/29/2013  05:10:00      -68.160       45.481       -7.235       26.694       30.245       18.397      712.562      914.735      338.455        0.437        0.098       81.941       18.535        0.051      340.606       14.743      861.008
09/29/2013  05:11:00     -112.171       96.956      -24.661       21.962       20.637       15.541      482.346      425.887      241.514        1.187        0.057      148.266        9.996        0.005      340.945       15.317      860.994
09/29/2013  05:12:00      -54.963       89.968       -6.804       59.880       49.217       31.094     3585.602     2422.307      966.860        0.907        0.349      105.429       38.858        0.136      340.895       15.231      860.993
09/29/2013  05:13:00        3.862       27.179       13.277       21.754       21.772       16.221      473.224      473.999      263.109        0.107        0.061       27.452       10.182        0.138      340.638       14.796      860.944
09/29/2013  05:14:00       -8.094       29.435        8.950       18.173       15.786       13.809      330.249      249.205      190.689        0.089        0.039       30.528        6.384        0.044      340.628       14.781      860.919
09/29/2013  05:15:00      -85.879      -13.854       -9.562       32.016       19.373       13.658     1025.011      375.326      186.529        0.462        0.079       86.990       13.736        0.025      340.729       14.951      860.990
09/29/2013  05:16:00     -126.757       35.386       -3.772       47.107       29.938       19.874     2219.025      896.262      394.967        1.042        0.176      131.604       11.438        0.008      341.023       15.449      861.079
09/29/2013  05:17:00       10.359       20.193       11.524       39.475       16.136       13.934     1558.238      260.381      194.169        0.133        0.101       22.695       16.160        0.507      340.665       14.843      861.045
09/29/2013  05:18:00       11.884       20.783        5.145       32.928       13.797       15.674     1084.267      190.350      245.675        0.106        0.076       23.941       13.858        0.335      340.287       14.205      861.027
09/29/2013  05:19:00      -20.438       87.358        8.158       41.161       73.977       33.376     1694.188     5472.669     1113.989        0.820        0.414       89.717       38.309        0.182      340.568       14.678      861.074
09/29/2013  05:20:00      -78.188       10.452        2.860       75.676       65.682       45.321     5726.861     4314.136     2054.010        0.916        0.605       78.883       49.079        0.387      340.470       14.514      861.070
09/29/2013  05:21:00      -34.805       17.513       -6.240       38.180       32.384       21.673     1457.684     1048.742      469.702        0.227        0.149       38.962       15.578        0.160      340.605       14.742      861.023
09/29/2013  05:22:00       25.887      104.486      -13.452       57.495       73.378       29.868     3305.711     5384.386      892.071        1.067        0.479      107.645       38.684        0.129      340.454       14.486      860.929
09/29/2013  05:23:00       17.486       99.215      -12.481       51.292       32.084       28.865     2630.825     1029.377      833.175        0.740        0.225      100.744       25.112        0.062      340.570       14.681      860.848
09/29/2013  05:24:00      -64.303       78.640      -16.316       56.200       64.105       27.949     3158.387     4109.495      781.174        0.932        0.402      101.583       29.220        0.083      341.043       15.483      860.864
09/29/2013  05:25:00      -81.844        9.400       -6.294       54.022       33.867       24.379     2918.328     1146.989      594.330        0.574        0.233       82.382       21.627        0.069      340.860       15.171      860.956
09/29/2013  05:26:00      -67.853        3.143        3.102       67.130       31.823       33.583     4506.375     1012.689     1127.849        0.563        0.332       67.926       32.603        0.230      340.961       15.344      861.044
09/29/2013  05:27:00       32.109      -25.821       19.914       28.549       34.767       25.619      815.037     1208.761      656.318        0.239        0.134       41.203       10.833        0.069      340.554       14.654      861.027
09/29/2013  05:28:00      -36.901      -33.672        0.568       29.700       21.146       17.646      882.103      447.171      311.373        0.207        0.082       49.955       13.131        0.069      340.843       15.143      860.991
09/29/2013  05:29:00       -4.007       30.811      -14.049       25.522       27.252       14.696      651.381      742.655      215.961        0.139        0.080       31.070       14.258        0.211      341.302       15.921      861.042
09/29/2013  05:30:00       78.821       26.697       13.911       26.592       36.814       28.547      707.156     1355.293      814.916        0.500        0.144       83.219       15.331        0.034      340.828       15.119      860.946
09/29/2013  05:31:00       83.697       44.331       10.263       29.319       26.512       28.134      859.578      702.874      791.535        0.571        0.118       94.712       12.513        0.017      340.451       14.481      860.782
09/29/2013  05:32:00       27.618       43.015        1.191       46.746       38.042       32.508     2185.186     1447.175     1056.755        0.365        0.234       51.118       27.795        0.296      340.365       14.336      860.769
09/29/2013  05:33:00      -41.660       51.839      -12.238       41.470       48.999       16.287     1719.797     2400.949      265.258        0.448        0.219       66.505       20.193        0.092      340.480       14.530      860.823
09/29/2013  05:34:00     -182.392        8.274      -20.932       57.107       36.312       26.023     3261.190     1318.564      677.191        1.951        0.263      182.579       31.653        0.030      340.559       14.661      860.955
09/29/2013  05:35:00     -246.964      -91.055      -15.013       54.895       55.418       28.368     3013.455     3071.132      804.763        3.820        0.344      263.215       25.036        0.009      340.738       14.960      861.102
09/29/2013  05:36:00      -87.853      -35.403       -2.883       91.468       36.403       27.215     8366.310     1325.171      740.655        0.970        0.522       94.718       25.829        0.074      340.763       15.007      861.112
09/29/2013  05:37:00       46.820        1.441        5.217       25.574       27.972       31.657      654.032      782.459     1002.177        0.233        0.122       46.842       13.511        0.083      340.041       13.790      861.008
09/29/2013  05:38:00       95.374       24.099       19.715       36.796       22.894       27.145     1353.914      524.147      736.834        0.634        0.131       98.372       22.404        0.052      339.817       13.411      860.832
09/29/2013  05:39:00      103.223       23.765        4.813       66.835       50.930       27.535     4466.882     2593.874      758.160        0.953        0.391      105.924       28.602        0.073      340.324       14.266      860.775
09/29/2013  05:40:00       13.619     -124.359      -33.672       58.975       54.775       34.665     3478.108     3000.297     1201.695        1.223        0.384      125.103       31.043        0.062      340.269       14.173      860.985
09/29/2013  05:41:00       12.681      -37.537       28.045       40.085       75.554       46.585     1606.801     5708.335     2170.181        0.592        0.474       39.621       50.578        1.630      340.258       14.155      861.083
09/29/2013  05:42:00       44.258       35.990       62.217       50.179       51.562       41.240     2517.945     2658.625     1700.716        0.700        0.344       57.045       33.482        0.345      339.988       13.699      860.925
09/29/2013  05:43:00       77.398      -40.302       30.691       59.407       56.965       33.560     3529.145     3245.016     1126.270        0.823        0.395       87.263       36.413        0.174      340.302       14.229      860.947
09/29/2013  05:44:00      124.261      100.020       42.865       49.821       40.980       37.386     2482.137     1679.355     1397.707        1.642        0.278      159.514       35.046        0.048      340.326       14.269      860.891
09/29/2013  05:45:00       82.041       58.899        5.975       58.149       47.837       30.964     3381.289     2288.340      958.766        0.843        0.331      100.994       20.054        0.039      340.627       14.778      860.860
09/29/2013  05:46:00      -37.050       32.671       -7.848       44.386       19.800       12.570     1970.106      392.034      158.011        0.251        0.126       49.397       16.535        0.112      340.492       14.549      860.919
09/29/2013  05:47:00      -29.412       61.351       -5.693       30.661       35.391       10.720      940.078     1252.531      114.923        0.348        0.115       68.037        6.625        0.009      340.386       14.371      860.890
09/29/2013  05:48:00       -2.877      185.303      -28.567       29.071       36.471       15.609      845.101     1330.157      243.627        1.879        0.121      185.325       15.695        0.007      340.710       14.918      860.788
09/29/2013  05:49:00      -78.711       40.574      -16.731       29.164       82.267       20.430      850.541     6767.831      417.403        0.808        0.402       88.553       28.492        0.104      340.448       14.475      860.835
09/29/2013  05:50:00      -78.623       42.947      -19.829       17.322       63.404       18.284      300.037     4020.078      334.310        0.654        0.233       89.588       25.001        0.078      340.399       14.394      860.856
09/29/2013  05:51:00        5.741      124.245       -1.013       19.437       24.797       19.451      377.782      614.899      378.356        0.842        0.069      124.377       16.526        0.018      340.715       14.926      860.782
09/29/2013  05:52:00       45.232       89.534       -7.113       37.715       36.577       25.800     1422.388     1337.901      665.627        0.677        0.171      100.311       18.119        0.033      340.586       14.709      860.688
09/29/2013  05:53:00      103.686       60.423       10.661       46.984       39.323       32.941     2207.450     1546.280     1085.080        0.968        0.242      120.007       18.781        0.024      340.378       14.357      860.627
09/29/2013  05:54:00        0.753       27.107        6.755       72.412       29.269       23.854     5243.449      856.688      569.022        0.372        0.333       27.117       19.003        0.491      340.415       14.418      860.642
09/29/2013  05:55:00      -65.579      -47.441      -13.511       27.747       18.877       19.778      769.900      356.329      391.180        0.413        0.076       80.940       15.436        0.036      340.399       14.393      860.718
09/29/2013  05:56:00      -10.579      -52.363       -6.387       41.701       40.660       29.532     1739.004     1653.212      872.143        0.358        0.213       53.421       23.960        0.201      340.359       14.326      860.852
09/29/2013  05:57:00      -18.822     -120.975        8.437       35.722       34.812       20.525     1276.049     1211.869      421.271        0.898        0.145      122.430       21.300        0.030      340.912       15.261      860.901
09/29/2013  05:58:00       74.109       43.379       13.180       30.882       27.360       31.583      953.718      748.548      997.515        0.512        0.135       85.872       20.586        0.057      340.116       13.915      860.746
09/29/2013  05:59:00       27.327       16.504      -14.434       35.528       37.211       22.244     1262.234     1384.663      494.792        0.218        0.157       31.924       21.790        0.466      340.264       14.163      860.696
09/29/2013  06:00:00      -32.585      -38.213       -0.197       25.637       18.541       11.202      657.235      343.752      125.488        0.182        0.056       50.219        9.550        0.036      340.268       14.172      860.874
09/29/2013  06:01:00        7.880      -57.685       -0.019       29.249       26.225       23.142      855.484      687.742      535.566        0.273        0.104       58.221       17.341        0.089      340.374       14.349      861.015
09/29/2013  06:02:00       44.728      -10.164        5.582       46.890       34.967       22.554     2198.711     1222.690      508.677        0.303        0.197       45.868       23.372        0.260      340.242       14.129      861.010
09/29/2013  06:03:00      110.781      104.602       23.321       49.573       89.049       49.969     2457.449     7929.679     2496.888        1.832        0.644      152.362       55.011        0.130      340.177       14.016      860.828
09/29/2013  06:04:00       33.424      312.177       -6.092       87.657      136.093       88.340     7683.808    18521.245     7803.899        6.630        1.700      313.961       89.629        0.081      341.386       16.060      860.600
09/29/2013  06:05:00       69.288      -10.344       11.094       70.793       68.854       43.615     5011.681     4740.868     1902.261        0.834        0.583       70.056       31.303        0.200      340.180       14.022      860.808
09/29/2013  06:06:00      -18.038      -41.416       -0.807       81.067       49.940       31.709     6571.871     2494.039     1005.452        0.605        0.504       45.174       26.472        0.343      340.379       14.358      860.990
09/29/2013  06:07:00      -54.148      -36.154        1.632       55.953       38.461       30.803     3130.701     1479.284      948.817        0.490        0.278       65.108       28.397        0.190      340.776       15.030      860.968
09/29/2013  06:08:00      -36.130      -23.509       13.758       39.184       50.020       23.035     1535.421     2501.976      530.597        0.331        0.228       43.105       24.957        0.335      340.800       15.073      860.794
09/29/2013  06:09:00     -168.542      -24.844       -2.841       92.617       53.786       33.872     8577.907     2892.895     1147.283        2.082        0.631      170.363       32.090        0.035      341.112       15.598      860.700
09/29/2013  06:10:00     -205.502      -63.246      -14.457       66.121       62.515       37.446     4371.978     3908.184     1402.212        2.806        0.484      215.014       29.331        0.019      341.319       15.947      860.732
09/29/2013  06:11:00     -216.030        8.021       -2.408       61.302      121.674       35.348     3757.900    14804.510     1249.487        3.327        0.991      216.179       27.998        0.017      341.248       15.824      860.846
09/29/2013  06:12:00     -217.499       41.229      -18.112       63.567       41.977       30.558     4040.727     1762.032      933.814        2.803        0.337      221.372       28.175        0.016      341.216       15.770      860.912
09/29/2013  06:13:00     -210.982        4.304      -31.663       92.647       62.398       26.856     8583.463     3893.572      721.260        2.936        0.660      211.026       34.482        0.027      341.085       15.550      860.967
09/29/2013  06:14:00     -167.171      -77.834       -0.483       82.557       56.472       36.014     6815.665     3189.140     1296.988        2.265        0.565      184.403       40.706        0.049      340.890       15.221      861.039
09/29/2013  06:15:00     -227.208      -56.969      -13.415       67.400       69.870       29.855     4542.824     4881.861      891.341        3.268        0.516      234.241       31.700        0.018      340.864       15.175      861.076
09/29/2013  06:16:00     -231.720        7.781      -25.907       61.610       56.102       32.345     3795.751     3147.392     1046.231        3.121        0.399      231.851       28.279        0.015      340.862       15.172      861.072
09/29/2013  06:17:00     -129.152      115.485      -10.031       91.708       71.820       38.811     8410.337     5158.124     1506.321        2.259        0.754      173.254       36.700        0.045      340.937       15.301      860.976
09/29/2013  06:18:00      -53.276      244.014      -34.149       54.678       69.355       31.697     2989.702     4810.061     1004.719        3.617        0.440      249.762       26.336        0.011      340.957       15.333      860.844
09/29/2013  06:19:00       10.437      153.962      -25.646       40.728       93.422       31.745     1658.807     8727.736     1007.716        1.793        0.570      154.315       38.249        0.061      340.856       15.164      860.817
09/29/2013  06:20:00      -14.848       25.732       -4.183       41.482       52.456       25.743     1720.794     2751.652      662.717        0.302        0.257       29.709       22.023        0.550      340.826       15.115      860.916
09/29/2013  06:21:00       11.143      -15.145        5.715       33.908       28.079       18.717     1149.769      788.428      350.329        0.134        0.114       18.802       20.331        1.169      340.688       14.881      861.004
09/29/2013  06:22:00       43.952       27.133        8.131       21.017       27.134       30.024      441.714      736.267      901.437        0.241        0.104       51.652       19.233        0.139      340.302       14.229      861.059
09/29/2013  06:23:00       54.107       28.695       13.725       55.203       31.080       28.873     3047.372      965.982      833.678        0.439        0.242       61.245       23.093        0.142      340.419       14.426      861.092
09/29/2013  06:24:00      -25.730       37.097       -3.287       19.117       16.961       11.122      365.444      287.678      123.696        0.141        0.039       45.147        7.429        0.027      340.896       15.232      861.068
09/29/2013  06:25:00      -68.120       34.655       -9.121       23.200       26.096       13.467      538.233      680.997      181.363        0.366        0.070       76.428       11.512        0.023      340.902       15.242      861.101
09/29/2013  06:26:00      -79.738       -1.432       -0.980       39.152       30.506       17.425     1532.886      930.634      303.613        0.456        0.138       79.751       19.149        0.058      340.925       15.281      861.219
09/29/2013  06:27:00      -22.926        4.830       20.698       48.397       28.735       22.874     2342.262      825.714      523.208        0.233        0.185       23.429       26.664        1.295      340.477       14.525      861.205
09/29/2013  06:28:00       56.313       10.643       12.719       32.236       22.762       26.656     1039.158      518.101      710.527        0.286        0.113       57.310       16.496        0.083      340.061       13.822      861.087
09/29/2013  06:29:00       71.628       22.418        6.759       18.761       16.407       18.770      351.985      269.190      352.318        0.333        0.049       75.054        9.908        0.017      340.716       14.928      861.023
09/29/2013  06:30:00      -38.062       36.964      -13.024       47.376       27.670       20.785     2244.513      765.635      432.004        0.321        0.172       53.057       27.228        0.263      340.901       15.241      861.058
09/29/2013  06:31:00      -77.008        7.790       -7.260       15.872       22.427       11.489      251.909      502.953      132.007        0.347        0.044       77.401        9.016        0.014      340.703       14.906      861.112
09/29/2013  06:32:00     -155.848       39.330      -14.238       67.235       32.066       23.865     4520.575     1028.207      569.523        1.608        0.306      160.734       25.753        0.026      340.748       14.981      861.176
09/29/2013  06:33:00     -116.417      -18.485        2.648       64.765       48.444       33.834     4194.449     2346.775     1144.743        1.079        0.384      117.876       34.399        0.085      340.706       14.910      861.230
09/29/2013  06:34:00      -85.447       19.955       -1.669       48.366       37.997       22.044     2339.247     1443.792      485.948        0.598        0.213       87.746       22.244        0.064      340.836       15.132      861.194
09/29/2013  06:35:00     -164.351       82.680      -20.951       72.486       49.310       32.972     5254.248     2431.431     1087.180        2.153        0.439      183.977       36.440        0.039      341.176       15.705      861.064
09/29/2013  06:36:00     -243.244       88.632      -18.546       62.431       38.300       32.146     3897.576     1466.875     1033.365        3.688        0.320      258.889       27.213        0.011      341.200       15.743      861.011
09/29/2013  06:37:00     -179.057      117.795      -34.294       47.704       43.462       27.908     2275.702     1888.955      778.848        2.603        0.247      214.330       25.068        0.014      341.318       15.946      861.066
09/29/2013  06:38:00     -167.603       63.068      -29.593       55.429       52.336       29.776     3072.413     2739.084      886.590        1.982        0.335      179.076       26.257        0.021      341.372       16.037      861.153
09/29/2013  06:39:00     -130.652      143.597      -30.206       63.058       65.256       38.433     3976.343     4258.372     1477.133        2.416        0.486      194.139       41.196        0.045      341.212       15.767      861.213
09/29/2013  06:40:00     -107.718      107.339      -25.618       30.344       44.131       26.272      920.777     1947.535      690.204        1.367        0.178      152.068       16.538        0.012      340.988       15.389      861.192
09/29/2013  06:41:00      -91.421       63.448      -13.043       21.028       44.621       21.976      442.178     1991.077      482.923        0.773        0.146      111.281       14.408        0.017      340.867       15.184      861.155
09/29/2013  06:42:00     -136.916      -16.625      -13.620       71.450       61.470       32.404     5105.080     3778.538     1050.012        1.457        0.497      137.922       36.128        0.069      340.787       15.049      861.183
09/29/2013  06:43:00     -205.040      -20.341      -19.878       86.607       88.759       35.071     7500.765     7878.246     1230.002        2.973        0.830      206.046       25.432        0.015      340.913       15.261      861.181
09/29/2013  06:44:00     -149.938       48.360      -12.759       91.888       42.152       26.728     8443.353     1776.812      714.391        1.796        0.547      157.544       35.451        0.051      341.154       15.668      861.029
09/29/2013  06:45:00      -99.957      -42.368       13.320      115.865       84.127       37.493    13424.674     7077.362     1405.707        1.693        1.095      108.565       30.308        0.078      341.024       15.448      860.946
09/29/2013  06:46:00     -268.821        2.500      -24.362       66.884       71.770       40.870     4473.421     5150.963     1670.392        4.208        0.565      268.832       37.285        0.019      341.149       15.659      861.047
09/29/2013  06:47:00     -235.443      -32.803      -24.412       52.696       89.736       39.277     2776.858     8052.609     1542.663        3.474        0.619      237.717       27.754        0.014      341.138       15.638      861.153
09/29/2013  06:48:00     -157.272      -23.223      -14.148       43.278       46.639       28.207     1872.966     2175.151      795.656        1.516        0.242      158.978       19.647        0.015      340.997       15.404      861.141
09/29/2013  06:49:00     -166.135      -19.759      -24.572       50.988       49.597       23.324     2599.792     2459.895      544.000        1.710        0.280      167.306       22.488        0.018      340.959       15.338      861.105
09/29/2013  06:50:00     -129.696      -65.133       -9.245       46.207       44.721       30.475     2135.058     1999.978      928.709        1.311        0.253      145.132       28.146        0.038      341.014       15.432      861.149
09/29/2013  06:51:00     -148.337      -75.947       -2.456       61.925       51.692       35.442     3834.754     2672.068     1256.154        1.777        0.388      166.649       23.403        0.020      340.976       15.369      861.138
09/29/2013  06:52:00     -140.001      -37.065       -2.075       35.937       30.411       23.506     1291.437      924.819      552.520        1.187        0.138      144.824       23.961        0.027      340.846       15.149      861.124
09/29/2013  06:53:00     -186.230      -10.701       -0.247       84.931       41.991       38.739     7213.306     1763.248     1500.678        2.263        0.524      186.537       43.238        0.054      340.726       14.945      861.166
09/29/2013  06:54:00     -202.454      -51.385        6.433       74.589       72.308       43.137     5563.576     5228.461     1860.801        2.816        0.633      208.873       45.883        0.048      340.799       15.066      861.216
09/29/2013  06:55:00     -272.956      -38.082      -15.748       85.326       63.821       38.936     7280.527     4073.058     1516.025        4.453        0.643      275.600       44.544        0.026      341.020       15.438      861.211
09/29/2013  06:56:00     -195.360      -73.109      -15.267       59.922       53.810       36.836     3590.613     2895.562     1356.896        2.579        0.392      208.592       26.686        0.016      340.938       15.302      861.185
09/29/2013  06:57:00     -113.561      -11.152       -5.600       78.178       44.489       27.417     6111.865     1979.255      751.709        1.095        0.442      114.107       30.488        0.071      340.780       15.037      861.148
09/29/2013  06:58:00     -205.444        3.790      -15.519       61.272       48.251       29.256     3754.209     2328.184      855.926        2.470        0.347      205.479       29.838        0.021      340.810       15.086      861.075
09/29/2013  06:59:00     -239.092      -64.349      -23.785       64.414       82.670       37.010     4149.180     6834.383     1369.704        3.711        0.618      247.600       30.906        0.016      340.833       15.123      861.011
09/29/2013  07:00:00     -241.140      -46.904       -9.910       88.803       72.302       45.281     7885.992     5227.544     2050.363        3.780        0.758      245.659       46.012        0.035      340.768       15.013      860.985
09/29/2013  07:01:00     -251.165      -35.577       -7.278       90.363       60.459       44.809     8165.468     3655.295     2007.826        3.911        0.691      253.672       47.225        0.035      340.991       15.390      861.005
09/29/2013  07:02:00     -166.869       -7.590        8.326       81.615       72.922       40.169     6660.959     5317.638     1613.527        2.078        0.680      167.042       41.346        0.061      340.944       15.313      861.025
09/29/2013  07:03:00     -184.164       -3.501      -17.952       77.511       57.925       33.067     6007.982     3355.301     1093.428        2.235        0.523      184.197       34.035        0.034      341.100       15.576      860.995
09/29/2013  07:04:00     -415.145       -4.865      -36.843       98.465       95.899       46.630     9695.352     9196.637     2174.367        9.739        1.053      415.173       52.255        0.016      341.120       15.610      861.009
09/29/2013  07:05:00     -286.750      -60.824        2.342      118.453       86.347       53.918    14031.204     7455.889     2907.163        5.516        1.220      293.130       53.633        0.033      340.978       15.370      861.159
09/29/2013  07:06:00     -179.876      -88.225      -12.641       93.647       61.626       37.144     8769.668     3797.776     1379.648        2.712        0.697      200.348       25.189        0.016      340.952       15.324      861.287
09/29/2013  07:07:00     -134.670      -73.509       -7.157      109.482       78.064       50.492    11986.206     6093.989     2549.471        2.211        1.031      153.426       50.278        0.107      340.924       15.280      861.236
09/29/2013  07:08:00     -147.531       41.124      -15.623       82.358       48.297       27.936     6782.860     2332.553      780.442        1.680        0.495      153.155       29.308        0.037      341.114       15.600      860.930
09/29/2013  07:09:00     -166.681       23.315      -15.177       53.351       45.157       25.496     2846.287     2039.162      650.036        1.704        0.277      168.304       24.553        0.021      341.245       15.824      860.741
09/29/2013  07:10:00     -184.715      -49.624       -4.426       70.856       90.798       40.536     5020.507     8244.336     1643.180        2.575        0.745      191.264       34.714        0.033      341.191       15.729      860.776
09/29/2013  07:11:00     -268.557      -64.246       -5.212       94.011       73.886       38.549     8838.020     5459.199     1486.010        4.603        0.789      276.135       38.050        0.019      341.111       15.592      860.764
09/29/2013  07:12:00     -240.054      -45.259       -3.281      120.342       85.934       55.361    14482.282     7384.720     3064.870        4.230        1.247      244.283       52.452        0.046      340.997       15.401      860.813
09/29/2013  07:13:00     -218.325      -18.030      -14.109       97.425       79.254       40.975     9491.558     6281.259     1678.972        3.282        0.873      219.068       44.004        0.040      341.102       15.579      860.881
09/29/2013  07:14:00     -102.500      104.372      -19.457       71.734       66.250       32.489     5145.756     4389.003     1055.524        1.618        0.530      146.286       23.947        0.027      341.179       15.711      860.839
09/29/2013  07:15:00      -66.186       76.473       -7.610       40.128       64.739       26.898     1610.268     4191.152      723.492        0.840        0.326      101.137       19.632        0.038      341.088       15.560      860.854
09/29/2013  07:16:00      -75.258       12.847      -11.141       31.805       28.319       21.866     1011.574      801.979      478.131        0.412        0.115       76.347       19.808        0.067      341.091       15.564      860.979
09/29/2013  07:17:00      -52.643       71.181       -4.082       37.685       33.994       25.705     1420.126     1155.577      660.723        0.554        0.162       88.532       24.008        0.074      340.992       15.396      861.006
09/29/2013  07:18:00      -31.002       92.171      -13.619       33.087       42.501       18.479     1094.760     1806.345      341.488        0.644        0.162       97.245       15.867        0.027      341.078       15.541      861.017
09/29/2013  07:19:00      -74.851       -2.830       -3.579       42.119       42.083       20.424     1773.996     1770.947      417.135        0.479        0.198       74.905       16.861        0.051      341.009       15.426      861.109
09/29/2013  07:20:00       29.048       -0.113        2.719       27.208       44.601       18.973      740.271     1989.259      359.974        0.197        0.154       29.048       13.462        0.215      340.843       15.143      861.111
09/29/2013  07:21:00       35.391      -59.181       -5.832       29.839       28.187       21.865      890.363      794.496      478.076        0.348        0.108       68.956       17.437        0.064      340.463       14.501      861.071
09/29/2013  07:22:00      -75.561      -31.438       -4.388       45.642       27.325       16.884     2083.168      746.641      285.077        0.492        0.156       81.841       20.986        0.066      340.818       15.102      861.134
09/29/2013  07:23:00      -93.108       11.734       -9.157       28.171       33.967       12.832      793.601     1153.771      164.662        0.550        0.106       93.844       13.000        0.019      340.839       15.136      861.136
09/29/2013  07:24:00      -19.192       51.752       -3.501       21.524       16.497        9.381      463.284      272.157       88.009        0.194        0.041       55.196        7.771        0.020      340.796       15.063      861.036
09/29/2013  07:25:00      -24.240       35.116       -7.609       19.037       21.119       10.176      362.410      446.027      103.553        0.140        0.046       42.669        5.745        0.018      340.815       15.093      861.014
09/29/2013  07:26:00      -75.586      -49.605        3.071       41.767       37.670       35.260     1744.501     1418.992     1243.297        0.629        0.220       90.409       21.266        0.055      340.689       14.884      861.055
09/29/2013  07:27:00     -170.605      -72.992        0.652       41.772       51.294       24.233     1744.891     2631.100      587.236        1.970        0.248      185.564       18.417        0.010      340.857       15.167      861.120
09/29/2013  07:28:00     -161.649     -124.168      -16.912       71.324       57.473       30.758     5087.160     3303.145      946.035        2.558        0.467      203.834       25.368        0.015      340.914       15.260      861.188
09/29/2013  07:29:00     -189.209      -85.146       -3.554       50.641       58.902       34.219     2564.532     3469.441     1170.916        2.513        0.360      207.485       25.556        0.015      340.966       15.349      861.246
09/29/2013  07:30:00     -209.436      -68.610       -0.949      102.623       80.815       40.355    10531.413     6530.991     1628.528        3.363        0.935      220.388       35.230        0.026      341.010       15.424      861.294
09/29/2013  07:31:00      -81.102      -73.359       10.404      151.767       70.716       34.937    23033.268     5000.797     1220.606        2.065        1.463      109.357       47.486        0.189      341.366       16.027      861.271
09/29/2013  07:32:00      -13.205       38.972       23.818       29.109       43.010       32.250      847.314     1849.825     1040.087        0.300        0.187       41.148       17.185        0.174      340.565       14.674      861.161
09/29/2013  07:33:00      -39.374       14.149       -8.055       25.632       37.065       18.857      657.019     1373.805      355.574        0.210        0.119       41.839       17.612        0.177      340.793       15.059      861.102
09/29/2013  07:34:00      -53.401        0.340       -6.516       23.873       11.816       13.392      569.899      139.616      179.356        0.189        0.044       53.402       10.151        0.036      341.062       15.515      861.024
09/29/2013  07:35:00     -185.714      -58.845      -12.665       45.277       44.287       27.739     2050.004     1961.315      769.468        2.145        0.239      194.814       24.922        0.016      341.198       15.742      861.023
09/29/2013  07:36:00     -193.727      -62.146       -3.542       55.615       57.096       32.516     3092.986     3260.007     1057.289        2.441        0.371      203.451       26.405        0.017      341.077       15.539      861.072
09/29/2013  07:37:00     -138.328      -62.932       11.286       75.836       77.094       43.922     5751.077     5943.458     1929.128        1.842        0.681      151.971       44.275        0.085      341.013       15.431      861.066
09/29/2013  07:38:00      -87.318      -33.412        7.728       83.658       80.957       32.484     6998.668     6554.003     1055.183        1.170        0.730       93.492       35.170        0.142      340.973       15.362      860.910
09/29/2013  07:39:00      -59.581      -72.571        5.131       55.561       64.325       30.900     3086.984     4137.688      954.792        0.851        0.409       93.896       28.249        0.091      341.084       15.552      860.763
09/29/2013  07:40:00     -194.886     -161.506      -11.981      122.010      118.678       46.783    14886.388    14084.388     2188.663        4.768        1.558      253.110       55.820        0.049      341.071       15.527      860.863
09/29/2013  07:41:00     -271.689     -193.940       -7.333      166.820      140.448       82.147    27828.944    19725.528     6748.160        8.288        2.715      333.808       87.633        0.069      341.148       15.657      860.959
09/29/2013  07:42:00     -205.038     -101.960       -7.241      119.770       95.221       48.532    14344.851     9067.091     2355.327        3.912        1.288      228.990       41.951        0.034      341.211       15.764      860.853
09/29/2013  07:43:00      -84.446      -29.563        5.116       69.881       86.374       36.584     4883.317     7460.554     1338.395        1.085        0.684       89.471       42.432        0.225      341.155       15.671      860.632
09/29/2013  07:44:00     -294.475     -102.907      -11.256       81.330       79.362       44.305     6614.620     6298.330     1962.931        5.615        0.744      311.938       38.447        0.015      341.241       15.812      860.529
09/29/2013  07:45:00     -184.294      -88.546       19.811      122.540       99.498       54.480    15015.967     9899.817     2968.066        3.503        1.394      204.462       64.885        0.101      341.196       15.738      860.664
09/29/2013  07:46:00     -200.443     -136.156        4.676      128.235      104.185       60.580    16444.248    10854.571     3669.956        4.485        1.548      242.314       62.872        0.067      341.211       15.761      860.859
09/29/2013  07:47:00     -118.451      -35.465        6.917       69.244       70.292       30.667     4794.769     4940.948      940.444        1.300        0.534      123.646       24.931        0.041      341.196       15.740      860.906
09/29/2013  07:48:00     -252.303      -61.948      -17.255      133.270       94.969       45.369    17760.927     9019.036     2058.368        4.831        1.442      259.797       53.821        0.043      341.286       15.890      860.846
09/29/2013  07:49:00     -283.593     -124.229       -4.100      124.649      104.951       52.608    15537.450    11014.615     2767.585        6.259        1.466      309.609       52.859        0.029      341.570       16.371      860.959
09/29/2013  07:50:00     -230.347       -7.882      -15.807       73.755       50.025       40.233     5439.844     2502.477     1618.682        3.146        0.478      230.482       38.632        0.028      341.413       16.105      860.946
09/29/2013  07:51:00     -124.636      -20.109       -3.812       94.114       53.375       32.680     8857.396     2848.845     1067.992        1.436        0.639      126.248       43.636        0.119      341.338       15.981      860.810
09/29/2013  07:52:00      -69.018       26.146      -10.129       59.175       47.597       31.556     3501.629     2265.467      995.812        0.615        0.338       73.804       27.377        0.138      341.304       15.925      860.725
09/29/2013  07:53:00       15.199       39.357       -3.174       18.165       35.109       12.137      329.983     1232.639      147.297        0.175        0.085       42.190       13.494        0.102      341.153       15.670      860.710
09/29/2013  07:54:00      -15.259      -26.613        1.714       54.081       33.372       25.646     2924.719     1113.692      657.740        0.282        0.235       30.677       24.131        0.619      341.150       15.662      860.809
09/29/2013  07:55:00      -73.801      -82.682        8.847      107.236       83.901       39.360    11499.486     7039.460     1549.245        1.622        1.004      110.828       51.110        0.213      341.274       15.871      860.811
09/29/2013  07:56:00     -145.430       19.369       -1.160       72.886       70.001       47.569     5312.399     4900.162     2262.842        1.700        0.624      146.714       40.915        0.078      341.344       15.990      860.725
09/29/2013  07:57:00      -85.319      -22.802        6.105       51.150       41.370       26.883     2616.352     1711.492      722.692        0.644        0.253       88.313       22.841        0.067      341.237       15.811      860.729
09/29/2013  07:58:00     -169.064      -79.075       -1.915       80.152       61.912       35.896     6424.374     3833.123     1288.548        2.319        0.577      186.643       28.051        0.023      341.251       15.831      860.891
09/29/2013  07:59:00     -145.778     -152.162        8.097      119.454      105.478       66.549    14269.243    11125.555     4428.812        3.714        1.491      210.724       68.453        0.106      341.258       15.842      861.080
09/29/2013  08:00:00      -57.921     -140.477       23.597      130.534       71.957       43.468    17039.146     5177.812     1889.472        2.387        1.205      151.949       58.740        0.149      341.295       15.907      860.986
09/29/2013  08:01:00       16.517       58.607       72.538       48.449       61.085       54.418     2347.298     3731.400     2961.314        0.900        0.452       60.890       39.972        0.431      340.825       15.112      860.586
09/29/2013  08:02:00       15.729       18.795       84.815       44.357       96.450       73.429     1967.542     9302.656     5391.759        1.222        0.833       24.509       78.806       10.339      340.746       14.977      860.423
09/29/2013  08:03:00      -53.701      -63.635       -6.545       48.470       36.434       22.903     2349.360     1327.457      524.541        0.559        0.210       83.266        3.075        0.001      340.953       15.329      860.633
09/29/2013  08:04:00      -82.667      -36.194        7.987       77.981       62.197       31.221     6081.111     3868.438      974.722        0.956        0.546       90.243       38.000        0.177      340.985       15.383      860.844
09/29/2013  08:05:00     -152.159     -141.478        0.083       89.440       79.416       42.843     7999.431     6306.924     1835.565        2.965        0.807      207.770       48.524        0.055      341.019       15.438      861.033
09/29/2013  08:06:00      -62.961     -111.874       -1.515       71.463       54.902       36.830     5106.952     3014.215     1356.476        1.298        0.474      128.374       27.964        0.047      341.098       15.577      861.029
09/29/2013  08:07:00       28.746       72.802       23.638      100.577       69.034       56.348    10115.760     4765.634     3175.098        1.237        0.903       78.272       52.670        0.453      341.454       16.177      860.656
09/29/2013  08:08:00      -71.437      -34.766       13.810       55.826       76.907       32.537     3116.565     5914.746     1058.646        0.829        0.504       79.448       25.781        0.105      341.565       16.365      860.558
09/29/2013  08:09:00      -78.593      -63.229       17.353       81.221       85.615       45.457     6596.930     7329.982     2066.298        1.323        0.800      100.870       46.861        0.216      341.416       16.113      860.801
09/29/2013  08:10:00       20.673      -57.169        0.962       58.401       61.022       42.872     3410.638     3723.661     1838.028        0.633        0.449       60.792       34.192        0.316      341.132       15.633      860.828
09/29/2013  08:11:00       24.501       18.088       35.043       48.334       36.438       35.164     2336.201     1327.742     1236.520        0.353        0.245       30.454       21.297        0.489      340.778       15.034      860.807
09/29/2013  08:12:00       53.146      -43.025       22.930       53.406       55.532       27.723     2852.187     3083.809      768.583        0.595        0.335       68.379       28.918        0.179      340.889       15.221      860.821
09/29/2013  08:13:00      -52.840      -21.507       25.365       69.106       44.854       37.451     4775.596     2011.838     1402.544        0.604        0.409       57.050       41.773        0.536      341.212       15.768      860.905
09/29/2013  08:14:00     -108.643      -24.477        4.019       55.800       40.320       22.973     3113.585     1625.679      527.777        0.884        0.263      111.366       24.770        0.049      341.273       15.870      860.979
09/29/2013  08:15:00      -83.161      -66.954        2.944       81.055       49.858       32.987     6569.897     2485.799     1088.125        1.077        0.507      106.764       22.873        0.046      341.348       15.999      860.929
09/29/2013  08:16:00      -81.782      -18.992        0.380       71.806       45.149       28.087     5156.146     2038.439      788.894        0.751        0.399       83.959       26.980        0.103      341.264       15.855      860.834
09/29/2013  08:17:00      -93.225      -37.491       -1.031       68.623       51.563       25.984     4709.074     2658.750      675.194        0.907        0.402      100.481       25.143        0.063      341.244       15.822      860.749
09/29/2013  08:18:00      -84.562      -73.027        6.013       55.575       39.998       26.882     3088.611     1599.816      722.619        0.896        0.271      111.730       29.675        0.071      341.414       16.109      860.706
09/29/2013  08:19:00     -143.305     -136.499       -1.756      100.112       73.006       38.462    10022.375     5329.931     1479.338        2.800        0.842      197.909       45.786        0.054      341.391       16.069      860.763
09/29/2013  08:20:00     -278.481      -77.339        5.841      162.095      102.035       59.224    26274.935    10411.058     3507.488        6.187        2.010      289.021       68.803        0.057      341.469       16.201      860.688
09/29/2013  08:21:00     -230.916      -94.477       -8.303      134.007       98.936       63.121    17957.974     9788.361     3984.301        4.702        1.587      249.496       49.705        0.040      341.525       16.294      860.654
09/29/2013  08:22:00     -176.925      -87.176        5.321      113.487       77.571       53.509    12879.376     6017.274     2863.167        3.034        1.088      197.236       59.884        0.092      341.519       16.285      860.584
09/29/2013  08:23:00      -53.334     -115.935       -5.626       74.042       48.899       40.885     5482.179     2391.132     1671.560        1.293        0.477      127.614       26.942        0.045      341.542       16.326      860.557
09/29/2013  08:24:00     -137.774      -97.859      -31.072      132.200       97.858       52.268    17476.951     9576.163     2731.903        2.965        1.489      168.992       35.039        0.043      341.610       16.440      860.473
09/29/2013  08:25:00       66.876     -177.474       22.293      123.467      174.732       63.980    15244.125    30531.222     4093.416        4.316        2.493      189.657       59.796        0.099      341.647       16.504      860.612
09/29/2013  08:26:00      111.067     -199.774       29.432      110.664      160.645       80.808    12246.434    25806.727     6529.937        4.884        2.229      228.573       86.006        0.142      341.654       16.515      860.604
09/29/2013  08:27:00       10.906      -83.960       37.953      154.669      114.923       75.624    23922.354    13207.404     5718.942        2.572        2.142       84.665       70.881        0.701      341.585       16.396      860.503
09/29/2013  08:28:00     -217.543     -136.124       -4.020      100.626       84.567       51.323    10125.520     7151.553     2634.071        4.289        0.996      256.622       43.771        0.029      341.586       16.397      860.581
09/29/2013  08:29:00     -335.814      -89.169       -0.910      196.548      127.241       79.012    38631.243    16190.308     6242.828        9.088        3.053      347.451       82.664        0.057      341.612       16.443      860.721
09/29/2013  08:30:00     -293.857     -121.749        9.743      140.857      151.043       73.668    19840.792    22814.132     5426.903        7.467        2.404      318.080       64.872        0.042      341.581       16.389      860.788
09/29/2013  08:31:00     -248.247     -180.367       -4.432      120.763      104.502       47.199    14583.603    10920.595     2227.737        6.095        1.387      306.853       43.118        0.020      341.565       16.361      860.697
09/29/2013  08:32:00     -203.009     -209.576      -15.683      117.766       91.069       58.664    13868.786     8293.636     3441.442        5.549        1.280      291.779       61.824        0.045      341.581       16.390      860.695
09/29/2013  08:33:00     -216.882     -171.694        4.563       99.205      118.975       55.912     9841.692    14155.020     3126.183        5.182        1.356      276.617       61.913        0.050      341.546       16.330      860.771
09/29/2013  08:34:00     -196.600     -142.521       -5.393       92.225       91.882       48.020     8505.371     8442.341     2305.941        3.912        0.963      242.825       43.985        0.033      341.539       16.318      860.821
09/29/2013  08:35:00     -112.346      -57.827        4.064       76.545       69.278       42.005     5859.122     4799.467     1764.461        1.420        0.621      126.355       40.594        0.103      341.525       16.295      860.774
09/29/2013  08:36:00     -160.971     -104.993       16.079      129.560       89.108       56.857    16785.714     7940.149     3232.748        3.257        1.398      192.185       61.016        0.101      341.530       16.304      860.758
09/29/2013  08:37:00     -240.036     -193.312        9.653      125.653      100.990       64.670    15788.796    10198.919     4182.173        6.262        1.508      308.199       70.682        0.053      341.525       16.295      860.776
09/29/2013  08:38:00     -171.631      -93.743       10.954      109.504       97.030       50.843    11991.149     9414.776     2585.050        3.117        1.200      195.563       50.448        0.067      341.541       16.322      860.782
09/29/2013  08:39:00     -226.629      -96.317       -3.136      133.762       84.217       57.298    17892.198     7092.566     3283.068        4.445        1.413      246.247       66.817        0.074      341.538       16.317      860.849
09/29/2013  08:40:00     -233.677     -148.662        1.892      161.006      123.238       77.327    25923.084    15187.690     5979.438        6.189        2.355      276.957       95.253        0.118      341.559       16.354      860.916
09/29/2013  08:41:00     -227.592      -87.033        8.254      124.105       87.990       60.386    15402.157     7742.192     3646.436        4.311        1.340      243.665       65.385        0.072      341.566       16.365      860.941
09/29/2013  08:42:00      -94.960     -110.560       21.810      106.291       71.468       54.114    11297.811     5107.672     2928.294        2.052        0.967      145.743       53.111        0.133      341.615       16.449      860.874
09/29/2013  08:43:00     -138.992      -46.981       11.316      115.400       67.166       45.802    13317.069     4511.286     2097.856        2.079        0.996      146.718       57.071        0.151      341.641       16.494      860.839
09/29/2013  08:44:00     -200.642     -174.117       10.703      153.698      109.871       53.255    23623.188    12071.529     2836.078        5.460        1.927      265.657       68.637        0.067      341.657       16.518      860.945
09/29/2013  08:45:00     -187.939     -144.846       -3.261      127.053      102.565       54.903    16142.574    10519.626     3014.325        4.299        1.484      237.279       51.334        0.047      341.659       16.524      860.990
09/29/2013  08:46:00     -124.408     -144.236        3.420       91.572      114.382       48.028     8385.450    13083.150     2306.722        3.003        1.189      190.476       51.294        0.073      341.689       16.575      860.960
09/29/2013  08:47:00     -211.935     -153.602       -0.965       93.263       88.575       44.299     8697.991     7845.469     1962.365        4.350        0.925      261.744       49.138        0.035      341.666       16.535      860.986
09/29/2013  08:48:00     -276.113     -159.308       -5.418       99.333       72.843       41.894     9867.032     5306.042     1755.101        5.928        0.846      318.775       38.715        0.015      341.698       16.588      861.065
09/29/2013  08:49:00     -368.343      -56.313       -3.606      148.899      135.395       74.175    22171.029    18331.933     5501.894        9.242        2.300      372.623       77.778        0.044      341.758       16.690      861.094
09/29/2013  08:50:00     -208.612      -60.776        2.537      155.717       87.517       61.219    24247.739     7659.302     3747.739        4.143        1.783      217.285       67.925        0.098      341.792       16.748      860.954
09/29/2013  08:51:00     -258.717     -149.165      -12.450      101.144      100.612       56.714    10230.183    10122.785     3216.521        5.645        1.178      298.638       54.370        0.033      341.783       16.732      860.990
09/29/2013  08:52:00     -317.564      -96.883       -7.136      104.475       89.223       52.191    10914.994     7960.811     2723.860        6.594        1.080      332.013       52.746        0.025      341.808       16.774      861.141
09/29/2013  08:53:00     -306.621       -4.416       -9.660      156.938      104.454       71.988    24629.406    10910.561     5182.332        6.742        2.036      306.653       81.062        0.070      341.797       16.755      861.141
09/29/2013  08:54:00     -336.403      -66.508      -22.384      207.461       91.668       69.907    43040.035     8402.996     4886.963        8.720        2.816      342.914       82.246        0.058      341.807       16.772      861.035
09/29/2013  08:55:00     -222.162      -84.976      -11.374      121.136       93.035       52.752    14674.030     8655.540     2782.816        4.140        1.306      237.859       52.188        0.048      341.804       16.767      860.967
09/29/2013  08:56:00     -199.649     -124.489       -1.589       78.223       97.067       46.351     6118.833     9421.999     2148.425        3.652        0.884      235.282       43.548        0.034      341.803       16.767      860.943
09/29/2013  08:57:00      -66.597     -170.318       -3.774       80.691       81.970       41.975     6511.052     6719.078     1761.925        2.422        0.750      182.876       34.713        0.036      341.931       16.984      860.885
09/29/2013  08:58:00      -34.557     -141.905      -16.875       80.513       60.961       44.989     6482.269     3716.212     2023.973        1.692        0.611      146.052       37.664        0.067      341.999       17.101      861.022
09/29/2013  08:59:00     -145.324     -123.098       -3.554      114.696      118.476       45.539    13155.088    14036.508     2073.829        3.277        1.463      190.452       60.488        0.101      342.042       17.173      861.131
09/29/2013  09:00:00     -132.458     -141.371        3.825       78.701       94.453       39.208     6193.918     8921.407     1537.251        2.710        0.833      193.729       34.501        0.032      341.967       17.047      861.120
09/29/2013  09:01:00     -179.776      -94.774        8.912       75.220       73.160       38.431     5658.068     5352.398     1476.948        2.693        0.624      203.228       34.806        0.029      341.977       17.062      861.086
09/29/2013  09:02:00     -153.424     -101.614        3.948       79.460       74.836       39.196     6313.853     5600.445     1536.359        2.366        0.673      184.023       43.636        0.056      342.031       17.155      861.043
09/29/2013  09:03:00     -214.293      -53.171      -13.621      103.769       94.000       58.645    10767.976     8836.090     3439.242        3.598        1.152      220.791       54.473        0.061      341.970       17.050      860.957
09/29/2013  09:04:00     -177.137      -44.368      -11.335       68.840       69.100       39.530     4738.966     4774.834     1562.604        2.227        0.554      182.609       16.677        0.008      341.990       17.084      860.883
09/29/2013  09:05:00     -123.020      -88.249        9.908       90.857       90.200       40.672     8255.053     8136.124     1654.205        2.053        0.902      151.399       39.214        0.067      342.055       17.196      860.956
09/29/2013  09:06:00     -163.492     -163.690        3.926       93.544       92.449       55.322     8750.536     8546.861     3060.470        3.694        1.018      231.352       50.563        0.048      342.037       17.165      860.964
09/29/2013  09:07:00      -78.070      -83.929       16.703       52.933       45.033       34.162     2801.950     2027.995     1167.065        0.971        0.300      114.625       27.108        0.056      342.064       17.213      860.845
09/29/2013  09:08:00     -102.618     -198.166       -8.408       83.447      106.395       48.552     6963.389    11319.914     2357.304        3.525        1.032      223.159       52.019        0.054      342.076       17.231      860.852
09/29/2013  09:09:00      -88.153     -245.802       -0.811       51.831       81.774       41.202     2686.417     6686.963     1697.614        3.963        0.554      261.132       30.717        0.014      342.026       17.144      860.929
09/29/2013  09:10:00     -252.099      -94.827       -5.951      118.612       79.893       56.335    14068.911     6382.897     3173.624        4.810        1.181      269.344       53.961        0.040      342.099       17.269      860.967
09/29/2013  09:11:00     -136.657      -73.667        8.730       93.288       88.431       39.772     8702.587     7820.028     1581.787        2.114        0.905      155.248       44.518        0.082      342.128       17.319      860.929
09/29/2013  09:12:00     -164.959     -191.631      -14.791       61.902       95.931       46.805     3831.886     9202.779     2190.751        3.969        0.761      252.852       39.671        0.025      342.120       17.304      860.961
09/29/2013  09:13:00     -263.664     -146.727       -9.000      119.717      108.818       46.126    14332.077    11841.331     2127.585        5.971        1.415      301.741       38.580        0.016      342.134       17.328      860.995
09/29/2013  09:14:00     -172.492       54.390      -11.157       94.355       57.803       38.206     8902.909     3341.146     1459.716        2.327        0.685      180.864       29.346        0.026      342.190       17.425      860.936
09/29/2013  09:15:00     -233.837     -135.779       14.110      131.363      131.102       63.940    17256.125    17187.757     4088.348        5.592        1.927      270.399       65.500        0.059      342.108       17.284      860.731
09/29/2013  09:16:00     -187.974      -74.409       -9.939       89.392       64.322       44.236     7990.928     4137.277     1956.848        2.752        0.704      202.166       41.779        0.043      342.118       17.297      860.763
09/29/2013  09:17:00     -200.593       43.872       -2.361       89.133       70.768       44.582     7944.775     5008.057     1987.585        2.855        0.747      205.334       36.508        0.032      342.112       17.290      860.739
09/29/2013  09:18:00     -234.997     -130.294       -8.835       78.205       74.000       50.900     6115.973     5475.952     2590.771        4.323        0.709      268.701       48.059        0.032      342.128       17.318      860.719
09/29/2013  09:19:00     -308.104     -129.446       -8.562      124.994       69.911       48.583    15623.610     4887.587     2360.316        6.731        1.144      334.192       36.654        0.012      342.098       17.266      860.757
09/29/2013  09:20:00     -353.592      -46.314       -5.597      127.098      106.493       64.237    16153.972    11340.710     4126.436        7.941        1.581      356.612       69.309        0.038      342.094       17.259      860.843
09/29/2013  09:21:00     -298.222       10.789      -16.561      102.028       81.437       44.625    10409.766     6632.039     1991.395        5.418        0.952      298.417       37.945        0.016      342.072       17.223      860.779
09/29/2013  09:22:00     -205.129      -43.893      -15.895       90.751       60.765       35.238     8235.667     3692.380     1241.749        2.871        0.658      209.773       39.604        0.036      342.143       17.344      860.707
09/29/2013  09:23:00     -160.651      -58.854       -6.727       82.885       65.420       43.073     6869.947     4279.714     1855.254        2.116        0.650      171.093       38.926        0.052      342.239       17.508      860.662
09/29/2013  09:24:00     -245.307     -122.814        6.530      113.274       87.137       52.283    12830.949     7592.869     2733.540        4.922        1.158      274.333       60.673        0.049      342.186       17.417      860.758
09/29/2013  09:25:00     -181.210     -169.361        1.847      132.882       97.789       70.454    17657.731     9562.595     4963.804        4.685        1.609      248.033       79.938        0.104      342.217       17.470      860.795
09/29/2013  09:26:00     -280.137     -142.828      -24.030      165.695      106.261       55.785    27454.682    11291.386     3111.958        7.065        2.093      314.447       46.004        0.021      342.237       17.503      860.702
09/29/2013  09:27:00     -292.469      -21.226        0.135      194.921       98.147       67.404    37994.054     9632.869     4543.256        6.907        2.609      293.238       92.721        0.100      342.310       17.627      860.678
09/29/2013  09:28:00     -307.690     -121.356       -9.968      133.847      156.445       58.472    17914.901    24475.064     3419.027        7.765        2.290      330.757       52.681        0.025      342.199       17.437      860.763
09/29/2013  09:29:00     -170.939     -165.485       -8.026      117.747       89.195       56.049    13864.469     7955.751     3141.450        4.081        1.248      237.919       48.127        0.041      342.222       17.479      860.833
09/29/2013  09:30:00     -145.071     -254.294       -9.286      142.163      103.377       49.685    20210.257    10686.726     2468.598        5.957        1.668      292.765       36.444        0.015      342.244       17.515      860.817
09/29/2013  09:31:00     -229.669     -262.836       -0.772      134.515      206.085       62.661    18094.167    42470.971     3926.390        9.315        3.225      349.042       82.872        0.056      342.311       17.629      860.754
09/29/2013  09:32:00      -87.188     -134.984       11.267       99.408       95.974       52.259     9881.996     9211.051     2730.956        2.388        1.091      160.693       49.191        0.094      342.328       17.660      860.671
09/29/2013  09:33:00     -146.850      -80.260       23.868      116.621       78.577       47.267    13600.557     6174.387     2234.160        2.529        1.100      167.352       52.960        0.100      342.344       17.687      860.793
09/29/2013  09:34:00     -117.527     -153.180       -5.977       86.039       87.296       42.180     7402.710     7620.649     1779.162        2.705        0.840      193.072       39.476        0.042      342.419       17.813      860.894
09/29/2013  09:35:00      -49.106      -68.562       19.819       86.463       46.767       36.496     7475.811     2187.149     1331.958        0.925        0.550       84.334       29.554        0.123      342.469       17.900      860.733
09/29/2013  09:36:00      -98.628      -21.388        8.049       63.069       72.682       37.986     3977.658     5282.667     1442.938        1.047        0.535      100.920       36.023        0.127      342.439       17.850      860.661
09/29/2013  09:37:00     -241.473      -44.719       -4.452       94.388       82.852       43.351     8909.188     6864.487     1879.341        3.899        0.883      245.579       42.056        0.029      342.381       17.747      860.849
09/29/2013  09:38:00     -306.692     -106.458       -9.034      134.497       88.759       49.022    18089.449     7878.164     2403.151        6.692        1.419      324.643       37.115        0.013      342.349       17.694      860.977
09/29/2013  09:39:00     -201.635     -107.078        5.609      111.168      123.366       61.331    12358.424    15219.124     3761.481        4.174        1.567      228.303       53.309        0.055      342.341       17.679      860.924
09/29/2013  09:40:00     -156.719      -77.877       20.468      121.860      119.711       57.511    14849.874    14330.652     3307.510        3.176        1.624      175.002       59.119        0.114      342.374       17.736      860.877
09/29/2013  09:41:00     -134.984      -59.714       10.536      110.798       99.799       51.670    12276.202     9959.834     2669.801        2.340        1.245      147.603       52.195        0.125      342.391       17.766      860.959
09/29/2013  09:42:00      -11.425       -4.788       -6.772       65.892       57.143       31.923     4341.726     3265.354     1019.054        0.441        0.431       12.388       32.502        6.884      342.485       17.929      860.777
09/29/2013  09:43:00      -55.273      -18.857        6.544       68.260       50.681       30.878     4659.490     2568.576      953.452        0.582        0.409       58.401       38.935        0.444      342.488       17.933      860.635
09/29/2013  09:44:00     -199.655     -105.645       -2.697       81.158       78.921       47.038     6586.652     6228.493     2212.583        3.303        0.751      225.883       38.328        0.029      342.435       17.839      860.850
09/29/2013  09:45:00     -184.677      -79.824        7.523      138.397       92.618       57.833    19153.684     8578.117     3344.634        3.580        1.554      201.191       75.564        0.141      342.471       17.903      860.813
09/29/2013  09:46:00     -311.894     -172.452      -19.748      169.092      100.563       59.434    28591.944    10112.953     3532.362        8.481        2.112      356.396       64.888        0.033      342.383       17.752      860.667
09/29/2013  09:47:00     -392.631     -110.508        9.343      216.199      147.507       67.314    46741.838    21758.429     4531.144       11.973        3.652      407.886       79.305        0.038      342.404       17.787      860.725
09/29/2013  09:48:00     -346.461     -115.059      -12.543      135.185      104.963       66.882    18274.997    11017.242     4473.173        8.359        1.688      365.067       68.528        0.035      342.399       17.777      860.843
09/29/2013  09:49:00     -101.155     -100.951       19.905       93.293       96.110       51.107     8703.582     9237.102     2611.968        2.068        1.028      142.911       43.492        0.093      342.504       17.957      860.860
09/29/2013  09:50:00     -176.732     -141.598       11.873      134.656       99.647       57.913    18132.325     9929.593     3353.949        4.141        1.571      226.460       67.489        0.089      342.504       17.957      860.779
09/29/2013  09:51:00     -248.474      -64.528        3.265      116.085      106.221       52.311    13475.646    11282.960     2736.449        4.670        1.375      256.717       50.423        0.039      342.521       17.985      860.782
09/29/2013  09:52:00     -480.042     -220.640      -12.750      194.059      165.689       84.057    37658.728    27452.704     7065.525       17.572        3.609      528.320       77.170        0.021      342.503       17.954      860.935
09/29/2013  09:53:00     -473.668     -174.246      -22.992      195.758      192.167       94.841    38321.332    36928.133     8994.830       16.973        4.212      504.701       87.255        0.030      342.434       17.838      860.875
09/29/2013  09:54:00     -419.525     -179.053        5.104      191.517      128.952       83.030    36678.729    16628.598     6894.054       13.413        3.010      456.137       89.236        0.038      342.491       17.936      860.851
09/29/2013  09:55:00     -182.185     -226.996        6.662      143.139      152.487       59.949    20488.681    23252.168     3593.912        6.604        2.367      291.064       50.245        0.030      342.511       17.969      860.831
09/29/2013  09:56:00     -361.524     -184.936        8.940      200.631      114.031       75.864    40252.679    13003.004     5755.313       11.198        2.951      406.080       81.520        0.040      342.553       18.041      860.864
09/29/2013  09:57:00     -319.712     -195.963      -17.888      142.557      163.878       81.133    20322.367    26855.839     6582.499        9.734        2.688      374.989       70.574        0.035      342.584       18.093      860.914
09/29/2013  09:58:00     -334.065     -188.834       -6.593      146.462      140.731       70.241    21451.248    19805.206     4933.837        9.674        2.310      383.742       76.524        0.040      342.602       18.123      860.904
09/29/2013  09:59:00     -278.172     -198.428       -2.168      172.474      136.472       77.583    29747.415    18624.583     6019.100        8.556        2.720      341.692       80.011        0.055      342.579       18.084      860.903
09/29/2013  10:00:00     -310.833     -162.566        3.675      158.442      133.762       67.931    25103.800    17892.375     4614.665        8.532        2.381      350.777       73.831        0.044      342.663       18.228      860.884
09/29/2013  10:01:00     -341.496     -125.390       -6.177      176.389      112.623       68.033    31113.129    12684.023     4628.426        9.039        2.421      363.789       78.147        0.046      342.687       18.268      860.950
09/29/2013  10:02:00     -270.574     -192.971        7.244      145.051      129.953       71.848    21039.856    16887.829     5162.094        7.679        2.154      332.338       72.993        0.048      342.757       18.388      860.984
09/29/2013  10:03:00     -175.072     -159.024        1.336      120.452       86.948       52.863    14508.571     7559.868     2794.490        4.040        1.243      236.514       55.146        0.054      342.855       18.553      861.006
09/29/2013  10:04:00     -304.653     -176.769       -5.011      167.338      108.749       59.553    28002.066    11826.286     3546.546        8.372        2.169      352.222       61.575        0.031      342.687       18.268      860.946
09/29/2013  10:05:00     -149.590      -52.803       12.999      176.964      139.483       77.451    31316.112    19455.371     5998.695        4.104        2.839      158.636       87.377        0.303      342.837       18.524      860.956
09/29/2013  10:06:00     -468.682     -245.497      -24.965      240.224      167.891       84.921    57707.662    28187.382     7211.550       18.681        4.655      529.086       81.500        0.024      342.580       18.087      860.926
09/29/2013  10:07:00     -334.125      -93.624       -7.387      204.996      155.251       84.000    42023.428    24102.782     7056.032        9.681        3.659      346.995       91.278        0.069      342.659       18.219      860.923
09/29/2013  10:08:00     -362.617     -127.440      -19.725      200.701      132.707       68.008    40280.841    17611.024     4625.125       10.531        3.126      384.360       75.834        0.039      342.622       18.157      860.898
09/29/2013  10:09:00     -196.886     -242.728       28.912      207.661      184.562       90.381    43123.251    34062.995     8168.786        9.192        4.268      312.540      105.001        0.113      342.609       18.137      860.935
09/29/2013  10:10:00     -448.547     -321.788      -25.154      295.522      211.692      125.161    87333.532    44813.590    15665.207       22.656        7.391      552.035      140.827        0.065      342.616       18.147      860.982
09/29/2013  10:11:00     -387.792     -238.682       -1.917      197.540      160.719       92.348    39021.905    25830.742     8528.222       14.035        3.669      455.359       90.924        0.040      342.700       18.291      861.094
09/29/2013  10:12:00     -375.855     -118.280       -5.704      268.204      194.241      104.107    71933.516    37729.375    10838.164       13.787        6.025      394.027      146.125        0.138      342.725       18.333      861.088
09/29/2013  10:13:00     -394.344     -255.116       -4.013      185.079      170.005       83.524    34254.215    28901.816     6976.305       14.536        3.507      469.671       83.132        0.031      342.642       18.191      860.953
09/29/2013  10:14:00     -442.237     -181.332       -6.233      240.659      159.518       81.676    57916.558    25446.151     6671.025       15.925        4.502      477.969       97.290        0.041      342.769       18.408      860.963
09/29/2013  10:15:00     -398.577     -100.322        3.690      245.905      164.537       92.886    60469.222    27072.320     8627.826       13.254        4.808      411.008       94.400        0.053      342.755       18.384      861.036
09/29/2013  10:16:00     -549.067     -383.480        1.969      312.974      223.339      129.298    97952.424    49880.141    16717.948       30.651        8.228      669.725      161.959        0.058      342.720       18.324      861.016
09/29/2013  10:17:00     -324.356     -372.817      -23.261      286.691      207.666       96.111    82191.772    43124.998     9237.247       18.962        6.728      494.166      106.685        0.047      342.790       18.443      861.036
09/29/2013  10:18:00     -334.518     -358.109      -19.193      224.281      221.394      106.152    50302.123    49015.354    11268.185       17.553        5.529      490.046      120.316        0.060      342.778       18.422      861.090
09/29/2013  10:19:00     -294.038     -200.223       -2.639      162.702      111.402       83.832    26471.990    12410.317     7027.836        8.622        2.296      355.735       74.667        0.044      342.846       18.538      861.049
09/29/2013  10:20:00     -348.778     -257.400      -14.062      213.375      166.263       78.534    45529.089    27643.232     6167.520       13.370        3.967      433.476       79.082        0.033      342.823       18.501      861.037
09/29/2013  10:21:00     -369.589     -291.709        6.876      245.923      192.683      106.737    60478.207    37126.814    11392.714       16.535        5.450      470.840      122.159        0.067      342.780       18.425      861.042
09/29/2013  10:22:00     -481.654     -325.332       -6.185      271.615      216.535      117.293    73774.829    46887.554    13757.736       23.612        6.721      581.233      136.243        0.055      342.746       18.369      861.082
09/29/2013  10:23:00     -301.167     -250.222       18.982      235.084      162.827      106.061    55264.612    26512.639    11248.938       12.333        4.651      391.551      128.496        0.108      342.874       18.585      860.987
09/29/2013  10:24:00     -446.417     -300.876       -8.444      270.946      183.453      114.578    73411.481    33654.846    13128.088       20.502        6.010      538.344      119.092        0.049      342.821       18.496      861.050
09/29/2013  10:25:00     -463.922     -247.089      -12.271      305.295      238.426      124.783    93204.938    56846.792    15570.780       22.099        8.281      525.620      157.470        0.090      342.859       18.560      861.089
09/29/2013  10:26:00     -408.896     -194.988       15.343      353.628      250.211      116.059   125052.589    62605.511    13469.695       20.325       10.056      453.008      151.065        0.111      342.881       18.599      860.978
09/29/2013  10:27:00     -625.439     -145.403        0.124      243.792      204.188      102.962    59434.564    41692.643    10601.090       26.200        5.586      642.118      106.582        0.028      342.905       18.638      860.965
09/29/2013  10:28:00     -292.528     -130.658       -1.257      204.043      187.362       89.989    41633.539    35104.429     8098.077        9.372        4.242      320.381       91.669        0.082      342.978       18.764      861.063
09/29/2013  10:29:00     -300.723     -160.736       12.678      217.941      225.552       97.830    47498.191    50873.679     9570.669       11.217        5.397      340.985       88.998        0.068      343.032       18.856      861.096
09/29/2013  10:30:00     -400.535     -193.464      -11.603      208.246      143.908       84.007    43366.475    20709.484     7057.109       13.455        3.557      444.811      101.262        0.052      343.019       18.832      861.041
09/29/2013  10:31:00     -610.163     -383.655      -16.730      291.664      212.999      123.161    85068.144    45368.378    15168.656       33.266        7.280      720.757      120.670        0.028      342.875       18.588      860.966
09/29/2013  10:32:00     -483.569     -333.266      -26.421      257.320      237.745      100.556    66213.709    56522.721    10111.459       23.920        6.642      587.287      121.156        0.043      342.811       18.478      861.074
09/29/2013  10:33:00     -505.921     -239.637       -8.233      240.155      199.754      103.695    57674.475    39901.575    10752.716       21.087        5.416      559.806      107.214        0.037      342.887       18.607      861.059
09/29/2013  10:34:00     -219.668     -146.917       28.164      278.388      236.505      109.876    77500.050    55934.795    12072.784       10.804        7.275      264.270      138.295        0.274      343.059       18.902      861.062
09/29/2013  10:35:00     -344.393     -246.510      -12.630      217.260      137.393      100.627    47201.768    18876.887    10125.831       12.785        3.810      423.525      104.106        0.060      342.988       18.780      861.054
09/29/2013  10:36:00     -370.443     -121.418        7.042      260.305      210.110      110.416    67758.926    44146.377    12191.624       13.803        6.205      389.833      128.138        0.108      343.088       18.949      861.044
09/29/2013  10:37:00     -489.761      -91.754       -7.436      325.252      234.989      132.527   105788.740    55219.787    17563.306       21.342        8.929      498.282      153.615        0.095      343.052       18.889      861.038
09/29/2013  10:38:00     -560.170     -256.842      -17.834      375.170      239.097      141.783   140752.432    57167.495    20102.560       29.901       10.901      616.246      158.577        0.066      342.807       18.471      861.030
09/29/2013  10:39:00     -444.913     -289.060       -2.388      272.798      187.665      118.434    74418.655    35218.143    14026.554       20.256        6.183      530.569      119.487        0.051      342.922       18.667      861.071
09/29/2013  10:40:00     -330.007      -97.957        8.810      258.651      210.470      123.784    66900.113    44297.559    15322.553       12.252        6.326      344.239      134.298        0.152      343.028       18.848      861.085
09/29/2013  10:41:00     -572.156     -268.591      -21.820      338.955      247.155      115.167   114890.451    61085.785    13263.461       29.457        9.462      632.063      153.157        0.059      342.962       18.736      861.014
09/29/2013  10:42:00     -397.869     -294.010        5.246      254.182      208.969      128.824    64608.653    43668.024    16595.524       18.480        6.244      494.714      144.622        0.085      343.076       18.930      861.122
09/29/2013  10:43:00     -379.928     -235.204        5.728      242.376      181.425       90.072    58746.001    32914.868     8112.901       14.972        4.989      446.840      128.871        0.083      343.077       18.933      861.090
09/29/2013  10:44:00     -322.602     -175.306        9.794      203.762      211.260       91.506    41518.868    44630.960     8373.436       11.469        4.726      367.157      102.181        0.077      343.127       19.017      861.081
09/29/2013  10:45:00     -298.881     -323.147        7.278      234.248      253.907      118.808    54872.201    64468.707    14115.381       16.360        6.673      440.175      117.758        0.072      343.136       19.033      861.011
09/29/2013  10:46:00     -542.241     -334.030      -28.349      299.768      193.593      124.570    89860.669    37478.289    15517.683       27.460        7.143      636.868      149.653        0.055      342.854       18.550      860.949
09/29/2013  10:47:00     -583.506     -200.686      -23.422      243.366      197.353      113.003    59227.162    38948.393    12769.782       24.610        5.547      617.053      130.628        0.045      342.895       18.622      861.003
09/29/2013  10:48:00     -669.042     -249.595      -17.521      373.699      258.331      139.562   139651.302    66734.906    19477.468       36.800       11.293      714.083      167.393        0.055      342.803       18.464      860.902
09/29/2013  10:49:00     -464.747     -298.276        1.169      275.792      252.060      126.469    76061.160    63534.257    15994.373       23.024        7.779      552.230      149.337        0.073      342.897       18.626      860.860
09/29/2013  10:50:00     -302.158     -259.573        5.375      225.336      170.678      109.276    50776.400    29130.989    11941.178       12.526        4.592      398.344      120.963        0.092      343.035       18.858      860.875
09/29/2013  10:51:00     -370.243     -309.986       -4.413      257.793      315.163      116.297    66457.328    99327.924    13524.930       20.621        8.966      482.878      121.256        0.063      343.068       18.916      860.831
09/29/2013  10:52:00     -412.890     -311.473       12.322      318.998      230.576      123.991   101759.548    53165.105    15373.693       21.894        8.515      517.198      137.341        0.071      342.861       18.564      860.799
09/29/2013  10:53:00     -536.056     -427.069       -4.157      321.415      283.632      123.144   103307.449    80447.309    15164.449       33.430        9.946      685.378      117.640        0.029      342.789       18.441      860.789
09/29/2013  10:54:00     -426.410     -246.224      -15.300      271.361      217.653      121.231    73636.753    47372.923    14696.841       18.917        6.785      492.394      140.534        0.081      342.995       18.791      860.805
09/29/2013  10:55:00     -398.820     -136.013       16.558      272.700      256.499      136.686    74365.052    65791.597    18683.185       16.830        7.942      421.375      136.234        0.105      343.048       18.882      860.815
09/29/2013  10:56:00     -517.527     -210.168      -10.298      294.830      280.507      130.968    86924.830    78684.435    17152.716       24.740        9.138      558.574      146.139        0.068      342.907       18.642      860.790
09/29/2013  10:57:00     -567.610     -468.476      -35.241      298.915      230.639      135.855    89349.933    53194.414    18456.516       35.191        8.050      735.969      154.664        0.044      342.802       18.464      860.741
09/29/2013  10:58:00     -408.529     -255.783       25.365      337.932      288.938      152.581   114197.762    83485.324    23280.920       22.692       11.048      481.996      167.326        0.121      342.919       18.663      860.759
09/29/2013  10:59:00     -502.570     -424.725      -22.475      298.896      234.605      139.474    89338.647    55039.402    19452.928       29.862        8.192      658.003      150.628        0.052      342.802       18.463      860.823
09/29/2013  11:00:00     -743.223     -403.808      -43.347      323.048      291.855      133.134   104360.091    85179.375    17724.762       46.225       10.363      845.838      128.444        0.023      342.872       18.582      860.756
09/29/2013  11:01:00     -542.140     -300.255      -14.008      247.071      197.884      101.002    61044.171    39158.209    10201.417       24.731        5.520      619.733      103.336        0.028      343.016       18.828      860.782
09/29/2013  11:02:00     -534.636     -264.365       -4.250      256.078      191.304      110.601    65575.875    36597.127    12232.563       23.505        5.720      596.427      111.404        0.035      343.024       18.841      860.764
09/29/2013  11:03:00     -508.859     -256.990      -11.686      234.719      193.318      110.706    55092.789    37371.970    12255.810       21.490        5.236      570.071      105.073        0.034      343.075       18.927      860.805
09/29/2013  11:04:00     -666.292     -376.962      -20.071      345.521      265.162      134.264   119384.766    70311.125    18026.848       39.704       10.386      765.536      158.434        0.043      342.925       18.672      860.845
09/29/2013  11:05:00     -538.562     -285.129      -14.341      273.195      201.343      127.975    74635.449    40538.921    16377.707       25.153        6.578      609.383      126.679        0.043      342.929       18.679      860.859
09/29/2013  11:06:00     -485.848     -235.652      -16.792      293.687      258.063      116.025    86251.807    66596.716    13461.886       22.905        8.316      539.981      139.373        0.067      343.011       18.820      860.774
09/29/2013  11:07:00     -517.633     -352.529      -12.952      365.294      256.969      125.853   133439.441    66033.240    15839.039       30.381       10.766      626.276      173.471        0.077      343.060       18.902      860.703
09/29/2013  11:08:00     -347.146     -167.310       -8.777      188.601      152.988       81.717    35570.513    23405.296     6677.688       10.710        3.283      385.361       85.467        0.049      343.262       19.245      860.727
09/29/2013  11:09:00     -308.055     -129.729        5.492      241.312      165.615      106.137    58231.286    27428.231    11264.958       10.432        4.846      334.257      111.055        0.110      343.384       19.454      860.756
09/29/2013  11:10:00     -391.033     -274.804      -10.745      177.177      159.719       82.844    31391.813    25510.288     6863.188       14.614        3.188      477.937       80.564        0.028      343.321       19.347      860.789
09/29/2013  11:11:00     -449.737     -283.744       18.323      259.010      219.201      116.301    67086.223    48049.162    13526.026       20.586        6.433      531.765      129.189        0.059      343.333       19.368      860.729
09/29/2013  11:12:00     -574.558     -374.055        3.966      327.165      233.945      126.849   107036.945    54730.429    16090.735       32.392        8.893      685.590      156.311        0.052      343.361       19.416      860.698
09/29/2013  11:13:00     -421.927     -286.965      -19.135      220.789      233.636       95.801    48747.564    54585.717     9177.783       18.660        5.626      510.266      100.048        0.038      343.195       19.132      860.753
09/29/2013  11:14:00     -375.387     -342.069       -3.050      236.871      200.712      127.209    56108.090    40285.338    16182.075       18.523        5.629      507.865      147.267        0.084      343.288       19.292      860.743
09/29/2013  11:15:00     -370.857     -235.138      -11.915      303.156      210.640      101.041    91903.429    44369.017    10209.312       16.969        7.324      439.118      134.849        0.094      343.286       19.286      860.713
09/29/2013  11:16:00     -296.247     -172.362        6.751      196.049      173.822       95.796    38435.170    30213.950     9176.785        9.766        3.891      342.740      100.505        0.086      343.282       19.280      860.716
09/29/2013  11:17:00     -432.396     -181.972      -29.328      236.292      175.921      102.353    55833.730    30948.334    10476.045       15.908        4.863      469.127      122.192        0.068      343.191       19.125      860.750
09/29/2013  11:18:00     -398.458     -152.892       -8.780      336.331      163.932      107.398   113118.562    26873.693    11534.232       16.684        7.576      426.785      139.208        0.106      343.269       19.258      860.726
09/29/2013  11:19:00     -343.815     -259.674       25.107      345.300      199.501      145.157   119231.961    39800.614    21070.679       18.315        9.005      430.859      174.933        0.165      343.358       19.410      860.735
09/29/2013  11:20:00     -366.194     -330.850       -0.099      217.395      186.461      119.688    47260.428    34767.750    14325.211       16.994        4.818      493.518      121.821        0.061      343.284       19.284      860.800
09/29/2013  11:21:00     -340.066     -272.462       -4.138      278.984      171.641       89.120    77832.334    29460.637     7942.411       15.254        5.762      435.753      113.690        0.068      343.274       19.269      860.826
09/29/2013  11:22:00     -421.644     -381.888       -9.489      228.307      186.851       93.028    52124.080    34913.318     8654.158       20.968        4.785      568.878       96.750        0.029      343.165       19.080      860.774
09/29/2013  11:23:00     -252.823     -182.691       43.037      284.323      248.774      137.231    80839.463    61888.612    18832.278       13.032        8.078      311.922      164.309        0.277      343.414       19.507      860.697
09/29/2013  11:24:00     -515.658     -324.405      -10.374      306.783      261.995      140.811    94115.991    68641.391    19827.836       27.688        9.129      609.214      178.943        0.086      343.210       19.157      860.741
09/29/2013  11:25:00     -629.993     -177.040      -28.040      318.048      229.629      123.393   101154.325    52729.544    15225.856       29.903        8.455      654.396      149.066        0.052      343.023       18.839      860.726
09/29/2013  11:26:00     -483.004     -287.347       -8.864      305.013      245.767      118.839    93033.197    60401.641    14122.790       24.171        8.378      562.015      144.594        0.066      343.175       19.099      860.687
09/29/2013  11:27:00     -379.935     -300.253      -10.782      302.083      208.277      120.851    91254.288    43379.466    14604.924       19.190        7.462      484.255      146.163        0.091      343.332       19.366      860.700
09/29/2013  11:28:00     -596.588     -242.773      -35.794      264.855      214.684      116.198    70148.305    46089.052    13501.925       27.291        6.487      644.093      127.800        0.039      343.303       19.317      860.678
09/29/2013  11:29:00     -723.924     -217.665      -38.244      328.898      265.345      133.464   108173.704    70408.003    17812.513       38.461        9.820      755.939      132.515        0.031      343.161       19.074      860.694
09/29/2013  11:30:00     -475.927     -241.876       -9.946      293.305      176.325      104.731    86028.031    31090.347    10968.601       20.657        6.404      533.864      114.595        0.046      343.231       19.195      860.741
09/29/2013  11:31:00     -336.652     -246.546        8.766      172.594      142.515       77.626    29788.527    20310.460     6025.870       11.515        2.806      417.276       86.151        0.043      343.476       19.611      860.774
09/29/2013  11:32:00     -414.078     -235.071        7.986      278.285      200.957      111.027    77442.593    40383.539    12327.042       17.844        6.508      476.150      122.175        0.066      343.313       19.333      860.794
09/29/2013  11:33:00     -617.818     -263.715      -15.175      300.678      235.148      106.328    90407.126    55294.521    11305.622       30.421        7.850      671.747      103.920        0.024      343.378       19.443      860.760
09/29/2013  11:34:00     -500.584     -278.052       -7.577      296.781      253.865      114.341    88079.135    64447.185    13073.800       24.674        8.280      572.623      132.338        0.053      343.372       19.434      860.797
09/29/2013  11:35:00     -424.292     -286.275       -5.015      278.704      246.418      110.509    77676.035    60721.716    12212.287       20.628        7.531      511.837      135.165        0.070      343.414       19.505      860.773
09/29/2013  11:36:00     -545.618     -318.292       -9.529      339.282      246.743      127.570   115112.097    60882.168    16274.039       29.565        9.613      631.672      170.195        0.073      343.329       19.361      860.751
09/29/2013  11:37:00     -478.176     -145.501        2.243      294.149      249.484      112.187    86523.639    62242.059    12585.884       20.556        8.068      499.823      119.303        0.057      343.342       19.384      860.692
09/29/2013  11:38:00     -532.063     -344.879      -31.849      251.163      203.503      116.648    63082.818    41413.492    13606.746       26.055        5.905      634.061      108.523        0.029      343.235       19.200      860.759
09/29/2013  11:39:00     -278.258     -178.167       33.505      245.316      192.952       90.018    60179.890    37230.643     8103.161       10.788        5.276      330.410      123.355        0.139      343.543       19.727      860.759
09/29/2013  11:40:00     -576.371     -302.748      -24.542      328.818      249.029      125.239   108121.408    62015.690    15684.864       30.510        9.291      651.045      151.258        0.054      343.396       19.476      860.758
09/29/2013  11:41:00     -488.779     -238.580       -7.044      262.530      247.719      122.239    68922.237    61364.818    14942.326       22.052        7.261      543.898      124.853        0.053      343.484       19.624      860.758
09/29/2013  11:42:00     -429.099     -221.947        5.883      316.782      184.053      108.827   100350.528    33875.673    11843.232       18.972        7.303      483.100      133.094        0.076      343.436       19.544      860.737
09/29/2013  11:43:00     -537.079     -388.487      -21.638      297.072      232.735      127.054    88251.753    54165.786    16142.827       29.917        7.928      662.854      155.404        0.055      343.353       19.400      860.683
09/29/2013  11:44:00     -437.324     -424.483      -30.543      285.267      315.654      107.153    81376.977    99637.717    11481.763       28.239        9.625      609.457      125.881        0.043      343.224       19.181      860.605
09/29/2013  11:45:00     -455.524     -271.650      -14.320      271.185      200.674       97.159    73541.493    40270.128     9439.820       20.235        6.163      530.373      120.081        0.051      343.444       19.556      860.719
09/29/2013  11:46:00     -410.321     -319.106       10.964      281.635      223.738      140.929    79318.288    50058.606    19860.960       20.975        7.462      519.800      150.104        0.083      343.496       19.645      860.662
09/29/2013  11:47:00     -439.883     -209.025      -13.914      256.516      202.918      104.194    65800.638    41175.522    10856.411       17.758        5.892      487.020      120.600        0.061      343.512       19.672      860.669
09/29/2013  11:48:00     -426.175     -230.892       -2.932      252.050      208.202      106.686    63529.227    43348.116    11381.851       17.658        5.913      484.703      121.417        0.063      343.589       19.803      860.722
09/29/2013  11:49:00     -646.323     -324.183      -24.934      381.212      255.960      134.405   145322.485    65515.493    18064.812       37.613       11.445      723.069      168.184        0.054      343.354       19.403      860.698
09/29/2013  11:50:00     -348.474     -390.684      -12.512      230.075      234.659      111.207    52934.316    55064.849    12367.013       19.727        6.018      523.515      126.686        0.059      343.431       19.534      860.753
09/29/2013  11:51:00     -314.294     -166.684       22.930      257.154      245.488       96.835    66128.131    60264.380     9376.937       13.140        6.788      355.759      112.862        0.101      343.704       20.000      860.747
09/29/2013  11:52:00     -220.119     -192.371       21.528      208.812      189.949       94.024    43602.506    36080.791     8840.447        8.721        4.426      292.333       95.259        0.106      343.689       19.974      860.737
09/29/2013  11:53:00     -137.920      -90.863       15.662      160.664       91.875       65.721    25812.935     8441.047     4319.231        3.304        1.929      165.161       71.179        0.186      343.784       20.138      860.737
09/29/2013  11:54:00     -492.977     -272.090      -23.486      321.065      237.353      107.523   103082.699    56336.371    11561.233       24.426        8.549      563.080      102.314        0.033      343.529       19.703      860.775
09/29/2013  11:55:00     -431.460     -356.390      -13.758      222.297      167.812      110.999    49416.115    28161.013    12320.775       20.161        4.495      559.617      114.066        0.042      343.552       19.741      860.761
09/29/2013  11:56:00     -428.513     -236.366      -15.814      224.343      181.528       92.992    50329.603    32952.552     8647.483       16.582        4.596      489.379       97.834        0.040      343.558       19.751      860.711
09/29/2013  11:57:00     -501.769     -238.329      -16.180      264.991      306.028      113.016    70220.379    93653.425    12772.612       24.270        8.832      555.493      107.821        0.038      343.482       19.621      860.706
09/29/2013  11:58:00     -574.648     -375.186      -28.081      281.002      222.073      136.473    78961.919    49316.477    18624.881       30.931        7.345      686.283      136.354        0.039      343.314       19.335      860.706
09/29/2013  11:59:00     -525.901     -329.876       -3.614      295.443      236.035      124.171    87286.663    55712.297    15418.518       27.188        7.921      620.798      149.575        0.058      343.438       19.545      860.723
09/29/2013  12:00:00     -509.145     -229.077      -10.555      238.465      192.998       93.460    56865.759    37248.332     8734.812       20.731        5.142      558.305      110.162        0.039      343.484       19.624      860.757
09/29/2013  12:01:00     -245.021     -155.040       26.757      266.013      218.819      135.134    70763.094    47881.565    18261.093       11.082        6.845      289.953      151.757        0.274      343.476       19.611      860.713
09/29/2013  12:02:00     -361.347     -316.404      -32.299      236.443      167.578       90.829    55905.243    28082.476     8249.958       16.196        4.612      480.295       88.462        0.034      343.542       19.724      860.719
09/29/2013  12:03:00     -390.892     -299.862        0.130      292.380      224.771      116.888    85485.971    50522.156    13662.853       19.616        7.484      492.660      136.891        0.077      343.671       19.944      860.711
09/29/2013  12:04:00     -565.892     -520.808      -17.634      355.948      262.638      127.622   126698.860    68978.646    16287.396       40.183       10.598      769.074      153.815        0.040      343.354       19.404      860.719
09/29/2013  12:05:00     -431.425     -378.855       -8.597      271.595      252.285      133.418    73764.059    63647.838    17800.493       24.244        7.761      574.159      154.682        0.073      343.635       19.883      860.697
09/29/2013  12:06:00     -718.834     -571.780      -25.298      368.898      297.458      170.252   136085.908    88481.027    28985.600       54.887       12.678      918.506      180.983        0.039      343.276       19.269      860.693
09/29/2013  12:07:00     -630.705     -414.586      -16.638      315.252      289.664      162.024    99383.663    83905.119    26251.825       38.970       10.477      754.765      196.070        0.067      343.291       19.295      860.710
09/29/2013  12:08:00     -473.400     -242.105       11.480      267.378      256.624      138.734    71491.189    65855.759    19247.128       21.969        7.830      531.717      145.715        0.075      343.372       19.434      860.783
09/29/2013  12:09:00     -523.244     -185.048      -19.232      256.634      199.306      121.670    65861.239    39723.056    14803.644       21.437        6.019      555.001      131.996        0.057      343.441       19.551      860.873
09/29/2013  12:10:00     -588.051     -381.214       -4.857      489.775      354.821      141.618   239879.333   125898.177    20055.659       43.841       19.292      700.805      183.570        0.069      343.455       19.574      860.873
09/29/2013  12:11:00     -601.459     -499.570       -3.019      325.971      259.101      147.503   106256.975    67133.221    21757.182       40.320        9.757      781.871      163.882        0.044      343.467       19.597      860.781
09/29/2013  12:12:00     -536.120     -343.827      -18.379      263.153      232.901      132.949    69249.711    54243.097    17675.432       27.355        7.058      636.900      136.222        0.046      343.523       19.691      860.820
09/29/2013  12:13:00     -387.299     -182.566        8.348      245.630      175.762      104.205    60333.968    30892.275    10858.739       14.272        5.104      428.172      117.414        0.075      343.533       19.709      860.869
09/29/2013  12:14:00     -461.076     -303.969        0.746      249.800      213.129      107.849    62400.252    45423.947    11631.333       21.220        5.973      552.257      110.288        0.040      343.521       19.689      860.816
09/29/2013  12:15:00     -300.911     -235.116        9.491      196.292      152.780       98.265    38530.614    23341.683     9655.937       10.871        3.576      381.873       83.911        0.048      343.659       19.923      860.791
09/29/2013  12:16:00     -260.851     -187.977       -6.756      166.929      172.306       82.587    27865.140    29689.382     6820.658        8.389        3.219      321.525       89.862        0.078      343.768       20.108      860.811
09/29/2013  12:17:00     -254.062     -116.390        0.042      202.474      143.034       87.609    40995.825    20458.800     7675.298        7.360        3.456      279.453       90.437        0.105      343.656       19.918      860.915
09/29/2013  12:18:00     -446.432     -246.440       -7.370      273.881      205.139      113.193    75010.787    42082.034    12812.660       19.497        6.495      509.936      124.192        0.059      343.462       19.588      860.891
09/29/2013  12:19:00     -748.381     -380.751      -48.556      301.865      294.236      136.694    91122.225    86574.782    18685.357       45.185        9.819      839.670      154.840        0.034      343.225       19.182      860.845
09/29/2013  12:20:00     -603.162     -157.255      -25.962      297.193      225.629      120.064    88323.480    50908.305    14415.331       27.140        7.682      623.324      140.736        0.051      343.284       19.282      860.868
09/29/2013  12:21:00     -468.327     -187.374       -2.200      266.560      184.764      109.509    71054.032    34137.587    11992.179       18.579        5.859      504.419      117.762        0.055      343.396       19.474      860.866
09/29/2013  12:22:00     -340.578     -230.396       14.204      222.039      182.075       95.336    49301.125    33151.188     9088.922       13.039        4.577      411.188      111.945        0.074      343.387       19.460      860.874
09/29/2013  12:23:00     -408.213     -259.027       -8.684      215.639      193.816      101.675    46500.100    37564.800    10337.789       16.409        4.720      483.459      121.160        0.063      343.296       19.305      860.848
09/29/2013  12:24:00     -339.997     -143.417      -13.252      253.347      152.910       82.788    64184.647    23381.408     6853.825       11.536        4.721      369.007      114.501        0.096      343.504       19.659      860.895
09/29/2013  12:25:00     -359.432     -317.353       -0.028      326.447      215.623       99.637   106567.332    46493.469     9927.618       19.641        8.149      479.483       79.607        0.028      343.391       19.466      860.855
09/29/2013  12:26:00     -530.914     -320.964      -24.867      258.650      194.310      110.416    66899.832    37756.339    12191.674       25.115        5.842      620.393      114.160        0.034      343.378       19.446      860.831
09/29/2013  12:27:00     -461.664     -290.471       14.359      296.152      264.295      133.003    87705.902    69851.598    17689.839       23.645        8.762      545.442      152.248        0.078      343.400       19.482      860.859
09/29/2013  12:28:00     -592.797     -428.614      -29.330      297.569      253.064      127.045    88547.537    64041.547    16140.489       35.232        8.436      731.518      129.669        0.031      343.333       19.368      860.748
09/29/2013  12:29:00     -341.651     -188.075       -3.258      270.884      187.164      104.693    73378.129    35030.236    10960.613       13.571        5.968      389.997      128.405        0.108      343.441       19.552      860.766
09/29/2013  12:30:00     -566.619     -433.682      -28.913      379.171      251.041      148.507   143770.515    63021.699    22054.334       36.936       11.442      713.539      184.806        0.067      343.316       19.339      860.737
09/29/2013  12:31:00     -440.313     -254.954       18.452      271.140      234.434      113.947    73516.955    54959.232    12983.812       20.031        7.073      508.799      129.148        0.064      343.400       19.482      860.726
09/29/2013  12:32:00     -535.195     -207.605      -32.116      322.968      210.447      126.204   104308.104    44287.858    15927.561       24.751        8.226      574.050      132.801        0.054      343.504       19.660      860.753
09/29/2013  12:33:00     -571.979     -308.863        5.830      396.619      274.407      155.616   157306.829    75299.014    24216.189       33.965       12.841      650.044      192.203        0.087      343.449       19.564      860.731
09/29/2013  12:34:00     -501.821     -403.775        1.261      310.466      257.430      133.805    96388.828    66270.068    17903.876       29.768        9.028      644.095      138.637        0.046      343.413       19.502      860.734
09/29/2013  12:35:00     -405.157     -314.637       26.240      373.780      240.645      136.548   139711.338    57909.979    18645.244       24.001       10.813      512.981      180.609        0.124      343.465       19.592      860.812
09/29/2013  12:36:00     -614.933     -201.703        5.076      311.687      256.781      139.109    97148.648    65936.582    19351.210       30.061        9.122      647.168      154.460        0.057      343.425       19.524      860.812
09/29/2013  12:37:00     -466.906     -309.996        8.826      301.343      255.798      122.925    90807.720    65432.687    15110.471       24.273        8.568      560.445      127.469        0.052      343.443       19.555      860.802
09/29/2013  12:38:00     -553.426      -67.407      -16.354      334.236      217.579      130.161   111713.715    47340.667    16941.917       24.351        8.800      557.516      162.267        0.085      343.554       19.744      860.780
09/29/2013  12:39:00     -605.046     -345.259      -16.520      335.181      248.258      138.694   112346.544    61632.201    19236.055       33.935        9.661      696.624      149.921        0.046      343.444       19.557      860.797
09/29/2013  12:40:00     -775.211     -326.380      -28.081      335.922      281.931      140.422   112843.762    79485.308    19718.405       46.011       10.602      841.116      152.404        0.033      343.335       19.370      860.774
09/29/2013  12:41:00     -596.037     -229.464       -5.210      314.711      230.257      134.019    99043.211    53018.472    17960.961       28.895        8.501      638.682      160.863        0.063      343.447       19.561      860.756
09/29/2013  12:42:00     -502.668     -203.640        1.508      266.342      260.839      116.267    70937.978    68037.204    13518.128       22.329        7.625      542.351      127.983        0.056      343.441       19.552      860.736
09/29/2013  12:43:00     -511.767     -270.121       -8.834      235.186      232.026      118.750    55312.392    53835.896    14101.648       22.908        6.162      578.681      122.609        0.045      343.536       19.713      860.729
09/29/2013  12:44:00     -468.156     -353.335       -3.832      332.090      289.635      130.436   110283.760    83888.389    17013.520       27.756       10.559      586.528      157.643        0.072      343.544       19.728      860.720
09/29/2013  12:45:00     -580.716     -415.169        0.282      290.812      231.925      130.254    84571.868    53789.330    16966.063       33.243        7.766      713.860      143.943        0.041      343.477       19.611      860.680
09/29/2013  12:46:00     -569.832     -371.080       -3.895      275.005      285.207      139.772    75627.800    81342.777    19536.089       31.943        8.825      680.007      144.868        0.045      343.564       19.761      860.707
09/29/2013  12:47:00     -578.346     -290.947      -27.700      259.492      242.629      110.315    67335.942    58868.975    12169.495       27.911        6.919      647.406      117.182        0.033      343.638       19.889      860.718
09/29/2013  12:48:00     -326.424     -244.674        8.957      250.035      235.266      122.052    62517.738    55349.934    14896.738       14.960        6.638      407.943      131.303        0.104      343.706       20.002      860.688
09/29/2013  12:49:00     -339.596     -231.288       11.793      231.405      269.050      131.225    53548.083    72388.048    17219.901       15.603        7.158      410.877      133.715        0.106      343.700       19.993      860.665
09/29/2013  12:50:00     -415.085     -207.271      -13.738      191.830      191.952       91.542    36798.908    36845.453     8379.941       14.872        4.101      463.958       98.126        0.045      343.702       19.996      860.619
09/29/2013  12:51:00     -361.915     -153.635      -11.220      268.595      191.783      106.310    72143.403    36780.700    11301.887       13.744        6.011      393.174      114.784        0.085      343.848       20.246      860.649
09/29/2013  12:52:00     -309.385     -227.990       15.167      192.782      173.629      103.753    37164.838    30146.893    10764.671       11.299        3.904      384.316      105.940        0.076      343.835       20.225      860.667
09/29/2013  12:53:00     -578.865     -221.215      -41.023      286.148      182.768      119.074    81880.934    33404.044    14178.505       25.756        6.473      619.694      133.184        0.046      343.649       19.905      860.599
09/29/2013  12:54:00     -651.126     -258.695        3.984      428.199      259.803      131.978   183354.224    67497.385    17418.148       37.953       13.413      700.634      177.719        0.064      343.772       20.116      860.581
09/29/2013  12:55:00     -312.799     -292.800        2.300      243.014      185.189       98.457    59055.606    34294.913     9693.815       14.329        5.152      428.457       87.735        0.042      343.801       20.165      860.622
09/29/2013  12:56:00     -467.064     -288.315       -7.316      216.198      156.711      103.583    46741.406    24558.475    10729.528       19.166        4.101      548.885      116.078        0.045      343.848       20.244      860.660
09/29/2013  12:57:00     -441.071     -181.125      -14.418      282.017      202.204      110.924    79533.682    40886.275    12304.163       18.011        6.636      476.812      123.387        0.067      343.740       20.062      860.692
09/29/2013  12:58:00     -537.500     -357.787       -5.036      292.788      206.462      115.587    85724.688    42626.549    13360.323       27.930        7.086      645.692      129.325        0.040      343.570       19.770      860.678
09/29/2013  12:59:00     -539.889     -362.760      -17.037      282.903      235.587      117.894    80034.115    55501.000    13898.909       28.637        7.472      650.442      119.281        0.034      343.513       19.675      860.624
09/29/2013  13:00:00     -484.247     -447.706      -21.526      248.039      282.870      118.766    61523.566    80015.437    14105.268       29.549        7.782      659.496      130.023        0.039      343.536       19.713      860.620
09/29/2013  13:01:00     -390.592     -510.109        0.060      271.654      263.397      123.630    73795.729    69378.047    15284.458       28.558        7.923      642.475      126.188        0.039      343.565       19.763      860.607
09/29/2013  13:02:00     -522.730     -310.687      -29.266      301.046      284.338      104.041    90628.497    80848.217    10824.631       27.643        9.115      608.090      124.450        0.042      343.523       19.692      860.592
09/29/2013  13:03:00     -450.548     -295.624        0.530      310.680      231.428      141.507    96521.965    53558.744    20024.232       23.021        8.505      538.876      150.615        0.078      343.699       19.992      860.537
09/29/2013  13:04:00     -720.249     -499.552       -5.755      329.093      269.206      161.255   108302.339    72471.628    26003.206       48.752       10.339      876.533      187.245        0.046      343.610       19.839      860.547
09/29/2013  13:05:00     -458.699     -325.007       -6.278      316.639      255.118      128.838   100260.379    65085.235    16599.135       24.897        9.097      562.169      138.099        0.060      343.611       19.841      860.552
09/29/2013  13:06:00     -355.765     -231.327       20.135      267.689      236.083      114.928    71657.362    55735.026    13208.409       16.052        7.030      424.360      151.893        0.128      343.786       20.139      860.627
09/29/2013  13:07:00     -406.524     -236.668       25.453      279.768      330.209      141.786    78270.203   109038.107    20103.348       21.463       10.371      470.397      155.800        0.110      343.612       19.843      860.614
09/29/2013  13:08:00     -382.536     -263.024        5.603      260.836      217.036      134.560    68035.540    47104.472    18106.450       17.437        6.662      464.236      138.364        0.089      343.604       19.829      860.601
09/29/2013  13:09:00     -551.887     -299.060      -24.009      279.447      290.155      133.257    78090.864    84189.864    17757.329       28.728        9.002      627.707      151.559        0.058      343.563       19.758      860.530
09/29/2013  13:10:00     -456.566     -406.249        9.805      301.273      275.039      124.790    90765.522    75646.508    15572.598       27.775        9.099      611.139      153.967        0.063      343.541       19.722      860.517
09/29/2013  13:11:00     -422.589      -89.411       -7.712      293.759      231.808      135.660    86294.362    53734.922    18403.668       17.250        7.922      431.945      143.342        0.110      343.773       20.117      860.438
09/29/2013  13:12:00     -291.451     -114.392       28.516      295.349      199.562      113.426    87231.063    39824.889    12865.496       11.935        6.996      313.096      145.465        0.216      343.913       20.358      860.445
09/29/2013  13:13:00     -551.228     -234.772       -5.634      315.186      215.482      138.976    99341.969    46432.633    19314.404       26.201        8.254      599.141      155.107        0.067      343.689       19.975      860.468
09/29/2013  13:14:00     -432.374     -303.428       -8.313      214.539      192.576      108.543    46027.000    37085.389    11781.599       18.697        4.745      528.219      115.376        0.048      343.759       20.093      860.458
09/29/2013  13:15:00     -313.492      -98.429       -4.947      176.210      193.728       85.497    31049.802    37530.391     7309.684        9.192        3.794      328.581       92.969        0.080      343.919       20.367      860.455
09/29/2013  13:16:00     -183.351      -97.977       22.657      159.297      149.908       68.093    25375.593    22472.272     4636.661        4.810        2.624      207.888       80.040        0.148      344.060       20.609      860.479
09/29/2013  13:17:00     -327.662     -136.199       12.042      254.051      178.757      101.991    64541.844    31954.046    10402.249       11.646        5.345      354.842      111.511        0.099      343.866       20.275      860.484
09/29/2013  13:18:00     -345.921     -236.922       14.944      257.685      205.719      109.213    66401.777    42320.104    11927.434       14.831        6.032      419.277      117.398        0.078      343.817       20.193      860.436
09/29/2013  13:19:00     -556.684     -339.180      -16.239      250.739      211.816      111.693    62869.910    44865.907    12475.338       27.268        6.011      651.874      131.342        0.041      343.865       20.274      860.408
09/29/2013  13:20:00     -442.504     -239.009        4.958      299.020      290.904      126.664    89412.969    84625.044    16043.790       22.148        9.504      502.926      139.945        0.077      343.907       20.347      860.435
09/29/2013  13:21:00     -590.790     -411.834      -14.836      313.015      250.324      132.539    97978.659    62662.235    17566.652       34.850        8.910      720.167      133.687        0.034      343.592       19.809      860.401
09/29/2013  13:22:00     -610.305     -237.527      -30.248      314.011      216.502      110.069    98603.193    46872.968    12115.205       29.367        7.880      654.898      136.659        0.044      343.633       19.878      860.359
09/29/2013  13:23:00     -479.391     -273.437       12.190      285.372      206.847      114.818    81437.294    42785.819    13183.062       22.104        6.870      551.891      134.835        0.060      343.768       20.108      860.384
09/29/2013  13:24:00     -530.869     -422.030      -22.163      318.965      230.160      114.135   101738.538    52973.529    13026.875       31.405        8.387      678.183      141.986        0.044      343.632       19.877      860.396
09/29/2013  13:25:00     -476.091     -329.195        1.197      344.287      230.920      134.437   118533.258    53323.940    18073.350       26.244        9.497      578.819      159.031        0.075      343.705       20.001      860.359
09/29/2013  13:26:00     -560.143     -276.188      -29.482      257.001      236.726      103.218    66049.684    56039.296    10654.017       26.180        6.637      624.532       94.319        0.023      343.603       19.828      860.316
09/29/2013  13:27:00     -485.459     -407.928      -30.422      246.429      221.612      123.448    60727.232    49111.998    15239.312       26.401        6.254      634.094      125.834        0.039      343.636       19.883      860.274
09/29/2013  13:28:00     -327.459     -151.812        3.733      185.974      188.175      103.222    34586.302    35409.941    10654.840       10.545        4.033      360.938      110.607        0.094      343.854       20.255      860.260
09/29/2013  13:29:00     -345.888     -116.444       -1.384      179.188      173.065       93.624    32108.188    29951.641     8765.395       10.200        3.541      364.963       73.327        0.040      344.028       20.553      860.283
09/29/2013  13:30:00     -193.126      -74.035       -2.501      138.812      113.971       74.045    19268.778    12989.343     5482.614        4.026        1.887      206.830       55.252        0.071      344.160       20.778      860.298
09/29/2013  13:31:00     -297.563     -246.095       -1.613      232.336      273.881       81.983    53980.041    75010.735     6721.177       14.238        6.786      386.143       92.621        0.058      344.120       20.710      860.274
09/29/2013  13:32:00     -635.327     -411.087      -16.857      316.214      226.707      124.056    99991.366    51395.962    15389.948       36.981        8.339      756.725      139.178        0.034      343.759       20.094      860.266
09/29/2013  13:33:00     -400.249     -263.829       10.531      260.049      213.050      115.953    67625.692    45390.487    13445.156       17.816        6.323      479.380      133.978        0.078      343.848       20.244      860.281
09/29/2013  13:34:00     -464.116     -291.453        4.635      252.657      206.756      121.550    63835.501    42747.891    14774.404       21.084        6.068      548.041      130.352        0.057      343.855       20.258      860.324
09/29/2013  13:35:00     -705.217     -324.149      -34.555      346.645      235.276      118.759   120162.605    55354.667    14103.816       39.657        9.481      776.147      111.023        0.020      343.643       19.896      860.248
09/29/2013  13:36:00     -661.524     -277.045      -32.555      323.640      256.161      133.841   104742.948    65618.268    17913.425       35.181        9.414      717.195      139.203        0.038      343.678       19.955      860.237
09/29/2013  13:37:00     -362.509     -263.232      -19.631      277.109      218.700      112.486    76789.261    47829.846    12653.083       16.915        6.864      447.999      123.695        0.076      343.903       20.339      860.268
09/29/2013  13:38:00     -167.605     -247.719       41.079      232.069      279.551      119.490    53855.942    78148.816    14277.831       11.868        7.314      299.092      136.399        0.208      343.966       20.448      860.280
09/29/2013  13:39:00     -661.780     -342.877      -23.889      395.398      269.406      150.259   156339.475    72579.468    22577.794       40.374       12.575      745.330      162.934        0.048      343.689       19.974      860.193
09/29/2013  13:40:00     -337.646     -323.269        9.710      258.024      186.153      123.230    66576.639    34652.930    15185.600       16.749        5.821      467.448      147.402        0.099      343.777       20.123      860.190
09/29/2013  13:41:00     -464.892     -348.606      -34.550      217.944      204.651      118.510    47499.524    41882.142    14044.511       22.111        5.171      581.077      112.972        0.038      343.768       20.108      860.225
09/29/2013  13:42:00     -489.024     -238.312       -7.337      323.385      259.274      126.807   104577.661    67222.837    16079.968       24.190        9.394      544.001      136.299        0.063      343.882       20.303      860.175
09/29/2013  13:43:00     -504.922     -442.654      -12.862      299.684      210.835      124.893    89810.275    44451.274    15598.265       30.043        7.493      671.482      137.495        0.042      343.829       20.211      860.275
09/29/2013  13:44:00     -225.429     -582.493        0.032      275.516      337.297      138.718    75909.040   113769.026    19242.676       29.948       10.446      624.593      156.646        0.063      343.831       20.217      860.188
09/29/2013  13:45:00     -610.447     -414.202      -15.869      315.176      227.191      130.912    99336.091    51615.712    17138.007       35.624        8.404      737.705      133.845        0.033      343.798       20.159      860.193
09/29/2013  13:46:00     -661.359     -400.012      -14.829      473.283      368.109      127.565   223997.210   135504.157    16272.886       48.662       18.789      772.920      162.486        0.044      343.697       19.987      860.054
09/29/2013  13:47:00     -650.708     -411.278      -14.765      318.516      261.646      130.741   101452.583    68458.436    17093.288       38.986        9.350      769.786      150.698        0.038      343.763       20.100      860.089
09/29/2013  13:48:00     -528.143     -424.233      -11.848      345.014      307.812      142.422   119034.533    94748.122    20284.014       34.651       11.703      677.428      172.042        0.064      343.770       20.112      860.021
09/29/2013  13:49:00     -339.360     -183.169       41.410      242.771      241.691      123.303    58937.994    58414.332    15203.609       14.147        6.628      385.638      133.240        0.119      343.965       20.446      860.072
09/29/2013  13:50:00     -431.573     -244.127       13.369      263.659      239.010      114.270    69516.217    57125.717    13057.554       19.284        6.985      495.836      118.082        0.057      343.972       20.458      860.072
09/29/2013  13:51:00     -389.014     -283.711        1.590      207.946      220.545       98.655    43241.385    48640.192     9732.885       16.670        5.081      481.481      100.346        0.043      344.013       20.528      860.118
09/29/2013  13:52:00     -413.690     -271.218       16.554      292.732      216.487      113.336    85692.234    46866.514    12844.971       19.516        7.270      494.670      129.733        0.069      343.939       20.401      860.113
09/29/2013  13:53:00     -643.074     -375.616      -11.434      356.665      325.508      153.637   127210.106   105955.585    23604.385       40.571       12.839      744.736      177.441        0.057      343.760       20.095      860.015
09/29/2013  13:54:00     -532.217     -455.342      -24.556      369.230      261.054      160.003   136330.864    68149.447    25601.118       36.059       11.504      700.422      159.035        0.052      343.742       20.064      860.005
09/29/2013  13:55:00     -558.162     -364.575      -15.304      311.091      296.514      139.043    96777.867    87920.743    19333.073       32.432       10.202      666.678      140.468        0.044      343.721       20.030      860.006
09/29/2013  13:56:00     -424.319     -286.631       21.543      271.481      233.134      130.433    73701.745    54351.562    17012.824       20.384        7.253      512.059      147.061        0.082      343.906       20.344      860.024
09/29/2013  13:57:00     -454.377     -310.510       -8.953      281.247      252.462      109.947    79099.665    63736.904    12088.435       22.891        7.746      550.341      134.775        0.060      343.833       20.219      860.017
09/29/2013  13:58:00     -456.939     -270.319      -11.150      252.527      245.200      112.161    63769.671    60122.903    12580.142       20.920        6.824      530.910      136.239        0.066      343.856       20.260      860.031
09/29/2013  13:59:00     -533.000     -361.888       -5.168      316.324      308.819      135.529   100060.698    95369.337    18368.241       31.440       10.690      644.245      156.502        0.059      343.842       20.236      859.966
09/29/2013  14:00:00     -563.739     -337.224      -21.126      400.673      277.379      141.210   160539.136    76939.096    19940.372       34.464       12.871      656.903      173.216        0.070      343.843       20.238      859.941
09/29/2013  14:01:00     -648.561     -378.165      -14.196      366.649      249.394      148.723   134431.177    62197.250    22118.595       39.125       10.937      750.759      163.989        0.048      343.707       20.004      859.933
09/29/2013  14:02:00     -407.600     -382.293        3.295      289.621      228.779      136.215    83880.312    52339.621    18554.433       23.350        7.739      558.825      148.153        0.070      343.744       20.067      860.024
09/29/2013  14:03:00     -703.226     -463.071       -0.817      346.997      291.265      152.351   120406.737    84835.250    23210.736       46.866       11.423      841.999      182.197        0.047      343.571       19.772      859.949
09/29/2013  14:04:00     -638.623     -446.626        0.675      360.398      262.790      140.104   129886.526    69058.533    19629.160       41.290       10.929      779.303      175.630        0.051      343.689       19.974      859.994
09/29/2013  14:05:00     -693.618     -421.788       -9.960      363.665      240.156      141.089   132252.017    57674.895    19906.097       43.443       10.492      811.795      165.191        0.041      343.714       20.015      859.996
09/29/2013  14:06:00     -541.926     -315.585      -34.974      264.928      185.233       88.648    70186.894    34311.226     7858.414       25.341        5.618      627.118       91.722        0.021      343.855       20.257      859.968
09/29/2013  14:07:00     -417.186     -329.990      -16.684      234.558      249.655       97.712    55017.471    62327.736     9547.687       20.503        6.345      531.919      103.777        0.038      343.870       20.285      860.012
09/29/2013  14:08:00     -420.120     -288.959       13.214      277.772      224.255      108.351    77157.041    50290.151    11739.913       19.965        6.959      509.901      133.337        0.068      343.823       20.203      859.993
09/29/2013  14:09:00     -783.325     -277.573      -38.308      383.474      313.620      155.439   147052.080    98357.762    24161.180       48.079       13.479      831.051      172.372        0.043      343.754       20.085      859.929
09/29/2013  14:10:00     -347.910     -123.751        5.204      269.117      194.409      107.253    72423.967    37794.751    11503.159       12.903        6.086      369.263       95.985        0.068      344.004       20.512      859.949
09/29/2013  14:11:00     -432.374     -285.384      -15.232      279.740      233.803      104.501    78254.329    54663.704    10920.409       20.620        7.192      518.065      118.470        0.052      343.951       20.422      859.935
09/29/2013  14:12:00     -494.587     -285.310      -22.806      246.222      208.919      108.414    60625.187    43647.045    11753.510       22.126        5.801      570.980      121.713        0.045      343.958       20.433      859.924
09/29/2013  14:13:00     -499.885     -288.190       -1.054      317.321      300.306      128.827   100692.453    90183.581    16596.450       27.016       10.374      577.008      151.332        0.069      343.893       20.323      859.883
09/29/2013  14:14:00     -594.513     -504.140      -21.675      335.545      288.229      170.142   112590.268    83076.082    28948.223       41.630       11.231      779.489      192.962        0.061      343.816       20.192      859.776
09/29/2013  14:15:00     -446.931     -259.431       19.077      374.584      257.960      109.323   140313.504    66543.257    11951.565       24.307       10.940      516.770      143.937        0.078      344.040       20.574      859.820
09/29/2013  14:16:00     -446.467     -338.404       -3.446      287.590      309.932      129.667    82708.074    96057.986    16813.433       25.468        9.779      560.223      139.253        0.062      343.777       20.124      859.750
09/29/2013  14:17:00     -388.563     -270.994       -8.218      293.542      212.050      118.422    86166.746    44965.348    14023.785       18.479        7.258      473.728      134.394        0.080      343.894       20.325      859.801
09/29/2013  14:18:00     -443.710     -371.393       17.010      328.570      283.461      167.408   107958.165    80350.119    28025.440       27.567       10.817      578.629      181.224        0.098      343.858       20.263      859.782
09/29/2013  14:19:00     -595.419     -294.632      -12.201      360.706      291.078      151.531   130108.651    84726.410    22961.635       33.959       11.890      664.328      166.962        0.063      343.957       20.431      859.789
09/29/2013  14:20:00     -597.036     -352.280      -17.145      353.457      262.831      154.319   124932.012    69080.109    23814.416       34.929       10.891      693.219      164.950        0.057      343.800       20.164      859.714
09/29/2013  14:21:00     -667.642     -276.755      -33.248      325.719      226.975      126.424   106093.080    51517.586    15982.930       34.848        8.680      722.731      147.362        0.042      343.780       20.128      859.703
09/29/2013  14:22:00     -771.551     -561.296      -31.448      372.040      325.386      155.924   138413.981   105876.334    24312.292       58.991       13.430      954.120      195.374        0.042      343.713       20.014      859.700
09/29/2013  14:23:00     -571.812     -392.773        7.684      372.572      248.669      130.450   138809.909    61836.119    17017.238       34.944       10.883      693.714      160.189        0.053      343.776       20.123      859.720
09/29/2013  14:24:00     -588.995     -370.223        6.942      388.506      327.575      166.820   150936.591   107305.057    27828.868       38.499       14.304      695.687      191.210        0.076      343.803       20.169      859.692
09/29/2013  14:25:00     -661.356     -433.060      -16.372      363.144      238.243      140.106   131873.569    56759.577    19629.682       41.669       10.413      790.527      159.997        0.041      343.782       20.133      859.648
09/29/2013  14:26:00     -775.247     -295.566      -17.850      300.294      346.429      136.354    90176.693   120013.062    18592.325       45.869       11.439      829.679      145.563        0.031      343.821       20.199      859.602
09/29/2013  14:27:00     -647.714     -393.526       -9.100      345.288      244.374      129.085   119223.527    59718.561    16663.015       38.500        9.780      757.889      157.792        0.043      343.862       20.270      859.718
09/29/2013  14:28:00     -630.721     -344.346      -24.335      316.132      215.785      117.736    99939.364    46563.366    13861.698       33.864        8.018      718.598      137.841        0.037      343.744       20.068      859.757
09/29/2013  14:29:00     -690.193     -525.529      -12.605      399.572      297.267      177.154   159658.119    88367.712    31383.476       51.600       13.970      867.495      213.454        0.061      343.743       20.066      859.778
09/29/2013  14:30:00     -453.892     -333.329        2.477      275.080      223.187      125.551    75668.981    49812.582    15763.120       22.916        7.062      563.140      141.125        0.063      343.809       20.178      859.695
09/29/2013  14:31:00     -699.161     -348.897      -39.026      328.406      230.234      153.203   107850.289    53007.472    23471.305       39.817        9.216      781.380      149.768        0.037      343.931       20.387      859.685
09/29/2013  14:32:00     -583.365     -431.086      -13.676      326.231      278.521      150.992   106426.486    77574.136    22798.442       36.653       10.340      725.362      178.360        0.060      343.960       20.435      859.705
09/29/2013  14:33:00     -454.781     -320.885      -13.774      311.975      267.929      141.860    97328.188    71785.741    20124.173       24.957        9.462      556.591      171.885        0.095      343.980       20.471      859.744
09/29/2013  14:34:00     -413.756     -186.893        7.271      278.666      259.158      126.565    77654.890    67163.032    16018.675       18.347        8.042      454.008      148.167        0.107      343.974       20.461      859.752
09/29/2013  14:35:00     -661.731     -350.270      -17.095      362.471      272.814      139.831   131385.048    74427.750    19552.828       39.307       11.268      748.717      140.103        0.035      343.783       20.135      859.699
09/29/2013  14:36:00     -764.837     -379.022      -39.046      420.543      254.987      129.268   176856.019    65018.331    16710.197       49.432       12.929      853.600      169.228        0.039      343.869       20.282      859.727
09/29/2013  14:37:00     -689.794     -466.346       18.846      466.299      354.370      170.516   217434.742   125578.172    29075.830       53.279       18.604      832.643      196.366        0.056      343.892       20.321      859.716
09/29/2013  14:38:00     -347.666     -211.500        6.682      270.366      150.317       99.942    73097.534    22595.205     9988.497       13.564        5.284      406.944      111.425        0.075      344.083       20.648      859.759
09/29/2013  14:39:00     -386.601     -267.378       -1.956      268.542      210.494      116.618    72114.998    44307.626    13599.656       17.546        6.501      470.054      136.191        0.084      344.075       20.633      859.765
09/29/2013  14:40:00     -615.210     -342.118      -23.885      295.348      235.299      130.689    87230.482    55365.726    17079.666       32.785        7.984      703.937      137.064        0.038      343.876       20.294      859.753
09/29/2013  14:41:00     -471.984     -322.205      -12.712      335.624      247.148      112.260   112643.307    61082.358    12602.216       25.650        9.316      571.476      145.205        0.065      343.958       20.434      859.801
09/29/2013  14:42:00     -544.094     -348.450      -27.467      287.514      244.126      148.940    82664.121    59597.734    22183.018       29.129        8.222      646.108      151.923        0.055      343.829       20.213      859.722
09/29/2013  14:43:00     -755.071     -342.120      -24.298      319.340      330.809      153.654   101977.857   109434.571    23609.640       46.135       11.751      828.962      156.812        0.036      343.801       20.166      859.711
09/29/2013  14:44:00     -753.343     -306.000      -40.827      340.813      323.149      147.620   116153.817   104425.085    21791.694       45.255       12.119      813.119      169.972        0.044      343.783       20.135      859.659
09/29/2013  14:45:00     -591.257     -188.873       -4.453      295.465      279.502      144.022    87299.815    78121.109    20742.404       28.568        9.308      620.691      152.092        0.060      343.862       20.268      859.644
09/29/2013  14:46:00     -652.745     -455.939      -23.093      305.175      288.604      158.720    93131.631    83292.273    25191.995       41.801       10.081      796.214      149.834        0.035      343.757       20.089      859.692
09/29/2013  14:47:00     -499.182     -221.268      -15.071      253.458      238.091      112.339    64241.094    56687.501    12620.151       21.593        6.677      546.024      114.501        0.044      343.848       20.246      859.702
09/29/2013  14:48:00     -678.207     -295.983      -26.726      374.625      262.412      121.531   140343.984    68860.137    14769.876       38.609       11.199      739.980      132.475        0.032      343.853       20.252      859.633
09/29/2013  14:49:00     -672.805     -277.599      -13.955      357.951      283.167      141.965   128128.771    80183.794    20153.932       37.915       11.423      727.824      175.391        0.058      343.924       20.376      859.605
09/29/2013  14:50:00     -541.512     -185.967      -17.561      339.278      265.236      145.488   115109.345    70350.166    21166.694       26.734       10.331      572.555      158.606        0.077      343.954       20.426      859.583
09/29/2013  14:51:00     -419.712     -187.445      -12.407      293.470      195.449      131.479    86124.705    38200.241    17286.692       17.650        7.081      459.667      145.677        0.100      344.058       20.604      859.623
09/29/2013  14:52:00     -680.399     -448.734      -25.719      437.774      320.124      181.266   191646.383   102479.116    32857.377       49.591       16.349      815.049      225.340        0.076      343.855       20.258      859.610
09/29/2013  14:53:00     -914.436     -507.546      -35.673      417.004      406.157      177.530   173892.726   164963.252    31517.047       73.265       18.519     1045.847      200.194        0.037      343.833       20.220      859.553
09/29/2013  14:54:00     -521.868     -251.979       -8.903      376.701      286.936      131.163   141903.879    82332.289    17203.742       28.863       12.072      579.516      167.688        0.084      344.144       20.752      859.622
09/29/2013  14:55:00     -737.734     -239.298      -25.493      331.228      233.332      110.667   109711.844    54443.718    12247.228       38.925        8.820      775.574      131.481        0.029      343.948       20.415      859.639
09/29/2013  14:56:00     -640.576     -322.904       -7.832      262.680      326.449      139.119    69000.824   106569.237    19354.097       35.476        9.746      717.359      141.154        0.039      343.859       20.264      859.681
09/29/2013  14:57:00     -687.759     -539.173        1.286      403.292      291.813      176.550   162644.122    85154.631    31169.888       52.129       13.948      873.910      203.418        0.054      343.775       20.121      859.689
09/29/2013  14:58:00     -576.347     -409.715      -17.142      340.101      247.569      130.331   115668.951    61290.302    16986.122       34.710        9.697      707.137      161.637        0.052      343.861       20.267      859.744
09/29/2013  14:59:00     -504.526     -230.754      -11.222      294.642      247.072      106.467    86813.748    61044.450    11335.173       23.352        7.960      554.791      119.369        0.046      343.977       20.465      859.793
09/29/2013  15:00:00     -422.202     -300.788       -1.552      307.911      229.252      129.235    94809.198    52556.601    16701.615       21.637        8.203      518.390      147.252        0.081      344.088       20.655      859.855
09/29/2013  15:01:00     -586.499     -512.282       -7.195      400.112      317.340      151.965   160089.472   100704.415    23093.275       44.512       14.194      778.725      188.120        0.058      343.989       20.486      859.810
09/29/2013  15:02:00     -586.924     -407.920      -18.960      309.695      215.023      134.169    95910.792    46234.916    18001.266       33.566        8.007      714.758      155.651        0.047      344.045       20.582      859.862
09/29/2013  15:03:00     -566.425     -339.694      -23.930      284.248      235.962      133.505    80796.973    55678.023    17823.582       29.552        7.715      660.477      148.414        0.050      343.958       20.433      859.790
09/29/2013  15:04:00     -787.221     -383.854      -23.688      318.575      300.514      147.803   101490.069    90308.906    21845.681       49.059       10.682      875.820      135.083        0.024      343.874       20.290      859.728
09/29/2013  15:05:00     -768.787     -256.620      -29.372      385.608      262.027      122.761   148693.679    68658.314    15070.240       44.504       11.621      810.486      153.436        0.036      343.878       20.296      859.804
09/29/2013  15:06:00     -549.349     -218.120       -4.536      325.673      205.574      108.515   106062.665    42260.855    11775.504       25.471        8.005      591.067      129.392        0.048      343.930       20.386      859.792
09/29/2013  15:07:00     -469.507     -273.979      -21.622      315.858      224.316      115.887    99766.531    50317.506    13429.768       22.971        8.176      543.601      146.644        0.073      343.945       20.413      859.747
09/29/2013  15:08:00     -660.169     -249.462      -32.060      376.955      246.345      143.472   142094.741    60686.050    20584.319       36.118       11.168      705.730      166.807        0.056      343.924       20.376      859.691
09/29/2013  15:09:00     -638.593     -347.580      -23.512      241.933      237.411      125.136    58531.704    56364.119    15659.101       32.983        6.528      727.058      124.325        0.029      343.978       20.467      859.774
09/29/2013  15:10:00     -613.660     -284.728      -42.298      278.285      282.538      122.108    77442.558    79827.710    14910.331       31.577        8.609      676.498      120.630        0.032      343.997       20.500      859.702
09/29/2013  15:11:00     -346.061     -335.550       -7.965      264.786      257.390      123.952    70111.772    66249.691    15363.999       19.204        7.586      482.029      133.333        0.077      343.944       20.410      859.742
09/29/2013  15:12:00     -597.117     -169.413      -15.103      390.471      304.289      149.562   152467.601    92591.643    22368.785       32.640       13.371      620.684      163.774        0.070      343.931       20.387      859.705
09/29/2013  15:13:00     -592.375      -80.562        5.919      480.059      237.097      163.722   230457.121    56214.883    26804.949       33.539       15.674      597.828      213.687        0.128      343.948       20.418      859.634
09/29/2013  15:14:00     -420.511     -306.305        5.811      344.292      303.545      156.259   118537.057    92139.648    24416.764       25.284       11.755      520.243      178.862        0.118      343.957       20.432      859.674
09/29/2013  15:15:00     -478.689     -311.575       -9.648      285.326      203.646      109.303    81411.086    41471.894    11947.213       23.055        6.742      571.159      106.343        0.035      344.105       20.684      859.646
09/29/2013  15:16:00     -641.152     -228.307      -27.232      301.964      306.463      137.922    91182.028    93919.321    19022.504       33.399       10.206      680.588      148.503        0.048      344.013       20.527      859.695
09/29/2013  15:17:00     -461.146     -277.959        8.384      306.692      273.883      135.824    94059.963    75012.047    18448.137       23.872        9.376      538.440      162.998        0.092      344.035       20.565      859.698
09/29/2013  15:18:00     -478.302     -174.277        1.693      441.006      259.611      143.064   194485.946    67397.950    20467.293       27.069       14.118      509.063      191.004        0.141      344.090       20.658      859.680
09/29/2013  15:19:00     -524.009     -107.358      -13.535      379.511      272.074      133.356   144028.693    74024.241    17783.700       26.102       11.792      534.894      159.618        0.089      344.212       20.866      859.704
09/29/2013  15:20:00     -558.261     -287.321      -20.063      367.963      206.803      153.913   135397.049    42767.578    23689.305       29.819       10.093      627.860      173.646        0.076      343.979       20.468      859.756
09/29/2013  15:21:00     -442.964     -368.863        0.757      290.549      239.148      146.866    84418.664    57191.909    21569.572       24.770        8.159      576.435      171.400        0.088      343.966       20.447      859.719
09/29/2013  15:22:00     -385.346     -369.184       -8.897      320.916      253.928      169.742   102987.366    64479.336    28812.446       24.053        9.814      533.656      195.934        0.135      344.004       20.511      859.643
09/29/2013  15:23:00     -321.106     -200.146       14.584      336.831      212.757      133.381   113455.122    45265.734    17790.566       15.991        8.826      378.374      164.142        0.188      344.192       20.834      859.645
09/29/2013  15:24:00     -605.809     -430.621      -44.149      354.838      279.348      146.315   125910.218    78035.473    21408.216       38.983       11.268      743.262      148.317        0.040      344.056       20.601      859.663
09/29/2013  15:25:00     -544.395     -348.830        9.611      335.144      308.474      147.689   112321.246    95155.965    21812.092       32.367       11.464      646.567      172.737        0.071      344.098       20.673      859.776
09/29/2013  15:26:00     -508.637     -212.375       -5.228      330.185      230.277      134.102   109022.338    53027.481    17983.231       24.190        9.002      551.194      160.594        0.085      344.005       20.515      859.737
09/29/2013  15:27:00     -582.624     -185.445      -36.620      366.514      219.239      127.094   134332.535    48065.858    16152.832       28.683        9.928      611.425      153.483        0.063      344.017       20.535      859.688
09/29/2013  15:28:00     -586.695     -230.584       -6.376      354.023      325.474      157.873   125332.117   105933.210    24923.847       32.675       12.809      630.381      166.756        0.070      344.107       20.688      859.713
09/29/2013  15:29:00     -580.722     -141.810        9.389      390.367      264.808      146.359   152386.647    70123.420    21420.858       30.063       12.197      597.786      172.927        0.084      344.125       20.720      859.718
09/29/2013  15:30:00     -881.683     -198.513      -26.640      480.951      294.704      153.901   231313.440    86850.250    23685.377       57.960       17.092      903.755      203.859        0.051      344.036       20.567      859.681
09/29/2013  15:31:00     -455.309     -226.993       30.645      420.590      362.961      162.014   176896.243   131740.541    26248.494       29.726       16.744      508.755      215.360        0.179      344.005       20.514      859.691
09/29/2013  15:32:00     -561.114     -234.962        1.437      417.185      259.008      134.669   174043.721    67085.298    18135.845       31.461       12.963      608.322      172.720        0.081      343.988       20.484      859.723
09/29/2013  15:33:00     -597.951     -270.297       -7.935      355.391      247.954      126.146   126302.560    61481.093    15912.756       31.714       10.185      656.206      159.819        0.059      344.086       20.651      859.793
09/29/2013  15:34:00     -763.733     -253.994      -18.402      390.429      297.211      151.604   152434.968    88334.406    22983.854       45.589       13.188      804.861      172.382        0.046      343.970       20.454      859.801
09/29/2013  15:35:00     -559.021     -170.321       -1.865      395.805      233.419      132.039   156661.675    54484.546    17434.222       28.500       11.429      584.391      173.399        0.088      344.175       20.804      859.802
09/29/2013  15:36:00     -566.190     -383.899      -20.701      304.296      288.439      147.071    92595.754    83196.777    21629.768       33.286        9.871      684.068      155.809        0.052      343.990       20.489      859.776
09/29/2013  15:37:00     -537.565     -293.857      -25.171      220.936      201.352      105.018    48812.535    40542.717    11028.794       23.815        5.019      612.640      106.215        0.030      344.063       20.613      859.796
09/29/2013  15:38:00     -663.243     -316.233      -17.313      336.490      318.038      145.430   113225.690   101148.087    21149.877       38.781       11.776      734.775      174.788        0.057      343.989       20.486      859.814
09/29/2013  15:39:00     -624.083     -284.728      -11.545      413.188      295.933      141.891   170724.283    87576.628    20133.129       37.450       13.922      685.967      188.447        0.075      344.003       20.509      859.803
09/29/2013  15:40:00     -917.543     -239.544      -31.925      445.378      277.444      157.439   198361.645    76975.157    24786.931       60.014       15.006      948.297      188.981        0.040      343.915       20.360      859.759
09/29/2013  15:41:00     -644.551     -194.181      -37.893      364.083      247.085      131.619   132556.332    61051.139    17323.682       33.272       10.547      673.166      140.933        0.044      344.048       20.586      859.779
09/29/2013  15:42:00     -394.337     -251.753       -2.665      333.881      229.332      159.595   111476.528    52593.165    25470.658       20.418        9.477      467.847      178.979        0.146      344.169       20.794      859.841
09/29/2013  15:43:00     -522.899     -328.355        1.140      332.688      266.746      152.993   110681.473    71153.524    23406.724       29.320       10.262      617.447      185.604        0.090      344.067       20.619      859.842
09/29/2013  15:44:00     -463.639     -164.922        0.600      308.600      249.628      125.818    95233.894    62314.171    15830.251       20.773        8.669      492.098      148.181        0.091      344.195       20.838      859.915
09/29/2013  15:45:00     -652.823     -343.182      -13.891      345.177      292.070      158.665   119147.492    85305.099    25174.566       38.684       11.481      737.531      183.234        0.062      343.812       20.184      859.949
09/29/2013  15:46:00     -808.694     -197.017      -52.606      371.743      289.428      122.122   138192.800    83768.673    14913.836       46.617       11.844      832.347      151.987        0.033      343.840       20.232      859.920
09/29/2013  15:47:00     -501.903     -190.194        5.323      306.793      296.944      133.593    94121.778    88175.733    17846.970       24.409       10.007      536.731      145.347        0.073      343.966       20.448      859.899
09/29/2013  15:48:00     -846.677     -243.525      -63.926      333.751      327.237      134.942   111389.644   107084.190    18209.422       50.842       11.834      881.003      169.875        0.037      343.828       20.210      859.923
09/29/2013  15:49:00     -550.672     -260.941      -33.416      282.493      240.119       95.153    79802.199    57657.050     9053.998       25.945        7.326      609.368      120.096        0.039      343.890       20.318      859.954
09/29/2013  15:50:00     -535.646     -292.479      -30.106      355.680      280.356      115.275   126508.536    78599.700    13288.348       29.584       10.920      610.296      134.442        0.049      343.949       20.418      859.915
09/29/2013  15:51:00     -488.426     -197.269        1.824      254.699      260.207      115.427    64871.664    67707.730    13323.484       21.166        7.295      526.759      114.123        0.047      343.933       20.391      859.905
09/29/2013  15:52:00     -745.360     -500.235      -38.540      384.918      302.159      173.657   148162.170    91299.779    30156.921       53.840       13.481      897.662      195.518        0.047      343.785       20.137      859.882
09/29/2013  15:53:00     -507.389     -241.534       -8.589      413.603      214.923      145.993   171067.368    46192.051    21313.979       27.717       11.929      561.946      193.667        0.119      343.889       20.317      859.900
09/29/2013  15:54:00     -496.384     -101.950      -18.211      354.164      242.161      120.784   125431.905    58641.810    14588.788       22.785        9.933      506.745      132.363        0.068      344.021       20.542      859.914
09/29/2013  15:55:00     -490.022     -195.046       -4.880      349.238      243.670      126.200   121967.157    59374.988    15926.480       23.769        9.863      527.413      158.974        0.091      343.957       20.432      859.960
09/29/2013  15:56:00     -615.062     -176.130      -26.915      292.715      223.229      116.997    85682.055    49831.025    13688.371       27.959        7.460      639.783      141.552        0.049      343.885       20.309      859.965
09/29/2013  15:57:00     -536.385      -69.707       -8.131      265.437      234.153      116.563    70456.585    54827.406    13587.018       21.572        6.944      540.896      131.536        0.059      343.942       20.406      859.975
09/29/2013  15:58:00     -369.910     -238.273       10.510      305.244      245.975      148.288    93174.201    60503.771    21989.458       18.466        8.783      440.009      169.386        0.148      343.893       20.322      859.920
09/29/2013  15:59:00     -617.890     -139.848      -21.237      350.245      277.741      128.357   122671.294    77139.800    16475.501       30.900       10.814      633.519      140.581        0.049      343.908       20.350      859.944
09/29/2013  16:00:00     -618.269     -415.607      -10.401      341.177      247.476      133.987   116401.408    61244.459    17952.413       37.531        9.780      744.974      163.230        0.048      343.878       20.297      859.985
09/29/2013  16:01:00     -358.032     -301.032       14.821      263.153      233.873      140.259    69249.470    54696.799    19672.588       18.129        7.181      467.768      160.419        0.118      344.056       20.603      859.975
09/29/2013  16:02:00     -743.370     -372.930      -16.005      304.258      305.124      147.079    92572.880    93100.929    21632.087       44.958       10.365      831.671      149.448        0.032      343.925       20.378      860.000
09/29/2013  16:03:00     -575.506     -121.591      -20.978      273.197      218.911      125.310    74636.469    47922.012    15702.650       24.232        6.913      588.211      135.197        0.053      343.988       20.485      860.025
09/29/2013  16:04:00     -553.672     -267.466      -34.325      240.124      200.751      117.082    57659.700    40300.806    13708.085       24.545        5.583      614.891      110.754        0.032      343.866       20.276      859.958
09/29/2013  16:05:00     -508.583     -149.180      -13.820      364.161      299.647      145.982   132613.028    89788.129    21310.793       26.236       12.186      530.011      164.144        0.096      343.997       20.500      859.871
09/29/2013  16:06:00     -518.283     -170.972      -20.306      303.590      229.592      118.362    92166.710    52712.363    14009.544       22.854        7.944      545.755      130.178        0.057      343.898       20.331      859.920
09/29/2013  16:07:00     -654.209     -189.810      -42.103      351.475      189.452      130.847   123534.563    35891.874    17121.003       32.113        8.827      681.188      155.670        0.052      343.931       20.388      859.881
09/29/2013  16:08:00     -675.913     -253.013      -47.283      338.407      270.492      141.286   114519.354    73165.845    19961.599       36.534       10.382      721.716      164.548        0.052      343.852       20.253      859.956
09/29/2013  16:09:00     -540.424     -344.561      -23.392      348.668      281.973      132.457   121569.128    79508.885    17544.824       31.493       10.931      640.921      162.438        0.064      343.878       20.296      860.053
09/29/2013  16:10:00     -498.696     -342.437       -1.964      359.236      227.860      130.252   129050.735    51920.073    16965.455       28.191        9.897      604.947      171.325        0.080      343.792       20.151      860.090
09/29/2013  16:11:00     -514.441     -294.581      -16.267      242.691      219.016      119.872    58899.161    47968.124    14369.231       23.644        6.062      592.813      122.780        0.043      343.802       20.168      860.135
09/29/2013  16:12:00     -495.566     -310.704       -5.570      236.482      194.298       94.118    55923.788    37751.552     8858.117       22.232        5.127      584.912       91.269        0.024      343.748       20.074      860.105
09/29/2013  16:13:00     -391.720     -154.566       13.062      238.137      236.215      112.431    56709.468    55797.582    12640.817       15.130        6.257      421.112      127.599        0.092      343.882       20.303      860.133
09/29/2013  16:14:00     -490.844     -210.090      -12.323      290.085      188.664      101.430    84149.254    35593.941    10288.038       20.760        6.502      533.916      126.697        0.056      343.824       20.203      860.105
09/29/2013  16:15:00     -428.514     -192.308        9.920      358.769      244.046      136.825   128715.225    59558.660    18721.061       21.381       10.350      469.688      170.103        0.131      343.811       20.183      860.083
09/29/2013  16:16:00     -438.411     -306.036      -17.921      289.505      209.967      120.875    83813.117    44086.284    14610.713       21.432        7.126      534.661      143.172        0.072      343.913       20.357      860.134
09/29/2013  16:17:00     -581.094     -320.011      -20.081      302.669      253.516      122.178    91608.594    64270.482    14927.369       30.561        8.540      663.383      150.043        0.051      343.835       20.225      860.161
09/29/2013  16:18:00     -473.101     -318.563       -5.534      273.199      195.103      106.468    74637.783    38065.316    11335.403       22.466        6.202      570.357      121.883        0.046      343.819       20.196      860.122
09/29/2013  16:19:00     -367.997     -206.910      -15.455      208.328      201.662       95.768    43400.510    40667.646     9171.590       13.584        4.662      422.177      106.610        0.064      343.989       20.487      860.189
09/29/2013  16:20:00     -513.051     -263.389      -29.373      294.266      273.134      131.010    86592.696    74601.959    17163.626       25.587        8.918      576.710      137.986        0.057      343.882       20.303      860.193
09/29/2013  16:21:00     -408.854     -168.232        4.560      303.791      254.590      130.396    92289.260    64815.994    17003.105       18.476        8.705      442.112      144.694        0.107      343.988       20.485      860.147
09/29/2013  16:22:00     -498.261     -272.259       -8.389      270.536      286.373      121.627    73189.783    82009.779    14793.034       24.619        8.500      567.793      123.346        0.047      343.886       20.309      860.135
09/29/2013  16:23:00     -545.502     -179.874      -30.832      348.647      349.845      125.562   121554.963   122391.377    15765.831       29.524       12.986      574.393      121.703        0.045      343.898       20.332      860.166
09/29/2013  16:24:00     -614.848     -338.159        0.472      408.951      259.449      138.980   167240.878    67313.923    19315.437       37.308       12.694      701.705      168.985        0.058      343.818       20.194      860.140
09/29/2013  16:25:00     -521.390     -269.588       -1.144      308.087      243.268      133.700    94917.559    59179.528    17875.788       25.821        8.599      586.963      145.123        0.061      343.772       20.117      860.206
09/29/2013  16:26:00     -617.200     -269.828       16.806      466.867      341.827      193.205   217964.943   116845.691    37328.078       41.301       18.607      673.605      228.156        0.115      343.742       20.066      860.178
09/29/2013  16:27:00     -580.802     -390.198        2.332      398.376      295.304      168.587   158703.747    87204.413    28421.648       38.191       13.716      699.704      212.267        0.092      343.658       19.920      860.228
09/29/2013  16:28:00     -664.570     -348.248      -11.301      359.956      334.330      160.858   129568.075   111776.276    25875.419       41.509       13.361      750.287      169.734        0.051      343.731       20.045      860.138
09/29/2013  16:29:00     -729.408     -266.747      -15.260      397.364      284.509      140.280   157897.763    80945.239    19678.550       43.092       12.926      776.653      169.117        0.047      343.709       20.008      860.260
09/29/2013  16:30:00     -588.734     -127.352      -26.901      294.368      218.698      119.817    86652.735    47828.651    14356.139       25.616        7.442      602.350      139.098        0.053      343.791       20.149      860.282
09/29/2013  16:31:00     -478.602      -82.688      -14.503      278.860      153.761      100.479    77762.743    23642.493    10096.054       17.378        5.575      485.692      114.420        0.055      344.079       20.640      860.278
09/29/2013  16:32:00     -543.754     -363.353        6.886      351.565      334.403      160.041   123598.042   111825.350    25613.114       34.434       13.052      653.983      188.126        0.083      343.840       20.232      860.252
09/29/2013  16:33:00     -513.561     -343.518      -22.496      271.814      184.385      103.597    73882.715    33997.892    10732.285       25.041        5.931      617.858      112.876        0.033      343.764       20.101      860.171
09/29/2013  16:34:00     -502.472     -273.744       10.045      332.732      290.571      139.988   110710.679    84431.659    19596.669       27.108       10.737      572.201      164.269        0.082      343.912       20.355      860.244
09/29/2013  16:35:00     -613.967     -287.388      -41.874      350.738      310.550      140.876   123017.333    96441.365    19846.165       35.025       11.965      677.899      157.172        0.054      343.864       20.273      860.256
09/29/2013  16:36:00     -418.355     -130.846        1.446      225.355      193.427      102.045    50784.704    37414.146    10413.151       14.536        4.931      438.339      109.453        0.062      343.870       20.282      860.366
09/29/2013  16:37:00     -479.616     -230.726       -9.127      311.357      242.489      116.380    96943.318    58801.122    13544.204       22.628        8.464      532.227      136.394        0.066      343.828       20.212      860.338
09/29/2013  16:38:00     -511.316     -346.247      -34.733      266.462      236.757      116.535    71001.945    56053.842    13580.421       26.156        7.032      617.520      126.470        0.042      343.768       20.110      860.380
09/29/2013  16:39:00     -488.267     -400.151       -3.453      330.764      247.963      148.676   109404.537    61485.477    22104.489       29.573        9.650      631.288      173.852        0.076      343.715       20.018      860.311
09/29/2013  16:40:00     -526.707     -294.695      -10.033      322.452      216.058      112.724   103975.212    46680.944    12706.616       26.383        8.168      603.544      137.722        0.052      343.630       19.874      860.244
09/29/2013  16:41:00     -447.262     -310.591        6.317      249.014      226.273      125.152    62008.172    51199.482    15662.916       21.268        6.444      544.527      133.662        0.060      343.747       20.073      860.321
09/29/2013  16:42:00     -636.037     -270.181       -5.777      449.829      297.990      171.859   202345.795    88798.291    29535.478       39.906       16.034      691.044      213.316        0.095      343.575       19.779      860.263
09/29/2013  16:43:00     -483.990     -308.855      -14.070      276.940      243.957      118.633    76695.602    59515.209    14073.857       24.003        7.514      574.141      128.700        0.050      343.600       19.823      860.357
09/29/2013  16:44:00     -350.531     -289.898        3.160      277.130      212.924      131.512    76800.821    45336.722    17295.508       17.315        6.972      454.877      163.149        0.129      343.656       19.919      860.326
09/29/2013  16:45:00     -532.311     -404.561      -12.713      357.212      264.709      160.455   127600.718    70070.599    25745.765       33.526       11.171      668.599      191.600        0.082      343.541       19.721      860.285
09/29/2013  16:46:00     -487.617     -262.486       -6.384      265.465      168.400       94.942    70471.732    28358.705     9013.946       20.726        5.392      553.777      107.168        0.037      343.630       19.875      860.319
09/29/2013  16:47:00     -540.930     -321.232      -16.840      254.162      208.184      110.847    64598.148    43340.469    12287.070       25.813        6.011      629.123      135.635        0.046      343.663       19.930      860.284
09/29/2013  16:48:00     -500.419     -164.431       -7.745      283.209      182.686       97.938    80207.330    33374.282     9591.827       20.032        6.159      526.741      110.862        0.044      343.652       19.911      860.299
09/29/2013  16:49:00     -369.141     -250.271        1.955      254.291      167.603      104.608    64664.091    28090.826    10942.901       15.128        5.185      445.983      127.917        0.082      343.738       20.058      860.281
09/29/2013  16:50:00     -357.715     -199.797       -7.278      245.064      232.195      112.834    60056.188    53914.646    12731.587       14.729        6.335      409.730      114.946        0.079      343.699       19.991      860.262
09/29/2013  16:51:00     -488.456     -393.881       -9.254      320.170      248.039      133.033   102508.786    61523.541    17697.675       28.774        9.087      627.480      162.811        0.067      343.581       19.790      860.221
09/29/2013  16:52:00     -592.411     -346.482      -32.620      308.609      233.310      123.585    95239.461    54433.733    15273.220       31.847        8.247      686.295      148.985        0.047      343.542       19.723      860.270
09/29/2013  16:53:00     -439.004     -170.137       10.252      277.525      199.853      113.787    77020.042    39941.284    12947.450       17.582        6.495      470.820      133.218        0.080      343.656       19.920      860.254
09/29/2013  16:54:00     -414.847     -215.305       10.058      306.470      202.091      108.111    93923.907    40840.844    11688.030       18.247        7.323      467.391      138.021        0.087      343.656       19.918      860.241
09/29/2013  16:55:00     -334.967     -205.937        6.293      256.893      213.198      114.664    65993.807    45453.201    13147.820       13.960        6.230      393.208      114.142        0.084      343.660       19.925      860.225
09/29/2013  16:56:00     -356.573     -285.833        2.410      290.632      187.678      121.736    84467.056    35223.174    14819.756       17.165        6.725      456.995      154.132        0.114      343.618       19.854      860.214
09/29/2013  16:57:00     -544.706     -309.738       -6.618      298.576      254.759      123.902    89147.824    64901.947    15351.750       28.101        8.470      626.611      144.817        0.053      343.570       19.771      860.174
09/29/2013  16:58:00     -633.723     -315.714      -18.881      464.939      266.215      128.526   216168.223    70870.432    16518.931       40.254       15.178      708.011      161.499        0.052      343.619       19.856      860.193
09/29/2013  16:59:00     -396.291     -238.310       21.167      326.220      219.328      127.926   106419.685    48104.900    16364.968       19.255        8.544      462.427      163.201        0.125      343.666       19.934      860.212
09/29/2013  17:00:00     -456.149     -355.837       -8.637      239.610      193.407      127.801    57412.780    37406.352    16333.028       22.294        5.558      578.526      119.585        0.043      343.569       19.770      860.211
09/29/2013  17:01:00     -439.759     -290.609      -13.569      248.971      204.022       90.887    61986.660    41625.052     8260.493       19.493        5.594      527.107      102.391        0.038      343.610       19.839      860.138
09/29/2013  17:02:00     -359.008     -147.982        3.716      258.895      200.946       98.092    67026.736    40379.296     9622.068       13.389        5.851      388.311      110.608        0.081      343.732       20.047      860.165
09/29/2013  17:03:00     -569.073     -248.209      -35.580      279.512      184.694      106.125    78127.015    34111.824    11262.532       25.508        6.175      620.848      126.423        0.041      343.647       19.902      860.164
09/29/2013  17:04:00     -310.031     -197.081       -5.041      194.912      176.282       89.013    37990.761    31075.231     7923.315       10.597        3.849      367.369       99.357        0.073      343.778       20.127      860.169
09/29/2013  17:05:00     -373.522     -189.767       11.979      264.094      184.057      119.349    69745.539    33876.901    14244.186       14.675        5.893      418.964      121.392        0.084      343.806       20.173      860.162
09/29/2013  17:06:00     -454.919     -396.901       -0.535      391.530      314.481      163.143   153296.020    98898.155    26615.770       32.159       13.940      603.724      211.603        0.123      343.572       19.776      860.102
09/29/2013  17:07:00     -465.806     -288.791       -6.469      312.823      299.408      119.772    97858.151    89645.207    14345.313       25.109       10.092      548.065      147.533        0.072      343.593       19.811      860.176
09/29/2013  17:08:00     -392.827     -172.549       -1.602      298.086      245.589      126.776    88855.165    60313.712    16072.204       17.463        8.262      429.053      145.910        0.116      343.615       19.848      860.170
09/29/2013  17:09:00     -487.220     -261.873      -15.927      176.150      184.774      104.113    31028.995    34141.591    10839.447       19.110        3.801      553.138      100.050        0.033      343.649       19.906      860.164
09/29/2013  17:10:00     -520.954     -245.976       -3.578      225.708      179.894       96.283    50944.258    32361.804     9270.376       21.222        4.629      576.105      100.692        0.031      343.549       19.734      860.134
09/29/2013  17:11:00     -325.875     -189.321      -14.124      219.531      183.994      105.807    48193.934    33853.799    11195.124       11.772        4.662      376.878      123.297        0.107      343.598       19.819      860.121
09/29/2013  17:12:00     -360.678     -197.533       -2.356      275.276      144.297       80.613    75777.125    20821.563     6498.412       13.608        5.155      411.227      105.397        0.066      343.607       19.835      860.184
09/29/2013  17:13:00     -374.812     -225.320        4.007      242.466      160.257       95.498    58789.594    25682.192     9119.913       14.241        4.680      437.325      108.867        0.062      343.500       19.651      860.173
09/29/2013  17:14:00     -301.621     -279.502       -2.748      185.170      148.713       88.284    34287.997    22115.422     7794.126       11.664        3.210      411.214      102.122        0.062      343.502       19.655      860.178
09/29/2013  17:15:00     -241.978     -309.982        8.279      172.025      156.839       99.851    29592.671    24598.613     9970.251       10.942        3.208      393.245      104.886        0.071      343.506       19.662      860.204
09/29/2013  17:16:00     -319.249     -186.656       12.261      273.280      200.427      108.142    74682.168    40171.059    11694.723       13.170        6.327      369.811      121.144        0.107      343.543       19.725      860.292
09/29/2013  17:17:00     -537.118     -335.838       -9.451      278.481      177.916      105.479    77551.800    31653.977    11125.786       26.083        6.017      633.469      123.862        0.038      343.347       19.391      860.248
09/29/2013  17:18:00     -345.197     -242.415        5.715      200.726      163.442       95.319    40290.974    26713.360     9085.661       12.701        3.804      421.812       91.015        0.047      343.495       19.644      860.250
09/29/2013  17:19:00     -377.610     -111.025       -0.796      180.333      152.929       84.612    32520.020    23387.296     7159.201       10.898        3.153      393.593       82.363        0.044      343.516       19.679      860.288
09/29/2013  17:20:00     -365.115     -242.136      -18.954      194.408      145.438       90.703    37794.631    21152.244     8226.992       12.972        3.359      438.109       97.496        0.050      343.474       19.608      860.290
09/29/2013  17:21:00     -358.927     -209.004        3.119      260.241      149.628       94.721    67725.270    22388.512     8972.113       13.578        4.954      415.344      103.274        0.062      343.459       19.581      860.265
09/29/2013  17:22:00     -363.562     -265.511        1.002      260.778      181.013       99.884    68005.267    32765.579     9976.853       15.669        5.537      450.192      121.784        0.073      343.439       19.549      860.298
09/29/2013  17:23:00     -439.061     -275.030      -10.980      240.498      192.476      107.796    57839.473    37046.993    11619.953       18.750        5.325      518.089      107.528        0.043      343.340       19.380      860.243
09/29/2013  17:24:00     -362.803     -223.674        5.034      180.231      170.432       91.333    32483.119    29046.941     8341.697       12.576        3.494      426.211      103.341        0.059      343.379       19.446      860.223
09/29/2013  17:25:00     -268.733     -184.599       -5.908      224.060      205.287      119.041    50202.876    42142.749    14170.766       10.640        5.326      326.028      125.724        0.149      343.359       19.412      860.210
09/29/2013  17:26:00     -491.007     -147.524      -11.951      255.945      213.951      113.410    65507.797    45775.141    12861.790       19.354        6.207      512.690      127.543        0.062      343.338       19.377      860.232
09/29/2013  17:27:00     -486.090     -250.972       -9.663      224.715      201.623       95.519    50496.643    40651.812     9123.867       19.980        5.014      547.056      113.213        0.043      343.267       19.255      860.258
09/29/2013  17:28:00     -522.732      -98.895      -13.207      204.567      202.013       95.434    41847.729    40809.108     9107.717       18.747        4.588      532.004       96.129        0.033      343.285       19.284      860.276
09/29/2013  17:29:00     -220.397     -177.064        7.282      167.748      151.647       72.577    28139.460    22996.681     5267.352        6.818        2.820      282.713       83.266        0.087      343.366       19.424      860.277
09/29/2013  17:30:00     -392.598     -301.792      -14.343      226.558      187.173       99.165    51328.378    35033.702     9833.777       17.079        4.810      495.189      111.152        0.050      343.295       19.303      860.242
09/29/2013  17:31:00     -287.472     -156.198       -7.061      258.504      151.718       85.640    66824.065    23018.213     7334.142       10.211        4.859      327.166       81.164        0.062      343.304       19.318      860.222
09/29/2013  17:32:00     -414.367     -304.530      -13.553      296.259      173.778      126.499    87769.480    30198.641    16002.059       19.927        6.699      514.236      147.640        0.082      343.227       19.187      860.202
09/29/2013  17:33:00     -373.649     -309.820        1.275      246.807      187.608      132.714    60913.817    35196.628    17613.040       17.464        5.686      485.388      140.460        0.084      343.234       19.198      860.211
09/29/2013  17:34:00     -362.733     -302.107       -6.036      253.927      185.900      114.991    64478.775    34558.668    13222.855       16.755        5.613      472.063      127.675        0.073      343.228       19.188      860.250
09/29/2013  17:35:00     -339.960     -292.132      -18.796      204.932      148.757      103.405    41997.030    22128.509    10692.511       13.803        3.741      448.234      104.620        0.054      343.254       19.233      860.238
09/29/2013  17:36:00     -437.895     -203.813        2.127      251.748      230.259      102.608    63376.950    53019.143    10528.378       18.008        6.346      483.003      109.970        0.052      343.262       19.245      860.182
09/29/2013  17:37:00     -447.397     -208.095        1.388      191.255      194.897       92.121    36578.627    37984.750     8486.321       16.324        4.152      493.424       97.065        0.039      343.281       19.278      860.210
09/29/2013  17:38:00     -464.774     -329.064      -25.544      232.773      189.592       90.043    54183.401    35945.052     8107.764       21.157        4.912      569.472       96.518        0.029      343.236       19.202      860.240
09/29/2013  17:39:00     -296.547     -240.612       -5.283      217.062      156.136       97.986    47116.116    24378.491     9601.302       11.346        4.055      381.882      105.948        0.077      343.213       19.164      860.230
09/29/2013  17:40:00     -396.550     -145.776      -13.778      150.160      149.260       89.436    22548.053    22278.658     7998.717       11.575        2.641      422.496       82.294        0.038      343.224       19.181      860.259
09/29/2013  17:41:00     -410.996     -141.483      -14.008      182.788      138.760       74.773    33411.593    19254.428     5591.023       12.368        2.913      434.667       80.177        0.034      343.248       19.223      860.288
09/29/2013  17:42:00     -341.680     -175.811        1.117      185.897      191.115       91.019    34557.770    36524.980     8284.548       11.350        3.968      384.258      104.911        0.075      343.254       19.231      860.317
09/29/2013  17:43:00     -364.810     -344.626        4.032      230.530      178.058      112.524    53144.136    31704.687    12661.592       17.467        4.876      501.850      133.144        0.070      343.217       19.169      860.304
09/29/2013  17:44:00     -322.532     -217.282      -21.366      165.248      127.681       83.735    27306.949    16302.456     7011.489       10.115        2.531      388.894       76.757        0.039      343.216       19.168      860.312
09/29/2013  17:45:00     -400.166     -195.063      -29.593      166.981      167.739       99.503    27882.764    28136.332     9900.937       13.248        3.296      445.177       88.076        0.039      343.195       19.133      860.328
09/29/2013  17:46:00     -282.493     -148.978       -6.071      207.267      218.359      121.254    42959.713    47680.806    14702.509       10.367        5.267      319.369      109.683        0.118      343.162       19.076      860.315
09/29/2013  17:47:00     -443.340     -130.201      -39.207      239.803      182.260       89.237    57505.264    33218.688     7963.194       15.684        4.934      462.064      111.472        0.058      343.165       19.080      860.257
09/29/2013  17:48:00     -424.655     -133.304      -17.976      282.194      167.496       96.857    79633.730    28054.999     9381.315       15.772        5.854      445.087      129.123        0.084      343.168       19.086      860.289
09/29/2013  17:49:00     -574.449     -210.431      -12.188      264.240      232.369      127.590    69822.704    53995.425    16279.245       25.723        7.005      611.779      138.196        0.051      343.143       19.044      860.225
09/29/2013  17:50:00     -315.080     -170.480       22.891      242.944      167.184      108.087    59021.741    27950.363    11682.771       11.374        4.933      358.244      123.147        0.118      343.160       19.071      860.241
09/29/2013  17:51:00     -223.444     -214.571        8.832      152.015      191.803       78.547    23108.618    36788.475     6169.581        8.104        3.303      309.787       92.687        0.090      343.144       19.047      860.249
09/29/2013  17:52:00     -206.380     -190.014       13.913      160.471      120.601       75.865    25750.944    14544.519     5755.496        6.246        2.303      280.532       72.656        0.067      343.189       19.120      860.243
09/29/2013  17:53:00     -244.442      -81.899        2.430      177.151      145.044       74.104    31382.470    21037.905     5491.444        6.218        2.896      257.797       98.931        0.147      343.207       19.153      860.240
09/29/2013  17:54:00     -260.947     -230.369        8.731      180.260      146.273       89.181    32493.588    21395.649     7953.259        9.153        3.092      348.085       94.960        0.074      343.149       19.054      860.210
09/29/2013  17:55:00     -603.443     -353.811      -31.806      350.165      220.877      129.310   122615.768    48786.792    16721.190       33.919        9.406      699.518      154.104        0.049      343.067       18.915      860.147
09/29/2013  17:56:00     -439.586     -227.687      -16.611      311.730      199.950      129.263    97175.746    39979.863    16708.860       19.958        7.693      495.053      154.356        0.097      343.076       18.929      860.119
09/29/2013  17:57:00     -363.911     -273.950       15.390      287.416      282.933      142.140    82608.195    80051.048    20203.710       19.525        9.143      455.500      163.541        0.129      343.099       18.970      860.076
09/29/2013  17:58:00     -317.215     -276.641       21.557      257.167      197.157      123.129    66134.677    38870.739    15160.727       14.887        6.008      420.899      136.635        0.105      343.137       19.033      860.128
09/29/2013  17:59:00     -389.414     -230.292        5.545      246.833      183.335      118.328    60926.624    33611.545    14001.401       15.660        5.427      452.413      122.174        0.073      343.144       19.044      860.150
09/29/2013  18:00:00     -369.721     -250.889       10.809      229.824      210.475      118.394    52819.073    44299.723    14017.173       15.542        5.557      446.810      134.134        0.090      343.135       19.029      860.137
09/29/2013  18:01:00     -369.189     -294.432       -6.284      192.326      180.459       98.162    36989.106    32565.588     9635.748       15.109        3.960      472.219       93.888        0.040      343.090       18.954      860.121
09/29/2013  18:02:00     -535.677     -185.453      -33.099      239.709      169.196       90.696    57460.168    28627.449     8225.761       20.836        4.716      566.871       98.834        0.030      343.105       18.979      860.115
09/29/2013  18:03:00     -576.737     -149.890       -4.440      329.275      240.907      121.694   108422.029    58036.313    14809.414       26.815        9.063      595.897      142.803        0.057      343.184       19.113      860.026
09/29/2013  18:04:00     -511.571     -207.909      -28.246      278.999      227.656      113.294    77840.627    51827.273    12835.503       22.409        7.125      552.205      137.312        0.062      343.230       19.192      860.121
09/29/2013  18:05:00     -390.491     -242.251      -12.135      193.376      167.291       86.568    37394.153    27986.294     7494.011       14.208        3.644      459.531       91.576        0.040      343.209       19.157      860.173
09/29/2013  18:06:00     -288.930      -88.028       -5.095      176.003      128.688       75.648    30976.973    16560.695     5722.575        7.225        2.663      302.043       76.351        0.064      343.229       19.189      860.203
09/29/2013  18:07:00     -332.576     -255.527       -7.226      193.256      116.389       77.691    37347.916    13546.427     6035.850       11.643        2.847      419.405       85.620        0.042      343.191       19.125      860.190
09/29/2013  18:08:00     -409.335     -162.387       -1.033      244.975      174.829       85.419    60012.778    30565.262     7296.405       14.588        4.894      440.369      101.708        0.053      343.187       19.118      860.133
09/29/2013  18:09:00     -451.509     -253.344      -30.455      223.441      241.955       92.204    49925.777    58542.408     8501.594       19.295        5.848      517.730      100.463        0.038      343.146       19.049      860.116
09/29/2013  18:10:00     -637.617     -306.825      -31.201      258.948      237.428      129.585    67053.886    56371.819    16792.381       32.092        7.011      707.599      126.478        0.032      343.075       18.926      860.067
09/29/2013  18:11:00     -505.952     -411.915      -19.459      229.762      230.699      121.685    52790.746    53221.846    14807.126       27.341        6.041      652.427      126.896        0.038      343.063       18.906      860.070
09/29/2013  18:12:00     -434.219     -338.063      -12.041      242.718      193.155      111.518    58911.979    37308.791    12436.327       20.580        5.433      550.303      126.117        0.053      343.026       18.843      860.060
09/29/2013  18:13:00     -240.531     -143.039       19.240      221.283      125.909       97.849    48966.383    15853.159     9574.351        7.652        3.720      279.849      113.058        0.163      343.061       18.904      860.021
09/29/2013  18:14:00     -322.031     -151.021        2.050      232.633      162.050       83.929    54118.066    26260.291     7044.135       10.695        4.371      355.685      104.344        0.086      343.087       18.948      860.045
09/29/2013  18:15:00     -404.863     -306.542      -17.429      170.506      140.238       75.397    29072.436    19666.725     5684.696       15.629        2.721      507.821       79.920        0.025      343.089       18.951      860.049
09/29/2013  18:16:00     -470.662     -216.441      -10.491      219.140      215.098      101.199    48022.432    46267.111    10241.192       18.648        5.227      518.044       95.930        0.034      343.045       18.877      860.070
09/29/2013  18:17:00     -466.292     -246.226      -24.848      238.337      191.445       90.368    56804.596    36651.253     8166.366       19.013        5.081      527.309      105.232        0.040      343.007       18.810      860.077
09/29/2013  18:18:00     -353.266     -144.530       -5.376      232.469      208.637       99.622    54041.630    43529.470     9924.637       12.658        5.375      381.688      104.475        0.075      342.980       18.767      860.068
09/29/2013  18:19:00     -400.570     -189.353       11.960      215.713      197.102      105.219    46531.890    38849.147    11071.048       14.643        4.823      443.070      116.719        0.069      342.931       18.684      860.073
09/29/2013  18:20:00     -435.569     -192.904      -32.623      280.797      190.125       97.343    78846.835    36147.623     9475.564       17.621        6.224      476.374      126.284        0.070      342.906       18.639      860.069
09/29/2013  18:21:00     -467.749     -284.906       -6.329      231.642      177.772       98.972    53658.104    31602.840     9795.448       19.751        4.753      547.687      114.043        0.043      342.869       18.578      860.071
09/29/2013  18:22:00     -528.475     -249.713      -28.667      185.502      171.978       97.345    34410.882    29576.488     9476.070       20.795        3.673      584.502       83.864        0.021      342.866       18.572      860.070
09/29/2013  18:23:00     -297.904     -103.091       20.145      165.898      136.485       77.237    27522.225    18628.075     5965.592        7.594        2.606      315.237       77.766        0.061      342.891       18.615      860.041
09/29/2013  18:24:00     -232.809     -128.750       -6.302      124.662      112.687       60.537    15540.563    12698.387     3664.766        5.135        1.595      266.039       65.533        0.061      342.888       18.611      860.027
09/29/2013  18:25:00     -391.881      -67.216      -29.729      189.497      153.499       72.961    35908.963    23561.914     5323.245       11.187        3.240      397.603       84.901        0.046      342.864       18.567      860.033
09/29/2013  18:26:00     -472.167     -194.664      -17.015      286.197      183.324       98.294    81908.694    33607.564     9661.666       19.313        6.259      510.721      115.160        0.051      342.857       18.557      860.042
09/29/2013  18:27:00     -491.368     -156.496      -27.201      211.256      154.249       78.865    44628.908    23792.797     6219.629       17.064        3.732      515.687       76.124        0.022      342.864       18.569      860.040
09/29/2013  18:28:00     -422.968      -73.121       -9.562      255.875      130.133       91.250    65472.260    16934.631     8326.633       13.752        4.537      429.242      105.535        0.060      342.852       18.548      860.066
09/29/2013  18:29:00     -413.210     -248.254      -31.955      234.555      177.209      100.804    55015.910    31403.196    10161.544       16.497        4.829      482.051      121.031        0.063      342.865       18.570      860.010
09/29/2013  18:30:00     -298.931     -108.716       -5.935      191.767      123.171       77.380    36774.596    15171.211     5987.599        7.956        2.897      318.087       93.469        0.086      342.867       18.574      860.005
09/29/2013  18:31:00     -346.657     -299.508      -18.753      158.727      154.818       74.709    25194.416    23968.575     5581.422       13.248        2.737      458.123       76.309        0.028      342.862       18.564      860.026
09/29/2013  18:32:00     -360.132     -157.140      -27.661      181.118      166.015       78.756    32803.562    27561.057     6202.454       11.085        3.328      392.922       92.250        0.055      342.879       18.593      860.005
09/29/2013  18:33:00     -247.053     -215.778        4.528      178.410      143.362       87.481    31830.077    20552.531     7652.864        8.381        3.002      328.017       89.864        0.075      342.872       18.584      860.007
09/29/2013  18:34:00     -343.867     -203.746        5.826      200.377      138.104       87.555    40151.077    19072.647     7665.847       11.333        3.344      399.696      100.432        0.063      342.863       18.567      859.998
09/29/2013  18:35:00     -261.736     -186.538       -7.229      157.117      130.834       72.599    24685.679    17117.596     5270.607        7.520        2.354      321.407       79.417        0.061      342.851       18.545      859.987
09/29/2013  18:36:00     -417.519     -172.698      -29.965      189.924      135.306       94.590    36071.053    18307.726     8947.275       13.417        3.166      451.826       94.657        0.044      342.821       18.496      859.998
09/29/2013  18:37:00     -374.091     -225.401       -0.286      222.682      140.798       92.084    49587.189    19824.034     8479.526       13.430        3.895      436.749      101.493        0.054      342.776       18.418      859.995
09/29/2013  18:38:00     -356.197     -182.195       -0.729      234.775      147.129       83.954    55119.110    21646.985     7048.356       12.193        4.191      400.089      102.036        0.065      342.733       18.346      859.954
09/29/2013  18:39:00     -298.934     -254.639      -16.287      252.815      166.218       81.651    63915.375    27628.533     6666.818       12.632        4.911      392.686       89.063        0.051      342.735       18.350      859.944
09/29/2013  18:40:00     -433.510     -278.678       -0.592      231.279      144.384       89.764    53490.179    20846.616     8057.519       17.398        4.120      515.357      104.548        0.041      342.709       18.307      859.917
09/29/2013  18:41:00     -249.994     -160.058        6.763      168.284      121.993       71.256    28319.538    14882.346     5077.485        6.821        2.414      296.842       71.008        0.057      342.720       18.323      859.951
09/29/2013  18:42:00     -288.718     -149.832      -12.603      165.211      172.938       83.533    27294.560    29907.605     6977.836        8.506        3.209      325.282       95.195        0.086      342.761       18.393      859.922
09/29/2013  18:43:00     -438.729     -337.745      -15.946      232.372      204.674       89.943    53996.617    41891.334     8089.753       20.537        5.199      553.674      109.874        0.039      342.837       18.522      859.893
09/29/2013  18:44:00     -279.275     -263.935       -0.030      232.907      166.233       95.112    54245.560    27633.436     9046.270       11.927        4.546      384.260      114.503        0.089      342.878       18.594      859.873
09/29/2013  18:45:00     -258.696     -293.192        4.048      171.731      137.979       89.346    29491.551    19038.306     7982.620       10.470        2.826      391.005       85.048        0.047      342.843       18.534      859.887
09/29/2013  18:46:00     -287.356     -169.598        6.336      171.065      145.864       69.493    29263.237    21276.319     4829.266        8.336        2.768      333.672       80.354        0.058      342.817       18.490      859.899
09/29/2013  18:47:00     -289.865     -174.431      -11.327      131.113      149.781       76.137    17190.593    22434.297     5796.843        7.999        2.271      338.301       69.994        0.043      342.761       18.393      859.818
09/29/2013  18:48:00     -266.505     -197.229        1.628      120.093      112.280       72.866    14422.439    12606.761     5309.503        7.113        1.617      331.548       66.285        0.040      342.735       18.349      859.804
09/29/2013  18:49:00     -326.740     -173.613       -6.351      179.423      115.106       55.634    32192.538    13249.350     3095.122        9.273        2.427      370.001       56.448        0.023      342.744       18.365      859.827
09/29/2013  18:50:00     -222.342     -156.403       -7.460      177.664      119.860       60.637    31564.454    14366.536     3676.885        6.177        2.480      271.842       61.798        0.052      342.721       18.327      859.803
09/29/2013  18:51:00     -270.695     -273.757       -8.664      147.858      124.886       91.995    21861.857    15596.418     8463.015        9.710        2.296      384.992       84.507        0.048      342.656       18.216      859.781
09/29/2013  18:52:00     -176.506      -82.455       24.548      146.272      149.602       75.779    21395.387    22380.832     5742.472        4.403        2.476      194.816       80.179        0.169      342.605       18.129      859.684
09/29/2013  18:53:00     -275.786     -206.576      -11.783      176.170      168.328       82.118    31035.906    28334.203     6743.397        9.248        3.306      344.574       76.320        0.049      342.622       18.158      859.659
09/29/2013  18:54:00     -238.951     -227.707        5.468      148.014      144.621       78.790    21908.123    20915.293     6207.939        7.899        2.452      330.072       76.776        0.054      342.645       18.196      859.710
09/29/2013  18:55:00     -406.752     -203.780      -20.773      194.251      165.890       86.384    37733.624    27519.403     7462.121       14.005        3.636      454.943       91.930        0.041      342.662       18.223      859.729
09/29/2013  18:56:00     -170.562     -156.744        2.118      129.133      138.985       63.411    16675.265    19316.857     4020.953        4.683        2.001      231.647       53.504        0.053      342.652       18.210      859.726
09/29/2013  18:57:00     -263.201     -152.543      -11.156      127.191      110.239       61.512    16177.576    12152.681     3783.685        6.238        1.606      304.210       60.022        0.039      342.624       18.161      859.772
09/29/2013  18:58:00     -278.816     -266.070       -3.841      200.470      176.294       96.468    40188.400    31079.445     9306.037       11.454        4.029      385.398      100.899        0.069      342.565       18.061      859.827
09/29/2013  18:59:00     -359.418     -235.142      -20.192      147.818      125.927       67.844    21850.089    15857.587     4602.818       11.359        2.116      429.503       70.249        0.027      342.559       18.050      859.853
09/29/2013  19:00:00     -288.315     -175.025       -9.846      167.547      114.191       65.334    28071.995    13039.639     4268.518        7.961        2.269      337.282       78.468        0.054      342.541       18.020      859.841
09/29/2013  19:01:00     -190.190     -151.378       10.791      149.406      190.701       70.100    22322.161    36366.853     4913.954        6.139        3.180      243.079       76.621        0.099      342.568       18.065      859.779
09/29/2013  19:02:00     -345.700     -438.183      -11.124      198.300      220.620      112.158    39323.012    48673.353    12579.460       20.609        5.029      558.133      114.060        0.042      342.905       18.638      859.708
09/29/2013  19:03:00     -222.997     -203.505       -5.440      173.337      131.449       76.782    30045.834    17278.780     5895.505        7.218        2.661      301.897       70.140        0.054      342.810       18.477      859.747
09/29/2013  19:04:00     -206.613     -153.430        7.614      182.414      104.583       69.586    33275.048    10937.621     4842.252        5.766        2.453      257.351       85.532        0.110      342.672       18.242      859.788
09/29/2013  19:05:00     -215.905      -43.065        9.019      118.684      151.762       67.213    14085.995    23031.589     4517.637        4.508        2.082      220.158       66.302        0.091      342.638       18.186      859.777
09/29/2013  19:06:00     -146.718     -114.070       -5.589       72.044       70.691       36.979     5190.314     4997.276     1367.457        2.306        0.578      185.844       38.665        0.043      342.680       18.255      859.851
09/29/2013  19:07:00      -63.270      -42.135       14.412      131.985       57.481       39.624    17419.990     3304.029     1570.025        1.414        1.115       76.016       49.365        0.422      342.622       18.160      859.890
09/29/2013  19:08:00        0.680      -55.001        0.106       88.697       43.572       33.113     7867.129     1898.499     1096.484        0.694        0.543       55.005       21.097        0.147      342.354       17.705      859.850
09/29/2013  19:09:00      -82.823      -47.255        2.711       89.256       57.573       39.387     7966.616     3314.695     1551.338        1.096        0.642       95.356       40.432        0.180      342.650       18.206      859.934
09/29/2013  19:10:00      -54.851      -47.059       18.333       76.822       60.517       37.682     5901.588     3662.297     1419.963        0.827        0.549       72.272       33.529        0.215      342.574       18.079      859.917
09/29/2013  19:11:00     -163.856      -56.016       23.844      315.592      141.533      110.567    99598.437    20031.689    12225.049        8.118        6.593      173.166      143.930        0.691      342.502       17.954      859.789
09/29/2013  19:12:00     -199.259      -96.702        4.099      102.189      110.903       58.473    10442.565    12299.368     3419.078        3.761        1.308      221.484       58.823        0.071      342.504       17.958      859.881
09/29/2013  19:13:00      -99.179      -21.432       15.271      113.625       67.056       51.137    12910.717     4496.460     2614.956        1.527        1.001      101.468       61.632        0.369      342.435       17.839      859.943
09/29/2013  19:14:00     -199.401     -122.264       -1.319      138.517      105.243       57.935    19186.935    11076.073     3356.417        4.416        1.681      233.900       56.824        0.059      342.443       17.852      859.897
09/29/2013  19:15:00     -300.229     -160.310      -10.617      179.496       91.905       70.900    32218.816     8446.462     5026.743        8.081        2.285      340.348       54.404        0.026      342.432       17.837      859.933
09/29/2013  19:16:00     -103.987      -61.588        6.467       83.808       58.159       42.885     7023.768     3382.480     1839.085        1.344        0.612      120.857       40.759        0.114      342.413       17.807      859.936
09/29/2013  19:17:00     -125.121      -71.116        3.721      103.640       63.209       48.022    10741.253     3995.406     2306.099        1.888        0.852      143.920       36.424        0.064      342.410       17.800      859.909
09/29/2013  19:18:00     -236.470     -154.914        2.741      205.106      115.910       70.785    42068.333    13435.034     5010.495        7.021        3.026      282.695       77.695        0.076      342.444       17.854      859.942
09/29/2013  19:19:00     -102.288      -73.603       13.043      135.850       86.474       46.599    18455.238     7477.802     2171.476        2.207        1.405      126.016       54.613        0.188      342.402       17.784      859.920
09/29/2013  19:20:00     -179.915      -46.874       -7.347       71.786       57.293       41.927     5153.183     3282.472     1757.850        2.240        0.510      185.920       38.325        0.042      342.370       17.729      859.829
09/29/2013  19:21:00     -131.581     -119.410       -6.961       97.197      106.822       51.945     9447.241    11410.861     2698.233        2.758        1.178      177.686       51.138        0.083      342.385       17.754      859.842
09/29/2013  19:22:00     -215.540      -88.582        4.827      166.546      143.416       69.223    27737.700    20568.152     4791.875        5.370        2.655      233.032       87.669        0.142      342.324       17.651      859.927
09/29/2013  19:23:00     -233.793      -88.892        5.876      144.025       97.382       53.251    20743.238     9483.244     2835.704        4.782        1.653      250.122       60.956        0.059      342.328       17.658      859.914
09/29/2013  19:24:00     -381.607     -237.265       -8.405      172.278      204.698       81.848    29679.680    41901.138     6699.036       14.012        3.914      449.354       78.137        0.030      342.338       17.672      859.803
09/29/2013  19:25:00     -367.433     -203.253      -17.350      204.040      128.247       80.093    41632.180    16447.407     6414.839       12.054        3.225      419.903       89.671        0.046      342.333       17.666      859.878
09/29/2013  19:26:00     -273.297     -154.339       -9.888      147.634      135.938       67.237    21795.927    18479.078     4520.864        7.169        2.240      313.866       69.484        0.049      342.307       17.622      859.983
09/29/2013  19:27:00     -238.417     -133.995        2.484      167.889       86.440       60.317    28186.805     7471.915     3638.089        5.704        1.965      273.491       70.696        0.067      342.358       17.709      860.002
09/29/2013  19:28:00      -51.117      -98.657        3.474       64.490       92.329       58.166     4158.989     8524.592     3383.336        1.421        0.803      111.114       52.569        0.224      342.380       17.747      859.928
09/29/2013  19:29:00      -20.862      -39.227        4.945       62.779       71.641       31.766     3941.233     5132.444     1009.091        0.604        0.504       44.429       35.260        0.630      342.232       17.497      859.861
09/29/2013  19:30:00      -60.127      -85.003        7.083      109.650       80.848       46.124    12023.096     6536.396     2127.446        1.578        1.034      104.119       60.579        0.339      342.234       17.500      859.886
09/29/2013  19:31:00     -170.848       35.996        1.101      141.899       59.374       41.466    20135.235     3525.303     1719.428        2.793        1.269      174.599       54.928        0.099      342.339       17.678      859.926
09/29/2013  19:32:00     -359.079       13.236      -12.391      154.425      135.098       72.343    23847.092    18251.400     5233.518        8.829        2.367      359.323       62.868        0.031      342.355       17.702      859.957
09/29/2013  19:33:00     -132.994     -163.927      -12.509       99.982      137.262       69.478     9996.464    18840.940     4827.170        3.918        1.683      211.091       47.977        0.052      342.427       17.826      859.976
09/29/2013  19:34:00      -25.571      -91.946       -9.642       45.382       99.052       37.943     2059.541     9811.289     1439.696        1.125        0.666       95.435       25.811        0.073      342.316       17.640      859.898
09/29/2013  19:35:00     -121.349      -60.527      -16.727       78.107       50.014       32.741     6100.764     2501.436     1071.972        1.417        0.484      135.606       24.435        0.032      342.387       17.762      859.927
09/29/2013  19:36:00       54.373     -160.365        2.139       86.115      138.928       70.915     7415.802    19300.977     5028.982        3.021        1.587      169.332       80.625        0.227      342.328       17.658      859.983
09/29/2013  19:37:00      -17.961      -95.868        6.505       87.357       74.210       33.112     7631.309     5507.106     1096.386        1.189        0.712       97.536       40.403        0.172      342.381       17.749      860.000
09/29/2013  19:38:00      -15.008     -146.813       -4.192      161.449      154.542       65.525    26065.852    23883.349     4293.490        3.801        2.712      147.578       70.352        0.227      342.302       17.615      859.994
09/29/2013  19:39:00     -197.025     -288.315      -18.082      148.113      141.975       67.111    21937.436    20156.980     4503.949        8.443        2.330      349.205       66.498        0.036      342.521       17.987      859.789
09/29/2013  19:40:00     -178.075     -188.781       -3.347       87.945      127.633       56.015     7734.277    16290.208     3137.731        4.726        1.358      259.517       47.658        0.034      342.538       18.015      859.866
09/29/2013  19:41:00      -15.555      -72.233        0.321       34.634       58.894       33.010     1199.482     3468.494     1089.637        0.561        0.288       73.889       25.781        0.122      342.477       17.915      859.793
09/29/2013  19:42:00      -13.081     -127.332       16.898      105.348       59.439       40.358    11098.186     3532.973     1628.795        1.646        0.813      128.002       33.837        0.070      342.475       17.908      859.897
09/29/2013  19:43:00     -131.388     -109.368       11.921       94.605       91.579       47.605     8950.122     8386.747     2266.232        2.448        0.980      170.950       47.045        0.076      342.467       17.896      859.940
09/29/2013  19:44:00     -152.850     -113.828       17.724      141.184       96.976       51.895    19932.836     9404.274     2693.120        3.433        1.602      190.578       63.515        0.111      342.460       17.884      859.821
09/29/2013  19:45:00     -136.894     -140.957       16.207      120.014      113.683       55.208    14403.354    12923.790     3047.973        3.462        1.519      196.491       64.487        0.108      342.448       17.859      859.776
09/29/2013  19:46:00     -188.836     -223.536       -3.612      141.669      120.359       64.099    20069.968    14486.374     4108.744        6.214        1.933      292.621       78.588        0.072      342.474       17.906      859.859
09/29/2013  19:47:00     -166.015     -254.638        5.906      135.623      140.603       59.966    18393.612    19769.248     3595.878        6.709        2.088      303.976       56.447        0.034      342.460       17.882      859.941
09/29/2013  19:48:00     -260.233     -160.936      -13.637      118.817      119.820       56.441    14117.513    14356.936     3185.598        6.273        1.583      305.976       65.400        0.046      342.427       17.825      859.983
09/29/2013  19:49:00     -230.071      -40.808      -19.630      129.360      121.061       49.986    16733.888    14655.664     2498.636        4.443        1.694      233.662       54.312        0.054      342.465       17.891      859.834
09/29/2013  19:50:00     -214.648      -72.562       -3.090      147.160      140.391       59.522    21656.177    19709.495     3542.817        4.812        2.245      226.581       71.755        0.100      342.396       17.775      859.760
09/29/2013  19:51:00     -201.389     -381.512      -14.889      162.544      139.512       89.291    26420.515    19463.580     7972.860       12.008        2.693      431.403       77.670        0.032      342.586       18.097      859.875
09/29/2013  19:52:00     -104.322      -62.056       23.408       94.712       77.611       54.007     8970.452     6023.410     2916.793        1.659        0.896      121.384       27.090        0.050      342.511       17.971      859.941
09/29/2013  19:53:00     -200.542     -102.549       -7.672       86.343       75.398       39.025     7455.186     5684.843     1522.964        3.272        0.733      225.241       39.316        0.030      342.464       17.890      859.971
09/29/2013  19:54:00      -81.796      -46.240       15.953       76.556       49.223       35.599     5860.889     2422.943     1267.254        0.932        0.478       93.961       38.087        0.164      342.369       17.732      859.964
09/29/2013  19:55:00       16.101      -44.387       17.170       33.636       41.955       40.692     1131.405     1760.185     1655.821        0.353        0.227       47.217       12.229        0.067      342.378       17.747      859.929
09/29/2013  19:56:00      -99.584      -47.815        6.581       84.513       95.535       44.034     7142.460     9126.948     1938.960        1.522        0.910      110.468       56.034        0.257      342.308       17.624      859.998
09/29/2013  19:57:00     -124.401     -182.736        5.203      129.985       82.034       52.678    16896.201     6729.656     2774.990        3.764        1.320      221.061       55.819        0.064      342.465       17.890      860.070
09/29/2013  19:58:00       -2.518     -120.044       -5.363       85.004       88.784       58.976     7225.717     7882.570     3478.202        1.651        0.929      120.071       49.215        0.168      342.413       17.803      860.036
09/29/2013  19:59:00      -52.971      -67.763        3.906       60.231       53.545       31.880     3627.780     2867.109     1016.350        0.746        0.376       86.010       22.666        0.069      342.372       17.736      860.058
09/29/2013  20:00:00       32.026      -75.090       21.227       73.445       79.555       34.366     5394.124     6329.001     1181.042        1.001        0.645       81.635       31.394        0.148      342.012       17.125      860.060
09/29/2013  20:01:00     -245.882      -70.495      -11.078      136.132       94.434       53.113    18531.930     8917.828     2820.984        4.790        1.514      255.788       61.318        0.057      342.301       17.613      860.091
09/29/2013  20:02:00     -210.383      -91.909      -11.411       94.081       61.792       38.902     8851.215     3818.282     1513.350        3.351        0.709      229.582       21.439        0.009      342.286       17.588      860.215
09/29/2013  20:03:00     -136.020      -49.078        3.383      114.352       79.242       55.529    13076.383     6279.308     3083.480        2.168        1.122      144.603       61.149        0.179      342.250       17.528      860.275
09/29/2013  20:04:00     -195.408      -90.154       15.484      187.425      151.794       68.152    35128.132    23041.504     4644.727        5.467        3.141      215.202       90.076        0.175      342.209       17.456      860.124
09/29/2013  20:05:00        0.247      -89.534       12.454       63.988      102.299       34.738     4094.439    10465.114     1206.712        1.197        0.788       89.535       28.225        0.099      342.206       17.451      860.143
09/29/2013  20:06:00     -235.570       17.831       -2.222      181.592      101.303       58.878    32975.479    10262.361     3466.664        5.125        2.335      236.244       69.314        0.086      342.336       17.672      860.193
09/29/2013  20:07:00      -48.209     -233.214       13.956       92.477      142.794       60.044     8552.013    20390.147     3605.274        4.472        1.627      238.145       64.327        0.073      342.439       17.847      860.182
09/29/2013  20:08:00     -413.178     -199.181       -1.474      206.415      187.739       89.248    42607.026    35245.844     7965.230       14.809        4.291      458.682      105.361        0.053      342.456       17.876      860.068
09/29/2013  20:09:00     -227.405      -43.812       17.428      251.710      120.646       82.118    63358.044    14555.575     6743.427        6.928        4.233      231.587      113.325        0.239      342.367       17.725      860.109
09/29/2013  20:10:00        2.730      -25.338       -1.448       35.890       41.082       32.317     1288.115     1687.752     1044.383        0.234        0.201       25.485       19.600        0.591      342.237       17.504      860.172
09/29/2013  20:11:00      -73.171      -32.373        1.562       77.054       42.316       26.228     5937.285     1790.679      687.888        0.741        0.421       80.013       15.860        0.039      342.341       17.682      860.246
09/29/2013  20:12:00       50.637      -52.269        2.211       44.737       47.222       40.200     2001.380     2229.892     1616.025        0.557        0.292       72.775       28.846        0.157      342.075       17.231      860.310
09/29/2013  20:13:00     -124.490     -128.165       -3.247       77.224       68.324       34.016     5963.602     4668.220     1157.070        2.186        0.589      178.673       33.493        0.035      342.410       17.800      860.352
09/29/2013  20:14:00      -31.816     -167.352       -8.147       55.502       64.046       42.312     3080.527     4101.921     1790.341        1.903        0.449      170.349       31.609        0.034      342.455       17.875      860.327
09/29/2013  20:15:00      -33.996      -31.177       11.580       32.768       30.197       21.910     1073.754      911.886      480.062        0.236        0.123       46.127       17.915        0.151      342.315       17.637      860.407
09/29/2013  20:16:00       14.720      -15.485       -2.530       38.594       25.479       31.820     1489.483      649.177     1012.485        0.181        0.158       21.365       20.496        0.920      342.316       17.640      860.442
09/29/2013  20:17:00       35.661      -12.955       39.625       35.297       41.437       28.794     1245.868     1717.000      829.095        0.340        0.190       37.941       20.496        0.292      342.217       17.472      860.426
09/29/2013  20:18:00       45.557      -28.915        4.477       38.762       50.007       39.217     1502.502     2500.656     1537.986        0.424        0.277       53.958       26.274        0.237      341.990       17.087      860.513
09/29/2013  20:19:00      -18.209      -19.803       18.314       50.796       86.329       44.367     2580.283     7452.734     1968.397        0.653        0.600       26.902       34.274        1.623      342.128       17.321      860.503
09/29/2013  20:20:00       24.838      -79.450        2.351       79.869       63.460       35.757     6379.023     4027.112     1278.549        0.931        0.584       83.242       32.339        0.151      342.123       17.311      860.324
09/29/2013  20:21:00      -95.431       19.461        7.163       43.161       70.803       28.485     1862.845     5013.011      811.397        0.861        0.384       97.395       28.951        0.088      342.122       17.310      860.361
09/29/2013  20:22:00     -138.835      -48.624       13.115      105.800       83.341       37.683    11193.622     6945.746     1420.002        2.068        0.978      147.103       38.957        0.070      342.214       17.464      860.541
09/29/2013  20:23:00       14.884      -10.582       19.729       34.656       40.029       28.059     1201.028     1602.299      787.283        0.216        0.180       18.262       19.680        1.161      341.822       16.800      860.355
09/29/2013  20:24:00       32.253      -67.442        3.579       73.409       94.916       23.417     5388.910     9009.140      548.355        1.027        0.747       74.757       27.017        0.131      341.823       16.802      860.350
09/29/2013  20:25:00     -270.375     -247.512       51.270      268.445      252.576      140.740    72062.841    63794.761    19807.687       14.630        7.783      366.558      182.041        0.247      342.335       17.670      860.372
09/29/2013  20:26:00     -229.433     -272.926      -10.852      188.006      128.994       73.375    35346.298    16639.378     5383.861        9.230        2.868      356.550       66.719        0.035      342.544       18.025      860.452
09/29/2013  20:27:00     -215.506     -136.527       -2.690      165.229      158.933       70.495    27300.560    25259.612     4969.612        6.130        2.876      255.113       68.109        0.071      342.451       17.868      860.315
09/29/2013  20:28:00     -170.397     -230.141       -7.064      194.849      139.520       68.093    37966.117    19465.745     4636.597        7.205        3.103      286.356       66.819        0.054      342.408       17.793      860.307
09/29/2013  20:29:00     -244.119     -319.853        7.720      200.369      217.669       92.509    40147.573    47379.972     8557.898       12.900        4.804      402.368      113.374        0.079      342.388       17.760      860.408
09/29/2013  20:30:00     -238.129     -162.362       -5.900      137.894      111.641       61.086    19014.829    12463.717     3731.531        5.915        1.761      288.214       41.657        0.021      342.278       17.571      860.374
09/29/2013  20:31:00     -294.541     -272.428       -9.806      127.370      160.201       75.244    16223.162    25664.357     5661.698       10.430        2.377      401.212       71.024        0.031      342.296       17.604      860.345
09/29/2013  20:32:00     -278.637     -206.514        2.766      189.538      163.499       87.195    35924.737    26731.774     7603.022        9.526        3.513      346.823       91.869        0.070      342.383       17.751      860.363
09/29/2013  20:33:00     -101.023     -114.602       12.093       90.120       72.121       56.554     8121.599     5201.460     3198.377        2.000        0.826      152.772       45.160        0.087      342.408       17.794      860.352
09/29/2013  20:34:00     -169.427     -254.049        2.652      112.764      137.181       62.391    12715.643    18818.568     3892.680        6.433        1.771      305.363       49.460        0.026      342.394       17.771      860.468
09/29/2013  20:35:00     -127.207     -265.476      -24.241      177.999      119.933       74.223    31683.668    14383.905     5509.006        6.940        2.579      294.379       48.929        0.028      342.400       17.779      860.451
09/29/2013  20:36:00      -26.981      -39.455       -6.921       85.776       64.106       36.266     7357.493     4109.611     1315.255        0.755        0.639       47.798       33.933        0.504      342.307       17.623      860.473
09/29/2013  20:37:00      -20.185      -33.886       14.851      102.928       77.340       54.981    10594.242     5981.518     3022.912        1.068        0.980       39.442       50.071        1.612      342.242       17.514      860.537
09/29/2013  20:38:00      -23.636     -212.596        6.444      167.920      147.819       70.933    28197.132    21850.573     5031.479        5.043        2.754      213.906       57.135        0.071      342.316       17.638      860.451
09/29/2013  20:39:00      -79.178     -192.634        1.176      189.101      180.458       70.866    35759.289    32565.076     5022.038        5.835        3.667      208.272       68.373        0.108      342.355       17.704      860.311
09/29/2013  20:40:00      -89.894     -256.575      -17.006      233.711      170.147      103.976    54620.916    28950.010    10810.929        8.427        4.719      271.867       73.512        0.073      342.442       17.853      860.340
09/29/2013  20:41:00     -285.951     -254.319       -1.810      164.032      152.934       77.631    26906.485    23388.743     6026.546       10.137        2.816      382.683       83.675        0.048      342.598       18.116      860.466
09/29/2013  20:42:00     -196.105     -207.590       -9.992      189.295      214.240       75.025    35832.526    45898.728     5628.696        8.449        4.368      285.570       88.369        0.096      342.464       17.891      860.534
09/29/2013  20:43:00      -95.295     -166.202       31.310      149.635      183.857       58.914    22390.632    33803.475     3470.884        4.866        2.983      191.584       66.204        0.119      342.405       17.789      860.506
09/29/2013  20:44:00     -319.701     -122.553       -3.350      172.242      133.534       83.036    29667.396    17831.455     6894.925        8.581        2.720      342.385       79.409        0.054      342.343       17.682      860.509
09/29/2013  20:45:00     -157.360     -225.307        8.250      134.682      157.844       72.990    18139.310    24914.742     5327.482        6.198        2.419      274.819       53.690        0.038      342.276       17.569      860.503
09/29/2013  20:46:00     -245.729     -116.773       14.741      169.060      228.703       88.751    28581.369    52305.033     7876.796        8.148        4.438      272.064      100.628        0.137      342.143       17.343      860.423
09/29/2013  20:47:00     -164.803     -300.937        2.561      191.243      159.721       78.419    36573.751    25510.686     6149.606        9.297        3.412      343.108       82.572        0.058      342.251       17.527      860.444
09/29/2013  20:48:00     -231.416     -126.787        2.435      202.096      156.335       87.228    40842.605    24440.619     7608.767        7.125        3.645      263.872       98.947        0.141      342.247       17.520      860.436
09/29/2013  20:49:00     -288.652     -241.533       -6.374      190.084      167.905       96.122    36131.889    28191.942     9239.500       10.762        3.678      376.375      105.444        0.078      342.312       17.630      860.459
09/29/2013  20:50:00     -343.043     -208.410        6.758      221.871      164.215       87.955    49226.634    26966.503     7736.141       12.253        4.196      401.389       88.338        0.048      342.277       17.570      860.498
09/29/2013  20:51:00     -292.757     -288.657      -11.904      197.845      140.395       96.985    39142.664    19710.766     9406.035       11.870        3.413      411.132      105.261        0.066      342.219       17.473      860.462
09/29/2013  20:52:00     -239.057     -144.411       -2.592      138.320      138.689       68.794    19132.531    19234.543     4732.678        6.055        2.155      279.290       63.533        0.052      342.185       17.415      860.498
09/29/2013  20:53:00     -215.595     -121.265        3.763      246.782      118.615       63.942    60901.399    14069.562     4088.596        7.011        3.953      247.359       87.722        0.126      342.145       17.348      860.573
09/29/2013  20:54:00     -307.029     -223.830        4.485      224.908      141.259       80.302    50583.571    19954.232     6448.338       11.067        3.849      379.956       85.462        0.051      342.178       17.403      860.568
09/29/2013  20:55:00     -220.909     -181.337        1.697      153.269      131.049       59.129    23491.346    17173.711     3496.287        6.292        2.208      285.804       69.323        0.059      342.146       17.348      860.543
09/29/2013  20:56:00     -192.627     -161.370       17.411      138.026      151.360       67.153    19051.186    22909.941     4509.468        5.495        2.324      251.288       68.986        0.075      342.134       17.330      860.532
09/29/2013  20:57:00     -262.070      -97.142        1.726      127.594      125.056       64.195    16280.140    15638.942     4121.050        5.707        1.802      279.495       70.510        0.064      342.116       17.297      860.476
09/29/2013  20:58:00     -298.930     -211.164        3.493      174.476      172.726       77.071    30441.700    29834.133     5939.901       10.008        3.311      365.991       85.739        0.055      342.092       17.257      860.505
09/29/2013  20:59:00     -203.422     -197.670        1.110      161.005      141.657       80.412    25922.475    20066.751     6466.115        6.644        2.623      283.644       83.643        0.087      342.040       17.168      860.568
09/29/2013  21:00:00     -123.615      -87.810       13.105      103.516       91.866       56.003    10715.506     8439.423     3136.306        2.272        1.115      151.629       43.286        0.081      341.968       17.047      860.486
09/29/2013  21:01:00     -100.644     -216.787       16.692      112.319       96.582       53.744    12615.606     9328.075     2888.453        4.111        1.242      239.011       56.091        0.055      341.961       17.033      860.446
09/29/2013  21:02:00     -221.741      -94.651      -14.173      138.165      121.866       44.712    19089.517    14851.237     1999.168        4.713        1.797      241.097       32.532        0.018      341.974       17.056      860.438
09/29/2013  21:03:00     -156.573      -59.622        6.054      125.486       94.650       56.874    15746.736     8958.562     3234.648        2.802        1.397      167.541       44.538        0.071      341.956       17.027      860.500
09/29/2013  21:04:00     -146.870     -171.830       -8.626      117.784      106.694       49.382    13872.974    11383.608     2438.612        3.943        1.385      226.045       31.138        0.019      342.008       17.113      860.509
09/29/2013  21:05:00     -224.745      -84.619       -5.056      116.698       90.612       64.600    13618.428     8210.597     4173.134        4.184        1.300      240.147       56.590        0.056      341.975       17.057      860.578
09/29/2013  21:06:00     -200.645      -15.240        2.365      200.513      116.973       64.173    40205.397    13682.700     4118.139        4.924        2.900      201.223       78.832        0.153      342.024       17.142      860.571
09/29/2013  21:07:00     -124.578     -138.903        0.559      149.229      130.748       59.771    22269.346    17094.991     3572.534        3.887        2.147      186.585       57.635        0.095      341.985       17.076      860.581
09/29/2013  21:08:00     -211.028      -92.169       -7.382      195.106      152.766       67.881    38066.173    23337.424     4607.772        5.953        3.301      230.279       81.024        0.124      341.976       17.060      860.572
09/29/2013  21:09:00     -279.681     -109.034       -3.688      181.373      155.029       88.601    32896.321    24034.093     7850.116        7.744        3.239      300.183       99.710        0.110      341.941       17.000      860.555
09/29/2013  21:10:00     -158.033      -99.370        8.452      129.217      103.806       57.654    16697.116    10775.765     3323.981        3.285        1.540      186.679       63.203        0.115      341.941       17.002      860.593
09/29/2013  21:11:00     -155.512     -183.852        4.508      118.478      102.042       67.224    14037.154    10412.513     4519.042        4.348        1.448      240.802       70.436        0.086      341.958       17.029      860.625
09/29/2013  21:12:00     -216.966     -168.818        0.897      129.583      152.982       62.231    16791.754    23403.581     3872.648        5.981        2.203      274.907       55.921        0.041      341.936       16.989      860.625
09/29/2013  21:13:00     -234.299     -146.914       -3.456      193.784       95.709       69.519    37552.215     9160.223     4832.860        6.401        2.577      276.549       92.331        0.111      341.907       16.942      860.608
09/29/2013  21:14:00     -313.914     -212.660        1.421      205.792      159.291       91.438    42350.363    25373.747     8360.905       10.991        3.804      379.165       90.574        0.057      341.870       16.878      860.612
09/29/2013  21:15:00     -443.818     -284.242       -6.232      177.486      178.057       89.151    31501.323    31704.368     7947.937       17.447        3.558      527.037       97.654        0.034      341.858       16.859      860.634
09/29/2013  21:16:00     -402.061     -280.804      -12.584      223.754      172.685       95.300    50065.711    29819.988     9082.152       16.480        4.448      490.412      111.297        0.052      341.837       16.823      860.676
09/29/2013  21:17:00     -324.793     -175.183        2.207      180.116      167.499       82.639    32441.919    28055.800     6829.137       10.174        3.366      369.026       99.028        0.072      341.799       16.758      860.721
09/29/2013  21:18:00     -282.645     -208.448       -6.575      163.397      156.323       84.412    26698.478    24436.860     7125.415        9.081        2.913      351.196       96.230        0.075      341.745       16.667      860.672
09/29/2013  21:19:00     -216.640     -149.046       -8.059      177.004      142.437       64.374    31330.376    20288.298     4144.067        6.248        2.788      262.960       63.359        0.058      341.750       16.675      860.665
09/29/2013  21:20:00     -195.796     -222.223       -0.970      132.357      101.693       70.404    17518.355    10341.516     4956.686        6.026        1.641      296.174       55.129        0.035      341.773       16.713      860.717
09/29/2013  21:21:00     -211.854      -70.823        5.906      146.233      107.752       67.782    21384.092    11610.400     4594.369        4.375        1.879      223.378       65.037        0.085      341.748       16.673      860.754
09/29/2013  21:22:00     -387.546     -235.851      -14.022      157.816      138.029       76.484    24906.030    19052.014     5849.866       12.790        2.490      453.671       66.313        0.021      341.755       16.683      860.732
09/29/2013  21:23:00     -292.765      -90.724       -1.314      242.461      137.810       86.838    58787.562    18991.519     7540.884        8.961        4.266      306.500      104.508        0.116      341.713       16.614      860.826
09/29/2013  21:24:00     -434.487     -180.508      -29.288      206.548      131.144       71.378    42662.227    17198.817     5094.793       14.357        3.248      470.491       84.456        0.032      341.710       16.610      860.867
09/29/2013  21:25:00     -323.701     -200.180       -3.815      143.094      161.565       73.649    20475.805    26103.317     5424.102        9.843        2.600      380.598       69.787        0.034      341.695       16.583      860.821
09/29/2013  21:26:00     -266.480      -30.895       -2.671      156.050      124.365       64.995    24351.637    15466.583     4224.362        5.800        2.202      268.265       68.049        0.064      341.672       16.546      860.753
09/29/2013  21:27:00     -263.690     -102.508       -0.632      120.591      111.808       50.293    14542.224    12501.015     2529.368        5.480        1.479      282.914       52.701        0.035      341.668       16.538      860.849
09/29/2013  21:28:00     -422.464     -182.340       -0.426      225.998      184.500      101.118    51075.226    34040.281    10224.770       15.351        4.767      460.134      106.454        0.054      341.854       16.851      860.829
09/29/2013  21:29:00     -256.542     -185.023        7.111      196.038      170.181       88.904    38430.984    28961.536     7903.835        8.768        3.765      316.302      101.045        0.102      341.755       16.684      860.827
09/29/2013  21:30:00     -231.486     -178.387        4.201      156.440      122.725       73.818    24473.341    15061.491     5449.037        6.520        2.249      292.246       67.026        0.053      341.708       16.605      860.830
09/29/2013  21:31:00     -265.743     -145.870       -2.298      167.734      146.628       78.592    28134.607    21499.745     6176.634        7.385        2.791      303.146       77.763        0.066      341.788       16.741      860.833
09/29/2013  21:32:00     -456.221     -354.791      -20.889      280.001      236.221      100.269    78400.440    55800.189    10053.885       23.932        7.213      577.939      113.096        0.038      341.792       16.747      860.826
09/29/2013  21:33:00     -208.962     -105.328        3.966      213.356      160.804       98.672    45520.981    25857.839     9736.228        6.793        4.056      234.007      109.740        0.220      341.705       16.601      860.792
09/29/2013  21:34:00     -361.255     -167.528       -2.778      276.962      195.390      121.298    76708.157    38177.233    14713.316       14.406        6.480      398.210      117.308        0.087      341.640       16.490      860.855
09/29/2013  21:35:00     -547.726     -215.189      -22.581      185.837      189.376      101.839    34535.431    35863.340    10371.180       21.378        4.038      588.482      100.962        0.029      341.634       16.479      860.862
09/29/2013  21:36:00     -352.520     -187.563      -31.086      179.044      168.545       73.997    32056.778    28407.565     5475.546       11.317        3.297      399.313       80.866        0.041      341.601       16.425      860.783
09/29/2013  21:37:00     -384.199      -78.572       -0.527      161.323      142.564       76.377    26025.225    20324.416     5833.413       10.297        2.609      392.151       82.164        0.044      341.561       16.357      860.773
09/29/2013  21:38:00     -392.133     -115.503      -15.594      171.268      128.841       77.564    29332.736    16599.997     6016.227       10.964        2.597      408.790       81.649        0.040      341.642       16.493      860.744
09/29/2013  21:39:00     -309.953     -136.045      -13.252      176.891      118.684       65.237    31290.344    14085.810     4255.808        8.218        2.482      338.495       70.777        0.044      341.715       16.616      860.729
09/29/2013  21:40:00     -343.160     -164.668      -10.121      189.460      152.438       86.871    35894.904    23237.384     7546.641       10.581        3.334      380.624       99.702        0.069      341.727       16.636      860.753
09/29/2013  21:41:00     -267.087      -89.792       -1.656      184.704      117.445       63.150    34115.420    13793.389     3987.936        6.564        2.595      281.776       58.500        0.043      341.706       16.603      860.767
09/29/2013  21:42:00     -180.008     -152.043        1.343      119.595      140.400       56.914    14302.998    19712.269     3239.242        4.638        1.863      235.627       59.619        0.064      341.706       16.603      860.783
09/29/2013  21:43:00     -259.191     -170.179       -1.229      123.751      145.611       67.138    15314.336    21202.499     4507.548        6.858        2.051      310.066       71.214        0.053      341.649       16.505      860.787
09/29/2013  21:44:00     -507.337     -201.742      -30.838      198.516      133.791       88.013    39408.642    17900.043     7746.331       18.204        3.253      545.977       98.714        0.033      341.644       16.496      860.771
09/29/2013  21:45:00     -380.198     -159.016      -30.928      213.172      138.008       74.322    45442.334    19046.088     5523.770       12.039        3.501      412.112       81.069        0.039      341.701       16.594      860.737
09/29/2013  21:46:00     -173.483     -162.627       -1.771      128.228      133.690       67.411    16442.529    17873.055     4544.264        4.770        1.943      237.790       71.128        0.089      341.689       16.574      860.697
09/29/2013  21:47:00     -190.144     -174.800       10.095      121.959      108.271       57.803    14873.983    11722.528     3341.189        4.837        1.497      258.282       56.114        0.047      341.666       16.535      860.711
09/29/2013  21:48:00     -205.147     -133.565        1.502      137.515      110.236       66.253    18910.383    12151.947     4389.399        4.768        1.773      244.795       54.923        0.050      341.693       16.579      860.841
09/29/2013  21:49:00     -175.308     -156.980        3.632      128.135       98.273       60.102    16418.473     9657.578     3612.229        4.253        1.484      235.320       54.909        0.054      341.677       16.553      860.842
09/29/2013  21:50:00     -219.042     -119.855       -1.694      155.086      102.171       56.787    24051.625    10438.989     3224.713        5.002        1.886      249.689       58.178        0.054      341.729       16.641      860.734
09/29/2013  21:51:00     -282.247     -137.231       10.576      159.257      118.010       64.497    25362.893    13926.351     4159.900        7.102        2.172      313.840       69.178        0.049      341.740       16.659      860.769
09/29/2013  21:52:00     -362.796      -87.031        8.604      198.433      185.376       89.631    39375.485    34364.400     8033.794       11.050        4.089      373.088       96.181        0.066      341.739       16.658      860.803
09/29/2013  21:53:00     -270.154      -40.654       -1.767      194.150      177.548       68.602    37694.112    31523.410     4706.241        7.427        3.696      273.196       88.485        0.105      341.728       16.639      860.755
09/29/2013  21:54:00     -239.026      -96.077        1.550      123.022      106.841       52.572    15134.360    11415.031     2763.829        4.783        1.466      257.612       50.281        0.038      341.682       16.561      860.744
09/29/2013  21:55:00     -285.727     -102.183        5.501      164.382      124.458       65.320    27021.420    15489.785     4266.692        6.944        2.339      303.449       49.209        0.026      341.691       16.575      860.781
09/29/2013  21:56:00     -192.236     -156.026        5.385      161.552      136.709       61.706    26098.904    18689.416     3807.607        5.495        2.430      247.586       68.751        0.077      341.697       16.586      860.787
09/29/2013  21:57:00     -301.209     -114.676      -19.332      134.700      157.564       65.746    18144.196    24826.496     4322.532        7.576        2.365      322.301       62.876        0.038      341.746       16.668      860.663
09/29/2013  21:58:00     -413.870     -236.279        0.746      212.469      127.308       84.532    45143.243    16207.295     7145.613       14.779        3.425      476.567       88.732        0.035      341.792       16.746      860.737
09/29/2013  21:59:00     -271.288     -177.423        9.869      161.687      102.674       73.723    26142.642    10541.898     5435.057        7.364        2.106      324.155       81.674        0.063      341.787       16.739      860.685
09/29/2013  22:00:00     -191.217     -176.352       10.993      145.092      106.991       69.218    21051.618    11447.085     4791.118        5.253        1.864      260.123       73.751        0.080      341.750       16.675      860.662
09/29/2013  22:01:00     -436.979     -280.991       -5.990      185.997      190.394       94.322    34594.958    36249.983     8896.647       17.483        3.987      519.526       95.653        0.034      341.782       16.731      860.749
09/29/2013  22:02:00     -462.928     -378.364       -4.593      283.961      217.238      113.501    80633.630    47192.264    12882.395       24.907        7.035      597.881      133.541        0.050      341.853       16.850      860.759
09/29/2013  22:03:00     -222.944     -215.667        5.972      225.560      148.921       70.738    50877.391    22177.531     5003.927        8.714        3.903      310.187       80.811        0.068      341.794       16.748      860.792
09/29/2013  22:04:00     -157.887     -314.253      -13.063      110.897      158.922       54.584    12298.169    25256.291     2979.376        8.219        2.027      351.686       45.088        0.016      341.774       16.717      860.777
09/29/2013  22:05:00     -297.946     -131.042       -6.692      130.362       97.657       57.429    16994.353     9536.910     3298.068        6.790        1.491      325.490       58.892        0.033      341.722       16.627      860.838
09/29/2013  22:06:00     -289.884     -189.787       -5.534      213.510      134.475       75.829    45586.348    18083.415     5749.981        9.474        3.471      346.485      101.381        0.086      341.609       16.438      860.888
09/29/2013  22:07:00     -204.808     -110.336       -2.393      131.042       87.700       54.461    17172.033     7691.234     2965.984        4.097        1.391      232.638       55.684        0.057      341.550       16.337      860.868
09/29/2013  22:08:00     -110.093      -58.454       14.961       98.327       63.492       36.063     9668.234     4031.280     1300.540        1.538        0.750      124.649       46.615        0.140      341.489       16.236      860.756
09/29/2013  22:09:00     -248.505      -56.612        2.534      143.625       76.982       48.942    20628.178     5926.204     2395.271        4.695        1.447      254.872       62.424        0.060      341.461       16.185      860.829
09/29/2013  22:10:00     -208.465      -80.187       -1.184      127.761      105.898       54.274    16322.848    11214.345     2945.674        4.018        1.524      223.355       62.685        0.079      341.437       16.146      860.886
09/29/2013  22:11:00     -301.475      -99.850      -13.771      115.992       90.080       53.386    13454.072     8114.332     2850.038        6.273        1.221      317.580       51.456        0.026      341.472       16.203      860.812
09/29/2013  22:12:00     -128.479      -90.843       -0.559      111.338       90.397       54.938    12396.107     8171.703     3018.160        2.417        1.179      157.350       46.078        0.086      341.436       16.145      860.748
09/29/2013  22:13:00     -180.300      -59.442        9.350      102.100       78.469       55.785    10424.371     6157.403     3111.924        2.791        0.985      189.846       62.344        0.108      341.409       16.098      860.797
09/29/2013  22:14:00     -235.514      -91.936        9.864      158.241      115.451       63.218    25040.345    13329.034     3996.452        5.318        2.118      252.822       66.505        0.069      341.400       16.085      860.800
09/29/2013  22:15:00     -495.715     -247.975      -36.669      241.634      161.965       79.099    58387.002    26232.669     6256.717       19.970        4.544      554.279       91.806        0.027      341.485       16.228      860.834
09/29/2013  22:16:00     -201.648      -84.531        7.349      123.583       93.309       56.732    15272.868     8706.531     3218.475        3.752        1.360      218.649       49.648        0.052      341.496       16.247      860.817
09/29/2013  22:17:00     -170.634     -100.022      -11.452       94.232       80.320       47.357     8879.664     6451.313     2242.646        2.841        0.879      197.789       49.637        0.063      341.443       16.156      860.834
09/29/2013  22:18:00     -263.874     -203.068      -12.317      123.988      110.896       70.143    15372.939    12297.968     4920.061        7.180        1.630      332.966       75.965        0.052      341.423       16.122      860.802
09/29/2013  22:19:00     -191.904      -98.017       -1.578       98.821      114.411       54.832     9765.535    13089.952     3006.557        3.614        1.293      215.487       51.743        0.058      341.367       16.026      860.816
09/29/2013  22:20:00      -90.413      -75.323       26.516      114.619       98.721       60.251    13137.544     9745.896     3630.240        2.053        1.326      117.678       71.302        0.367      341.360       16.017      860.785
09/29/2013  22:21:00     -198.817     -106.825       11.552      154.566      172.554       81.171    23890.784    29774.847     6588.754        5.565        3.013      225.698       88.849        0.155      341.367       16.028      860.871
09/29/2013  22:22:00     -332.461     -193.808       -6.438      190.345      136.171       85.430    36231.170    18542.588     7298.213       10.509        3.104      384.827       96.831        0.063      341.389       16.065      860.780
09/29/2013  22:23:00     -170.256      -78.213       -0.438      115.044       83.297       53.354    13235.111     6938.337     2846.664        2.906        1.151      187.361       58.703        0.098      341.374       16.041      860.759
09/29/2013  22:24:00     -105.421      -68.900       19.953      128.388       85.651       59.639    16483.497     7336.045     3556.803        2.181        1.369      125.940       54.691        0.189      341.520       16.287      860.719
09/29/2013  22:25:00     -225.619     -153.919       -5.366      122.803      105.013       55.206    15080.505    11027.667     3047.757        5.188        1.458      273.121       59.542        0.048      341.583       16.392      860.790
09/29/2013  22:26:00     -142.269     -143.253       -2.836      136.384      132.543       58.710    18600.556    17567.545     3446.890        4.018        1.981      201.896       74.540        0.136      341.631       16.476      860.943
09/29/2013  22:27:00     -220.062     -190.884       -8.603      135.501      122.614       54.575    18360.510    15034.092     2978.470        6.065        1.819      291.314       66.112        0.052      341.722       16.629      860.943
09/29/2013  22:28:00     -281.449     -164.647       -3.669      166.321      109.058       68.865    27662.758    11893.631     4742.447        7.531        2.215      326.070       76.024        0.054      341.629       16.471      860.935
09/29/2013  22:29:00     -370.086      -51.963      -11.593      224.158      118.257       70.762    50247.000    13984.806     5007.198       10.450        3.462      373.716       97.969        0.069      341.501       16.255      860.803
09/29/2013  22:30:00     -278.599     -115.736       19.027      202.551      157.510       78.893    41026.932    24809.347     6224.095        8.170        3.603      301.682       93.968        0.097      341.661       16.525      860.749
09/29/2013  22:31:00     -378.737      -86.015       10.075      183.930      146.314       80.763    33830.143    21407.805     6522.599       10.634        3.088      388.382       90.908        0.055      341.754       16.683      860.911
09/29/2013  22:32:00     -237.747      -79.129       -0.511      152.431      120.551       61.017    23235.301    14532.449     3723.054        5.213        2.075      250.569       71.170        0.081      341.652       16.510      860.873
09/29/2013  22:33:00     -147.187     -214.107        0.376       97.752       90.802       65.837     9555.430     8245.060     4334.567        4.482        1.107      259.818       64.838        0.062      341.771       16.712      860.711
09/29/2013  22:34:00     -105.523     -160.742       -5.830       78.543       89.129       54.366     6169.063     7943.931     2955.655        2.703        0.853      192.284       50.590        0.069      341.726       16.635      860.827
09/29/2013  22:35:00      -84.351      -72.424        5.491       93.085       62.679       39.304     8664.753     3928.638     1544.803        1.326        0.707      111.177       32.741        0.087      341.620       16.458      860.904
09/29/2013  22:36:00     -155.744      -93.421        0.816      107.036       61.850       41.633    11456.672     3825.465     1733.340        2.500        0.851      181.614       52.214        0.083      341.617       16.454      860.897
09/29/2013  22:37:00     -188.788      -80.523        7.386      117.378       93.563       48.212    13777.527     8753.973     2324.386        3.351        1.243      205.244       53.324        0.068      341.630       16.474      860.932
09/29/2013  22:38:00     -115.448      -77.459      -12.216      140.142       57.749       51.030    19639.718     3334.913     2604.043        2.252        1.279      139.025       58.456        0.177      341.657       16.518      860.850
09/29/2013  22:39:00     -171.425      -73.292       -1.528      110.141       70.732       39.956    12131.120     5003.084     1596.518        2.674        0.937      186.436       37.235        0.040      341.612       16.444      860.879
09/29/2013  22:40:00      -81.736      -33.892       34.677       90.492       98.781       47.294     8188.791     9757.746     2236.709        1.460        1.009       88.484       37.765        0.182      341.556       16.349      860.861
09/29/2013  22:41:00     -178.948      -62.574       -6.153       98.108       68.416       34.233     9625.236     4680.800     1171.868        2.572        0.774      189.573       31.209        0.027      341.667       16.537      860.817
09/29/2013  22:42:00     -213.118     -140.033        0.502      113.915       94.900       56.365    12976.625     9006.086     3176.970        4.509        1.258      255.007       54.240        0.045      341.574       16.378      860.904
09/29/2013  22:43:00     -182.029     -145.667        8.329      144.718      139.744       81.646    20943.346    19528.462     6666.060        5.077        2.357      233.138       94.120        0.163      341.523       16.293      860.880
09/29/2013  22:44:00     -238.018     -163.246       -5.589      240.342      136.354       76.483    57764.182    18592.492     5849.611        8.275        4.110      288.621       87.499        0.092      341.485       16.226      860.910
09/29/2013  22:45:00     -372.764     -151.078        2.931      213.817      175.749       92.897    45717.785    30887.619     8629.936       12.349        4.262      402.216      112.599        0.078      341.533       16.308      860.980
09/29/2013  22:46:00     -249.604     -150.209       -1.043      173.815      108.919       72.574    30211.625    11863.259     5266.964        6.609        2.367      291.316       75.992        0.068      341.578       16.385      860.936
09/29/2013  22:47:00     -271.918     -209.823        5.513      141.602      124.993       70.346    20051.151    15623.349     4948.621        7.930        2.031      343.461       79.258        0.053      341.529       16.301      860.903
09/29/2013  22:48:00     -255.042     -202.637      -11.950      113.631      133.172       62.689    12912.107    17734.913     3929.924        7.041        1.729      325.742       64.987        0.040      341.479       16.216      860.917
09/29/2013  22:49:00     -199.907     -131.540      -12.259      154.990       88.066       48.580    24021.928     7755.690     2360.035        4.577        1.707      239.302       65.332        0.075      341.444       16.158      860.874
09/29/2013  22:50:00     -239.797     -143.403       -4.487       96.956      104.216       56.411     9400.461    10860.999     3182.215        5.076        1.172      279.405       45.998        0.027      341.447       16.161      860.918
09/29/2013  22:51:00     -130.745     -124.204        0.239       94.107       80.616       40.822     8856.156     6498.967     1666.425        2.477        0.851      180.336       40.165        0.050      341.446       16.162      860.926
09/29/2013  22:52:00     -180.960     -174.943        5.380      138.898      122.532       67.220    19292.735    15014.104     4518.578        5.110        1.941      251.698       71.058        0.080      341.487       16.230      860.922
09/29/2013  22:53:00     -355.915     -180.026       -8.857      182.470      128.038       82.184    33295.169    16393.678     6754.259       10.779        2.822      398.854       76.877        0.037      341.575       16.379      861.003
09/29/2013  22:54:00     -117.649      -34.365        9.483      116.957       85.465       55.935    13678.947     7304.344     3128.677        1.961        1.206      122.565       55.493        0.205      341.539       16.320      860.987
09/29/2013  22:55:00     -299.013     -141.031      -15.715      303.689      150.335       88.943    92227.173    22600.632     7910.902       11.612        6.137      330.604      106.129        0.103      341.691       16.578      860.957
09/29/2013  22:56:00     -412.906     -218.525      -22.966      222.130      219.001       89.667    49341.674    47961.562     8040.098       16.204        5.267      467.166      113.291        0.059      341.708       16.604      861.016
09/29/2013  22:57:00     -166.000      -77.816        2.284      149.019      118.817       69.277    22206.740    14117.535     4799.312        3.736        2.056      183.334       69.071        0.142      341.666       16.536      861.023
09/29/2013  22:58:00     -193.547     -103.383       17.829      148.249      116.160       52.262    21977.644    13493.194     2731.330        4.333        1.910      219.427       68.163        0.096      341.689       16.573      860.853
09/29/2013  22:59:00     -220.382     -104.308       11.273      125.531       91.845       55.431    15758.000     8435.542     3072.593        4.342        1.363      243.821       52.307        0.046      341.740       16.658      860.956
09/29/2013  23:00:00     -149.481     -119.864        1.529      108.153       73.293       52.066    11697.045     5371.929     2710.913        2.824        0.989      191.604       49.196        0.066      341.743       16.666      861.027
09/29/2013  23:01:00     -162.575      -50.388       13.689      111.859       81.035       59.406    12512.348     6566.678     3529.059        2.588        1.130      170.204       61.842        0.132      341.672       16.546      861.025
09/29/2013  23:02:00     -322.436     -182.773      -21.753      134.749      115.618       66.384    18157.251    13367.622     4406.813        8.688        1.797      370.636       62.754        0.029      341.802       16.763      861.046
09/29/2013  23:03:00     -373.264     -127.388       -9.114      130.829      108.969       63.145    17116.157    11874.210     3987.305        9.430        1.649      394.403       63.973        0.026      341.836       16.823      861.027
09/29/2013  23:04:00     -182.214     -198.323        2.669      166.110      142.127       85.195    27592.501    20200.094     7258.113        6.378        2.753      269.321      103.047        0.146      341.735       16.650      861.038
09/29/2013  23:05:00     -226.235     -150.679        4.539      131.805       99.613       70.158    17372.621     9922.657     4922.138        5.306        1.611      271.821       74.209        0.075      341.715       16.616      861.060
09/29/2013  23:06:00     -117.467      -48.720       14.054      129.061      110.172       60.980    16656.851    12137.945     3718.543        2.443        1.626      127.169       63.388        0.248      341.711       16.611      861.030
09/29/2013  23:07:00     -149.649     -165.046       -5.686      141.084      125.126       66.889    19904.581    15656.601     4474.199        4.484        2.002      222.790       76.499        0.118      341.719       16.624      861.016
09/29/2013  23:08:00     -209.548     -217.279        6.530      131.389      126.209       60.233    17262.972    15928.817     3627.975        6.398        1.841      301.862       53.559        0.031      341.696       16.585      861.054
09/29/2013  23:09:00     -111.808      -76.865        4.980       67.885       84.691       39.682     4608.418     7172.577     1574.663        1.589        0.668      135.681       36.275        0.071      341.672       16.547      861.089
09/29/2013  23:10:00     -189.525     -105.056        2.739      154.407       84.525       54.314    23841.482     7144.504     2950.033        4.044        1.697      216.695       63.045        0.085      341.671       16.544      861.045
09/29/2013  23:11:00     -206.552     -165.071       -1.870      144.859       88.579       61.679    20984.268     7846.256     3804.344        5.127        1.632      264.409       63.130        0.057      341.689       16.572      861.020
09/29/2013  23:12:00     -252.967     -176.552        0.977      159.554      118.587       73.162    25457.608    14062.951     5352.679        7.001        2.244      308.485       74.690        0.059      341.663       16.529      861.019
09/29/2013  23:13:00     -304.876     -221.747        4.444      141.700      113.968       77.804    20078.846    12988.635     6053.525        9.062        1.956      376.990       72.703        0.037      341.637       16.485      861.014
09/29/2013  23:14:00     -217.171     -189.614       -3.282      135.538      129.129       54.866    18370.628    16674.215     3010.316        6.058        1.903      288.299       52.470        0.033      341.643       16.495      861.074
09/29/2013  23:15:00     -130.605     -124.226        2.631      130.629       91.625       56.467    17064.023     8395.084     3188.488        3.057        1.432      180.249       66.487        0.136      341.600       16.422      860.979
09/29/2013  23:16:00     -141.518     -136.999        8.857      116.423      102.210       59.149    13554.430    10446.974     3498.652        3.318        1.375      196.967       58.239        0.087      341.623       16.460      860.911
09/29/2013  23:17:00     -182.194     -117.140       -5.377      110.631       77.413       56.490    12239.302     5992.830     3191.124        3.418        1.071      216.602       43.849        0.041      341.626       16.467      860.904
09/29/2013  23:18:00      -94.107     -123.260       -8.129      139.671      111.015       51.664    19508.003    12324.294     2669.183        2.930        1.725      155.078       44.385        0.082      341.632       16.478      860.890
09/29/2013  23:19:00     -218.756     -220.783      -22.712      155.404      153.341       52.214    24150.295    23513.606     2726.293        7.374        2.520      310.805       48.107        0.024      341.743       16.663      860.903
09/29/2013  23:20:00     -272.132     -166.379        3.553      180.054      126.321       61.671    32419.294    15956.916     3803.253        7.695        2.609      318.963       70.019        0.048      341.751       16.679      860.868
09/29/2013  23:21:00     -176.030     -120.926       -0.483      134.408      119.631       57.791    18065.475    14311.599     3339.834        4.066        1.786      213.564       54.334        0.065      341.715       16.617      860.839
09/29/2013  23:22:00     -112.610      -78.696       13.528      108.117       70.920       44.685    11689.200     5029.674     1996.722        1.888        0.936      137.383       58.869        0.184      341.637       16.486      860.852
09/29/2013  23:23:00     -142.169     -204.998        9.981      107.109      103.960       54.675    11472.245    10807.578     2989.351        4.380        1.263      249.471       50.457        0.041      341.646       16.500      860.905
09/29/2013  23:24:00      -67.147     -247.806       13.175      126.109      170.616       61.659    15903.360    29109.854     3801.826        5.744        2.441      256.742       59.996        0.055      341.659       16.525      860.806
09/29/2013  23:25:00      -94.463     -157.774        1.241       84.521       80.288       37.132     7143.719     6446.206     1378.805        2.439        0.748      183.891       20.071        0.012      341.636       16.484      860.810
09/29/2013  23:26:00     -168.604     -153.034        0.137      112.115       88.841       59.787    12569.767     7892.663     3574.430        3.794        1.202      227.698       61.116        0.072      341.620       16.458      860.833
09/29/2013  23:27:00     -108.510      -32.067        5.677       61.520       60.195       34.433     3784.683     3623.495     1185.660        1.071        0.430      113.149       30.519        0.073      341.545       16.331      860.795
09/29/2013  23:28:00     -191.665     -124.465       -0.808      121.954       81.354       39.791    14872.851     6618.449     1583.289        3.765        1.154      228.533       46.163        0.041      341.608       16.438      860.810
09/29/2013  23:29:00     -256.547      -51.736       -4.659      126.102       98.571       52.237    15901.688     9716.161     2728.733        4.843        1.417      261.712       58.662        0.050      341.565       16.362      860.797
09/29/2013  23:30:00     -237.604      -94.747       -1.809      137.986       79.052       53.108    19040.187     6249.198     2820.422        4.677        1.405      255.798       63.905        0.062      341.603       16.428      860.780
09/29/2013  23:31:00     -198.037      -94.454      -11.318       59.811       64.276       33.723     3577.400     4131.467     1137.248        2.856        0.442      219.408       32.728        0.022      341.582       16.391      860.806
09/29/2013  23:32:00     -153.339      -42.634       18.559       97.580       71.598       45.084     9521.812     5126.246     2032.546        2.117        0.834      159.156       48.694        0.094      341.503       16.260      860.852
09/29/2013  23:33:00     -214.995     -154.669      -14.987       98.194      117.143       49.683     9642.096    13722.519     2468.379        4.810        1.292      264.849       42.428        0.026      341.542       16.324      860.810
09/29/2013  23:34:00     -209.579      -92.919        2.827      112.476       98.472       48.832    12650.833     9696.730     2384.570        3.864        1.237      229.254       56.882        0.062      341.476       16.211      860.776
09/29/2013  23:35:00     -144.430      -50.710        5.200       73.955       68.623       39.398     5469.316     4709.148     1552.234        1.759        0.587      153.073       33.197        0.047      341.443       16.157      860.755
09/29/2013  23:36:00     -176.263      -45.091        2.542       72.601       64.452       34.789     5270.862     4154.066     1210.273        2.187        0.532      181.940       33.550        0.034      341.470       16.202      860.764
09/29/2013  23:37:00     -137.580      -72.729       -4.819       53.784       71.330       31.080     2892.722     5087.977      965.943        1.659        0.447      155.621       22.720        0.021      341.447       16.164      860.783
09/29/2013  23:38:00     -147.638     -102.409       -9.554       86.501       80.356       46.550     7482.412     6457.123     2166.905        2.424        0.805      179.679       48.338        0.072      341.427       16.130      860.788
09/29/2013  23:39:00     -134.233      -77.804       -7.292       52.378       56.221       33.781     2743.413     3160.827     1141.136        1.558        0.352      155.152       26.488        0.029      341.420       16.121      860.780
09/29/2013  23:40:00     -184.178     -100.974       -3.378       78.088       81.246       48.534     6097.748     6600.945     2355.596        2.959        0.753      210.041       39.549        0.035      341.353       16.004      860.810
09/29/2013  23:41:00     -148.745      -56.074       -3.481       55.448       48.644       27.390     3074.464     2366.247      750.205        1.573        0.310      158.964       22.414        0.020      341.329       15.966      860.816
09/29/2013  23:42:00     -154.720      -56.771        5.913       99.001       91.473       49.816     9801.136     8367.369     2481.620        2.392        1.033      164.807       48.304        0.086      341.284       15.889      860.861
09/29/2013  23:43:00     -324.334     -222.685       -3.537      172.935      129.319       79.874    29906.591    16723.345     6379.875       10.389        2.650      393.422       82.475        0.044      341.298       15.910      860.852
09/29/2013  23:44:00     -248.080      -97.731       -3.014       96.323       78.217       47.190     9278.024     6117.889     2226.932        4.436        0.881      266.636       44.510        0.028      341.262       15.849      860.828
09/29/2013  23:45:00     -146.004      -35.247       -2.739       85.243       89.712       33.911     7266.355     8048.255     1149.931        1.951        0.823      150.199       37.848        0.063      341.235       15.806      860.788
09/29/2013  23:46:00     -137.244     -124.695       -0.493       97.719       98.602       56.097     9548.967     9722.393     3146.831        2.840        1.121      185.431       59.641        0.103      341.208       15.761      860.767
09/29/2013  23:47:00     -149.354      -32.120        2.119       82.917       77.771       47.289     6875.221     6048.398     2236.259        1.925        0.758      152.769       43.454        0.081      341.100       15.578      860.768
09/29/2013  23:48:00     -100.835      -16.403       17.396      106.189       85.953       56.604    11276.101     7387.931     3203.998        1.630        1.093      102.161       56.377        0.305      341.083       15.549      860.787
09/29/2013  23:49:00     -186.147     -129.052        0.243       93.392       73.359       50.625     8722.094     5381.503     2562.935        3.398        0.833      226.506       39.059        0.030      341.149       15.657      860.836
09/29/2013  23:50:00     -243.985     -140.720      -15.754      108.276      104.965       69.287    11723.683    11017.679     4800.728        5.356        1.377      281.658       65.757        0.055      341.105       15.580      860.804
09/29/2013  23:51:00     -124.837     -129.512      -17.224       87.046       85.563       47.725     7577.043     7321.061     2277.670        2.491        0.859      179.882       49.590        0.076      341.090       15.558      860.737
09/29/2013  23:52:00     -224.859     -144.566      -16.082       92.871       67.265       36.916     8625.047     4524.626     1362.790        4.311        0.726      267.322       38.394        0.021      341.055       15.501      860.767
09/29/2013  23:53:00     -264.763     -114.357       -7.998      123.710       89.123       51.734    15304.270     7942.969     2676.434        5.458        1.296      288.404       52.661        0.033      341.039       15.472      860.788
09/29/2013  23:54:00     -249.202     -191.040        4.528      134.002      108.352       79.321    17956.406    11740.209     6291.843        6.730        1.799      314.003       72.009        0.053      341.012       15.427      860.769
09/29/2013  23:55:00     -217.591     -142.189        5.529      153.044       84.329       65.849    23422.490     7111.396     4336.072        5.122        1.743      259.930       73.101        0.079      341.003       15.411      860.788
09/29/2013  23:56:00     -228.556      -67.968        5.276      145.762       83.852       64.519    21246.703     7031.233     4162.674        4.466        1.622      238.448       72.933        0.094      340.998       15.406      860.716
09/29/2013  23:57:00     -291.589     -133.699      -10.833      132.173       87.740       55.661    17469.637     7698.260     3098.201        6.564        1.413      320.780       62.340        0.038      341.013       15.427      860.660
09/29/2013  23:58:00     -369.805     -135.061      -21.285      129.507      113.359       65.927    16772.134    12850.292     4346.427        9.470        1.698      393.697       61.804        0.025      340.988       15.384      860.692
09/29/2013  23:59:00     -291.132     -121.327       -3.615      139.848      145.737       74.393    19557.400    21239.320     5534.387        7.290        2.317      315.401       76.097        0.058      340.945       15.313      860.645
